<?xml version="1.0" encoding="UTF-8"?>
<gpx version="1.1" creator="https://www.youtrack.es" xsi:schemaLocation="http://www.topografix.com/GPX/1/1 http://www.topografix.com/GPX/1/1/gpx.xsd http://www.garmin.com/xmlschemas/GpxExtensions/v3 http://www.garmin.com/xmlschemas/GpxExtensionsv3.xsd http://www.garmin.com/xmlschemas/TrackPointExtension/v1 http://www.garmin.com/xmlschemas/TrackPointExtensionv1.xsd" xmlns:gpxtpx="http://www.garmin.com/xmlschemas/TrackPointExtension/v1" xmlns:gpxx="http://www.garmin.com/xmlschemas/GpxExtensions/v3" xmlns:xsi="http://www.w3.org/2001/XMLSchema-instance">
  <metadata>
    <link href="https://www.youtrack.es">
      <text>YouTrack.es</text>
    </link>
    <time>2026-05-09T02:41:19Z</time>
  </metadata>
  <trk>
    <src>https://www.youtrack.es</src>
    <link href="https://www.youtrack.es/ruta/22208-roncesvalles">
      <text>YouTrack.es</text>
    </link>
    <trkseg>
      <trkpt lat="42.6524017565" lon="-1.3097171299">
        <ele>442.82</ele>
        <time>2021-05-23T08:30:50Z</time>
      </trkpt>
      <trkpt lat="42.6524015050" lon="-1.3097197283">
        <ele>442.82</ele>
        <time>2021-05-23T08:30:51Z</time>
      </trkpt>
      <trkpt lat="42.6523992419" lon="-1.3097240031">
        <ele>440.90</ele>
        <time>2021-05-23T08:30:56Z</time>
      </trkpt>
      <trkpt lat="42.6523986552" lon="-1.3097235840">
        <ele>444.75</ele>
        <time>2021-05-23T08:30:57Z</time>
      </trkpt>
      <trkpt lat="42.6523984037" lon="-1.3097233325">
        <ele>441.38</ele>
        <time>2021-05-23T08:30:58Z</time>
      </trkpt>
      <trkpt lat="42.6524015889" lon="-1.3097167108">
        <ele>442.34</ele>
        <time>2021-05-23T08:31:11Z</time>
      </trkpt>
      <trkpt lat="42.6520845015" lon="-1.3099991810">
        <ele>440.42</ele>
        <time>2021-05-23T08:31:23Z</time>
      </trkpt>
      <trkpt lat="42.6519206353" lon="-1.3102125842">
        <ele>438.50</ele>
        <time>2021-05-23T08:31:30Z</time>
      </trkpt>
      <trkpt lat="42.6519181207" lon="-1.3102652226">
        <ele>438.02</ele>
        <time>2021-05-23T08:31:33Z</time>
      </trkpt>
      <trkpt lat="42.6519234851" lon="-1.3102819864">
        <ele>438.02</ele>
        <time>2021-05-23T08:31:34Z</time>
      </trkpt>
      <trkpt lat="42.6519415062" lon="-1.3102962356">
        <ele>438.02</ele>
        <time>2021-05-23T08:31:35Z</time>
      </trkpt>
      <trkpt lat="42.6519688312" lon="-1.3102928828">
        <ele>438.02</ele>
        <time>2021-05-23T08:31:36Z</time>
      </trkpt>
      <trkpt lat="42.6520034485" lon="-1.3102781307">
        <ele>438.02</ele>
        <time>2021-05-23T08:31:37Z</time>
      </trkpt>
      <trkpt lat="42.6520373113" lon="-1.3102635462">
        <ele>438.02</ele>
        <time>2021-05-23T08:31:38Z</time>
      </trkpt>
      <trkpt lat="42.6520791370" lon="-1.3102481235">
        <ele>438.02</ele>
        <time>2021-05-23T08:31:39Z</time>
      </trkpt>
      <trkpt lat="42.6524182688" lon="-1.3101743627">
        <ele>438.02</ele>
        <time>2021-05-23T08:31:48Z</time>
      </trkpt>
      <trkpt lat="42.6523984876" lon="-1.3102315273">
        <ele>438.02</ele>
        <time>2021-05-23T08:31:50Z</time>
      </trkpt>
      <trkpt lat="42.6523634512" lon="-1.3102498837">
        <ele>438.02</ele>
        <time>2021-05-23T08:31:51Z</time>
      </trkpt>
      <trkpt lat="42.6523273252" lon="-1.3102591876">
        <ele>438.02</ele>
        <time>2021-05-23T08:31:52Z</time>
      </trkpt>
      <trkpt lat="42.6522856671" lon="-1.3102683239">
        <ele>438.02</ele>
        <time>2021-05-23T08:31:53Z</time>
      </trkpt>
      <trkpt lat="42.6522425842" lon="-1.3102799747">
        <ele>438.02</ele>
        <time>2021-05-23T08:31:54Z</time>
      </trkpt>
      <trkpt lat="42.6519227307" lon="-1.3103522267">
        <ele>438.02</ele>
        <time>2021-05-23T08:32:04Z</time>
      </trkpt>
      <trkpt lat="42.6519039553" lon="-1.3103178609">
        <ele>438.02</ele>
        <time>2021-05-23T08:32:05Z</time>
      </trkpt>
      <trkpt lat="42.6519026142" lon="-1.3102769572">
        <ele>438.02</ele>
        <time>2021-05-23T08:32:06Z</time>
      </trkpt>
      <trkpt lat="42.6519127563" lon="-1.3102233130">
        <ele>438.02</ele>
        <time>2021-05-23T08:32:07Z</time>
      </trkpt>
      <trkpt lat="42.6519289333" lon="-1.3101726025">
        <ele>438.02</ele>
        <time>2021-05-23T08:32:08Z</time>
      </trkpt>
      <trkpt lat="42.6519513968" lon="-1.3101521507">
        <ele>438.02</ele>
        <time>2021-05-23T08:32:09Z</time>
      </trkpt>
      <trkpt lat="42.6519796439" lon="-1.3101465348">
        <ele>438.02</ele>
        <time>2021-05-23T08:32:10Z</time>
      </trkpt>
      <trkpt lat="42.6520082261" lon="-1.3101448584">
        <ele>438.02</ele>
        <time>2021-05-23T08:32:11Z</time>
      </trkpt>
      <trkpt lat="42.6520449389" lon="-1.3101438526">
        <ele>438.02</ele>
        <time>2021-05-23T08:32:12Z</time>
      </trkpt>
      <trkpt lat="42.6521729305" lon="-1.3100716844">
        <ele>439.46</ele>
        <time>2021-05-23T08:32:16Z</time>
      </trkpt>
      <trkpt lat="42.6523773652" lon="-1.3099834230">
        <ele>440.90</ele>
        <time>2021-05-23T08:32:25Z</time>
      </trkpt>
      <trkpt lat="42.6524028461" lon="-1.3099705148">
        <ele>441.38</ele>
        <time>2021-05-23T08:32:37Z</time>
      </trkpt>
      <trkpt lat="42.6524046063" lon="-1.3099643961">
        <ele>441.38</ele>
        <time>2021-05-23T08:33:11Z</time>
      </trkpt>
      <trkpt lat="42.6524049416" lon="-1.3099509850">
        <ele>441.38</ele>
        <time>2021-05-23T08:33:55Z</time>
      </trkpt>
      <trkpt lat="42.6524041034" lon="-1.3099439442">
        <ele>441.38</ele>
        <time>2021-05-23T08:34:33Z</time>
      </trkpt>
      <trkpt lat="42.6524077076" lon="-1.3099126797">
        <ele>441.38</ele>
        <time>2021-05-23T08:34:37Z</time>
      </trkpt>
      <trkpt lat="42.6524173468" lon="-1.3097896334">
        <ele>441.86</ele>
        <time>2021-05-23T08:34:43Z</time>
      </trkpt>
      <trkpt lat="42.6522420812" lon="-1.3098186348">
        <ele>441.86</ele>
        <time>2021-05-23T08:34:51Z</time>
      </trkpt>
      <trkpt lat="42.6519265864" lon="-1.3101687469">
        <ele>439.46</ele>
        <time>2021-05-23T08:35:00Z</time>
      </trkpt>
      <trkpt lat="42.6519276761" lon="-1.3102553319">
        <ele>438.98</ele>
        <time>2021-05-23T08:35:02Z</time>
      </trkpt>
      <trkpt lat="42.6519473735" lon="-1.3102713414">
        <ele>438.50</ele>
        <time>2021-05-23T08:35:03Z</time>
      </trkpt>
      <trkpt lat="42.6519826613" lon="-1.3102733530">
        <ele>438.50</ele>
        <time>2021-05-23T08:35:04Z</time>
      </trkpt>
      <trkpt lat="42.6520298515" lon="-1.3102578465">
        <ele>438.02</ele>
        <time>2021-05-23T08:35:05Z</time>
      </trkpt>
      <trkpt lat="42.6520640496" lon="-1.3102450222">
        <ele>438.50</ele>
        <time>2021-05-23T08:35:06Z</time>
      </trkpt>
      <trkpt lat="42.6524398103" lon="-1.3101332914">
        <ele>439.94</ele>
        <time>2021-05-23T08:35:14Z</time>
      </trkpt>
      <trkpt lat="42.6525376271" lon="-1.3101065531">
        <ele>438.50</ele>
        <time>2021-05-23T08:35:16Z</time>
      </trkpt>
      <trkpt lat="42.6532997936" lon="-1.3098039664">
        <ele>439.94</ele>
        <time>2021-05-23T08:35:33Z</time>
      </trkpt>
      <trkpt lat="42.6533379313" lon="-1.3097792398">
        <ele>439.94</ele>
        <time>2021-05-23T08:35:34Z</time>
      </trkpt>
      <trkpt lat="42.6533757336" lon="-1.3097519148">
        <ele>439.94</ele>
        <time>2021-05-23T08:35:35Z</time>
      </trkpt>
      <trkpt lat="42.6539648976" lon="-1.3090629224">
        <ele>442.34</ele>
        <time>2021-05-23T08:35:53Z</time>
      </trkpt>
      <trkpt lat="42.6542777102" lon="-1.3082639594">
        <ele>443.79</ele>
        <time>2021-05-23T08:36:08Z</time>
      </trkpt>
      <trkpt lat="42.6544554904" lon="-1.3073432911">
        <ele>447.15</ele>
        <time>2021-05-23T08:36:24Z</time>
      </trkpt>
      <trkpt lat="42.6544629503" lon="-1.3072858751">
        <ele>447.15</ele>
        <time>2021-05-23T08:36:25Z</time>
      </trkpt>
      <trkpt lat="42.6545846555" lon="-1.3061141688">
        <ele>448.59</ele>
        <time>2021-05-23T08:36:44Z</time>
      </trkpt>
      <trkpt lat="42.6549206860" lon="-1.3049984537">
        <ele>448.59</ele>
        <time>2021-05-23T08:37:00Z</time>
      </trkpt>
      <trkpt lat="42.6554438006" lon="-1.3041828107">
        <ele>446.19</ele>
        <time>2021-05-23T08:37:13Z</time>
      </trkpt>
      <trkpt lat="42.6563118305" lon="-1.3032111805">
        <ele>447.63</ele>
        <time>2021-05-23T08:37:32Z</time>
      </trkpt>
      <trkpt lat="42.6570992265" lon="-1.3022466749">
        <ele>451.00</ele>
        <time>2021-05-23T08:37:51Z</time>
      </trkpt>
      <trkpt lat="42.6580447890" lon="-1.3013270125">
        <ele>453.40</ele>
        <time>2021-05-23T08:38:12Z</time>
      </trkpt>
      <trkpt lat="42.6589061134" lon="-1.3006006368">
        <ele>453.88</ele>
        <time>2021-05-23T08:38:30Z</time>
      </trkpt>
      <trkpt lat="42.6600134466" lon="-1.2996704131">
        <ele>455.32</ele>
        <time>2021-05-23T08:38:53Z</time>
      </trkpt>
      <trkpt lat="42.6609962247" lon="-1.2988580391">
        <ele>458.69</ele>
        <time>2021-05-23T08:39:14Z</time>
      </trkpt>
      <trkpt lat="42.6621226687" lon="-1.2980308291">
        <ele>459.17</ele>
        <time>2021-05-23T08:39:37Z</time>
      </trkpt>
      <trkpt lat="42.6635622606" lon="-1.2972655613">
        <ele>459.17</ele>
        <time>2021-05-23T08:40:02Z</time>
      </trkpt>
      <trkpt lat="42.6648099907" lon="-1.2969143596">
        <ele>456.28</ele>
        <time>2021-05-23T08:40:21Z</time>
      </trkpt>
      <trkpt lat="42.6665638201" lon="-1.2968301214">
        <ele>453.40</ele>
        <time>2021-05-23T08:40:44Z</time>
      </trkpt>
      <trkpt lat="42.6681174058" lon="-1.2967577856">
        <ele>452.92</ele>
        <time>2021-05-23T08:41:07Z</time>
      </trkpt>
      <trkpt lat="42.6691876072" lon="-1.2967012078">
        <ele>454.84</ele>
        <time>2021-05-23T08:41:24Z</time>
      </trkpt>
      <trkpt lat="42.6702229399" lon="-1.2966455519">
        <ele>456.28</ele>
        <time>2021-05-23T08:41:42Z</time>
      </trkpt>
      <trkpt lat="42.6714315265" lon="-1.2965842802">
        <ele>458.69</ele>
        <time>2021-05-23T08:42:06Z</time>
      </trkpt>
      <trkpt lat="42.6725076791" lon="-1.2965230085">
        <ele>462.05</ele>
        <time>2021-05-23T08:42:28Z</time>
      </trkpt>
      <trkpt lat="42.6734396629" lon="-1.2964795064">
        <ele>464.93</ele>
        <time>2021-05-23T08:42:48Z</time>
      </trkpt>
      <trkpt lat="42.6742109656" lon="-1.2964360043">
        <ele>467.82</ele>
        <time>2021-05-23T08:43:05Z</time>
      </trkpt>
      <trkpt lat="42.6753018703" lon="-1.2963738944">
        <ele>471.18</ele>
        <time>2021-05-23T08:43:29Z</time>
      </trkpt>
      <trkpt lat="42.6763973851" lon="-1.2964138761">
        <ele>472.63</ele>
        <time>2021-05-23T08:43:52Z</time>
      </trkpt>
      <trkpt lat="42.6773683447" lon="-1.2969117612">
        <ele>472.63</ele>
        <time>2021-05-23T08:44:10Z</time>
      </trkpt>
      <trkpt lat="42.6779604424" lon="-1.2973697484">
        <ele>471.18</ele>
        <time>2021-05-23T08:44:20Z</time>
      </trkpt>
      <trkpt lat="42.6789530274" lon="-1.2981335912">
        <ele>468.30</ele>
        <time>2021-05-23T08:44:35Z</time>
      </trkpt>
      <trkpt lat="42.6798580214" lon="-1.2988341507">
        <ele>464.45</ele>
        <time>2021-05-23T08:44:47Z</time>
      </trkpt>
      <trkpt lat="42.6808244549" lon="-1.2995816488">
        <ele>461.09</ele>
        <time>2021-05-23T08:44:59Z</time>
      </trkpt>
      <trkpt lat="42.6817235816" lon="-1.3002755027">
        <ele>457.72</ele>
        <time>2021-05-23T08:45:10Z</time>
      </trkpt>
      <trkpt lat="42.6820415072" lon="-1.3005211763">
        <ele>456.28</ele>
        <time>2021-05-23T08:45:14Z</time>
      </trkpt>
      <trkpt lat="42.6826154161" lon="-1.3009914011">
        <ele>452.92</ele>
        <time>2021-05-23T08:45:21Z</time>
      </trkpt>
      <trkpt lat="42.6831140555" lon="-1.3014656492">
        <ele>449.55</ele>
        <time>2021-05-23T08:45:27Z</time>
      </trkpt>
      <trkpt lat="42.6836173888" lon="-1.3019913621">
        <ele>446.19</ele>
        <time>2021-05-23T08:45:33Z</time>
      </trkpt>
      <trkpt lat="42.6841099095" lon="-1.3025154825">
        <ele>442.82</ele>
        <time>2021-05-23T08:45:39Z</time>
      </trkpt>
      <trkpt lat="42.6841865201" lon="-1.3025962003">
        <ele>442.82</ele>
        <time>2021-05-23T08:45:40Z</time>
      </trkpt>
      <trkpt lat="42.6853643451" lon="-1.3038217183">
        <ele>439.46</ele>
        <time>2021-05-23T08:45:56Z</time>
      </trkpt>
      <trkpt lat="42.6865347940" lon="-1.3050321490">
        <ele>438.02</ele>
        <time>2021-05-23T08:46:15Z</time>
      </trkpt>
      <trkpt lat="42.6874081045" lon="-1.3063258119">
        <ele>438.02</ele>
        <time>2021-05-23T08:46:33Z</time>
      </trkpt>
      <trkpt lat="42.6881005336" lon="-1.3075292856">
        <ele>439.94</ele>
        <time>2021-05-23T08:46:51Z</time>
      </trkpt>
      <trkpt lat="42.6887630392" lon="-1.3083819766">
        <ele>443.31</ele>
        <time>2021-05-23T08:47:07Z</time>
      </trkpt>
      <trkpt lat="42.6899011340" lon="-1.3095570356">
        <ele>444.75</ele>
        <time>2021-05-23T08:47:31Z</time>
      </trkpt>
      <trkpt lat="42.6910266560" lon="-1.3107141573">
        <ele>444.75</ele>
        <time>2021-05-23T08:47:52Z</time>
      </trkpt>
      <trkpt lat="42.6920909062" lon="-1.3118205685">
        <ele>443.31</ele>
        <time>2021-05-23T08:48:12Z</time>
      </trkpt>
      <trkpt lat="42.6921956800" lon="-1.3119310420">
        <ele>444.75</ele>
        <time>2021-05-23T08:48:14Z</time>
      </trkpt>
      <trkpt lat="42.6931378059" lon="-1.3128388859">
        <ele>444.27</ele>
        <time>2021-05-23T08:48:32Z</time>
      </trkpt>
      <trkpt lat="42.6943639945" lon="-1.3136873860">
        <ele>443.79</ele>
        <time>2021-05-23T08:48:53Z</time>
      </trkpt>
      <trkpt lat="42.6957326755" lon="-1.3146379776">
        <ele>443.31</ele>
        <time>2021-05-23T08:49:16Z</time>
      </trkpt>
      <trkpt lat="42.6970537473" lon="-1.3153832126">
        <ele>442.34</ele>
        <time>2021-05-23T08:49:37Z</time>
      </trkpt>
      <trkpt lat="42.6984698698" lon="-1.3160496578">
        <ele>438.98</ele>
        <time>2021-05-23T08:49:59Z</time>
      </trkpt>
      <trkpt lat="42.6985334046" lon="-1.3160822634">
        <ele>442.82</ele>
        <time>2021-05-23T08:50:00Z</time>
      </trkpt>
      <trkpt lat="42.6997681428" lon="-1.3166563399">
        <ele>441.38</ele>
        <time>2021-05-23T08:50:20Z</time>
      </trkpt>
      <trkpt lat="42.7010375820" lon="-1.3172514550">
        <ele>441.38</ele>
        <time>2021-05-23T08:50:41Z</time>
      </trkpt>
      <trkpt lat="42.7022453304" lon="-1.3178182393">
        <ele>442.82</ele>
        <time>2021-05-23T08:51:01Z</time>
      </trkpt>
      <trkpt lat="42.7034766320" lon="-1.3183967583">
        <ele>444.27</ele>
        <time>2021-05-23T08:51:22Z</time>
      </trkpt>
      <trkpt lat="42.7049474884" lon="-1.3190837391">
        <ele>446.67</ele>
        <time>2021-05-23T08:51:47Z</time>
      </trkpt>
      <trkpt lat="42.7060159296" lon="-1.3195828814">
        <ele>449.07</ele>
        <time>2021-05-23T08:52:06Z</time>
      </trkpt>
      <trkpt lat="42.7073356602" lon="-1.3202023879">
        <ele>451.00</ele>
        <time>2021-05-23T08:52:31Z</time>
      </trkpt>
      <trkpt lat="42.7083791234" lon="-1.3206980098">
        <ele>452.92</ele>
        <time>2021-05-23T08:52:51Z</time>
      </trkpt>
      <trkpt lat="42.7096970938" lon="-1.3213196117">
        <ele>454.36</ele>
        <time>2021-05-23T08:53:15Z</time>
      </trkpt>
      <trkpt lat="42.7109604143" lon="-1.3219314907">
        <ele>453.88</ele>
        <time>2021-05-23T08:53:37Z</time>
      </trkpt>
      <trkpt lat="42.7113066707" lon="-1.3220939320">
        <ele>453.88</ele>
        <time>2021-05-23T08:53:44Z</time>
      </trkpt>
      <trkpt lat="42.7113587223" lon="-1.3221181557">
        <ele>454.84</ele>
        <time>2021-05-23T08:53:45Z</time>
      </trkpt>
      <trkpt lat="42.7120893728" lon="-1.3224603888">
        <ele>457.24</ele>
        <time>2021-05-23T08:54:00Z</time>
      </trkpt>
      <trkpt lat="42.7131571434" lon="-1.3229811564">
        <ele>457.24</ele>
        <time>2021-05-23T08:54:19Z</time>
      </trkpt>
      <trkpt lat="42.7142135985" lon="-1.3234834000">
        <ele>459.65</ele>
        <time>2021-05-23T08:54:39Z</time>
      </trkpt>
      <trkpt lat="42.7151583228" lon="-1.3238026667">
        <ele>460.13</ele>
        <time>2021-05-23T08:54:56Z</time>
      </trkpt>
      <trkpt lat="42.7161498182" lon="-1.3235953823">
        <ele>460.61</ele>
        <time>2021-05-23T08:55:13Z</time>
      </trkpt>
      <trkpt lat="42.7164876927" lon="-1.3234997448">
        <ele>459.17</ele>
        <time>2021-05-23T08:55:18Z</time>
      </trkpt>
      <trkpt lat="42.7176654339" lon="-1.3231256604">
        <ele>458.21</ele>
        <time>2021-05-23T08:55:36Z</time>
      </trkpt>
      <trkpt lat="42.7177785058" lon="-1.3230954017">
        <ele>459.65</ele>
        <time>2021-05-23T08:55:38Z</time>
      </trkpt>
      <trkpt lat="42.7184373233" lon="-1.3229063060">
        <ele>463.01</ele>
        <time>2021-05-23T08:55:50Z</time>
      </trkpt>
      <trkpt lat="42.7188368887" lon="-1.3228247501">
        <ele>464.45</ele>
        <time>2021-05-23T08:55:58Z</time>
      </trkpt>
      <trkpt lat="42.7188880183" lon="-1.3228162844">
        <ele>464.93</ele>
        <time>2021-05-23T08:55:59Z</time>
      </trkpt>
      <trkpt lat="42.7195967920" lon="-1.3227859419">
        <ele>467.82</ele>
        <time>2021-05-23T08:56:14Z</time>
      </trkpt>
      <trkpt lat="42.7202349063" lon="-1.3227454573">
        <ele>471.18</ele>
        <time>2021-05-23T08:56:29Z</time>
      </trkpt>
      <trkpt lat="42.7207283489" lon="-1.3226082455">
        <ele>473.59</ele>
        <time>2021-05-23T08:56:42Z</time>
      </trkpt>
      <trkpt lat="42.7211289201" lon="-1.3224505819">
        <ele>476.95</ele>
        <time>2021-05-23T08:56:53Z</time>
      </trkpt>
      <trkpt lat="42.7214289922" lon="-1.3223309722">
        <ele>478.87</ele>
        <time>2021-05-23T08:57:01Z</time>
      </trkpt>
      <trkpt lat="42.7218400408" lon="-1.3222005498">
        <ele>481.76</ele>
        <time>2021-05-23T08:57:12Z</time>
      </trkpt>
      <trkpt lat="42.7224380895" lon="-1.3220897410">
        <ele>485.12</ele>
        <time>2021-05-23T08:57:28Z</time>
      </trkpt>
      <trkpt lat="42.7230585180" lon="-1.3220898248">
        <ele>488.49</ele>
        <time>2021-05-23T08:57:45Z</time>
      </trkpt>
      <trkpt lat="42.7238501050" lon="-1.3221480791">
        <ele>491.85</ele>
        <time>2021-05-23T08:58:05Z</time>
      </trkpt>
      <trkpt lat="42.7248004451" lon="-1.3222215045">
        <ele>492.81</ele>
        <time>2021-05-23T08:58:26Z</time>
      </trkpt>
      <trkpt lat="42.7258747537" lon="-1.3223086763">
        <ele>494.74</ele>
        <time>2021-05-23T08:58:48Z</time>
      </trkpt>
      <trkpt lat="42.7269062307" lon="-1.3224151265">
        <ele>493.77</ele>
        <time>2021-05-23T08:59:06Z</time>
      </trkpt>
      <trkpt lat="42.7269751299" lon="-1.3224289566">
        <ele>493.77</ele>
        <time>2021-05-23T08:59:07Z</time>
      </trkpt>
      <trkpt lat="42.7276326064" lon="-1.3225706946">
        <ele>490.41</ele>
        <time>2021-05-23T08:59:15Z</time>
      </trkpt>
      <trkpt lat="42.7281249594" lon="-1.3226835988">
        <ele>487.53</ele>
        <time>2021-05-23T08:59:20Z</time>
      </trkpt>
      <trkpt lat="42.7285570465" lon="-1.3227859419">
        <ele>484.16</ele>
        <time>2021-05-23T08:59:24Z</time>
      </trkpt>
      <trkpt lat="42.7290031314" lon="-1.3229571842">
        <ele>480.80</ele>
        <time>2021-05-23T08:59:28Z</time>
      </trkpt>
      <trkpt lat="42.7294174489" lon="-1.3232939690">
        <ele>477.91</ele>
        <time>2021-05-23T08:59:32Z</time>
      </trkpt>
      <trkpt lat="42.7295130026" lon="-1.3234122377">
        <ele>476.95</ele>
        <time>2021-05-23T08:59:33Z</time>
      </trkpt>
      <trkpt lat="42.7295964863" lon="-1.3235345297">
        <ele>476.47</ele>
        <time>2021-05-23T08:59:34Z</time>
      </trkpt>
      <trkpt lat="42.7296763659" lon="-1.3236679696">
        <ele>475.51</ele>
        <time>2021-05-23T08:59:35Z</time>
      </trkpt>
      <trkpt lat="42.7297490370" lon="-1.3238137309">
        <ele>475.03</ele>
        <time>2021-05-23T08:59:36Z</time>
      </trkpt>
      <trkpt lat="42.7298072912" lon="-1.3239570614">
        <ele>474.07</ele>
        <time>2021-05-23T08:59:37Z</time>
      </trkpt>
      <trkpt lat="42.7298594266" lon="-1.3241086900">
        <ele>473.59</ele>
        <time>2021-05-23T08:59:38Z</time>
      </trkpt>
      <trkpt lat="42.7299390547" lon="-1.3244198263">
        <ele>472.14</ele>
        <time>2021-05-23T08:59:40Z</time>
      </trkpt>
      <trkpt lat="42.7299660444" lon="-1.3245831896">
        <ele>471.18</ele>
        <time>2021-05-23T08:59:41Z</time>
      </trkpt>
      <trkpt lat="42.7299830597" lon="-1.3247416075">
        <ele>470.22</ele>
        <time>2021-05-23T08:59:42Z</time>
      </trkpt>
      <trkpt lat="42.7299901843" lon="-1.3249068987">
        <ele>468.78</ele>
        <time>2021-05-23T08:59:43Z</time>
      </trkpt>
      <trkpt lat="42.7299875859" lon="-1.3250762969">
        <ele>468.30</ele>
        <time>2021-05-23T08:59:44Z</time>
      </trkpt>
      <trkpt lat="42.7299770247" lon="-1.3252349664">
        <ele>467.34</ele>
        <time>2021-05-23T08:59:45Z</time>
      </trkpt>
      <trkpt lat="42.7299574111" lon="-1.3253959827">
        <ele>466.38</ele>
        <time>2021-05-23T08:59:46Z</time>
      </trkpt>
      <trkpt lat="42.7299280744" lon="-1.3255574182">
        <ele>465.42</ele>
        <time>2021-05-23T08:59:47Z</time>
      </trkpt>
      <trkpt lat="42.7298924513" lon="-1.3257075381">
        <ele>464.45</ele>
        <time>2021-05-23T08:59:48Z</time>
      </trkpt>
      <trkpt lat="42.7298468538" lon="-1.3258638605">
        <ele>463.49</ele>
        <time>2021-05-23T08:59:49Z</time>
      </trkpt>
      <trkpt lat="42.7297967300" lon="-1.3260025810">
        <ele>463.01</ele>
        <time>2021-05-23T08:59:50Z</time>
      </trkpt>
      <trkpt lat="42.7297360450" lon="-1.3261392899">
        <ele>462.05</ele>
        <time>2021-05-23T08:59:51Z</time>
      </trkpt>
      <trkpt lat="42.7296659723" lon="-1.3262749091">
        <ele>461.09</ele>
        <time>2021-05-23T08:59:52Z</time>
      </trkpt>
      <trkpt lat="42.7295939717" lon="-1.3263965305">
        <ele>460.13</ele>
        <time>2021-05-23T08:59:53Z</time>
      </trkpt>
      <trkpt lat="42.7295150142" lon="-1.3265167270">
        <ele>458.69</ele>
        <time>2021-05-23T08:59:54Z</time>
      </trkpt>
      <trkpt lat="42.7291882876" lon="-1.3269713614">
        <ele>455.80</ele>
        <time>2021-05-23T08:59:58Z</time>
      </trkpt>
      <trkpt lat="42.7288321406" lon="-1.3275707513">
        <ele>452.92</ele>
        <time>2021-05-23T09:00:03Z</time>
      </trkpt>
      <trkpt lat="42.7285038214" lon="-1.3287858758">
        <ele>452.44</ele>
        <time>2021-05-23T09:00:13Z</time>
      </trkpt>
      <trkpt lat="42.7284248639" lon="-1.3304573111">
        <ele>453.40</ele>
        <time>2021-05-23T09:00:30Z</time>
      </trkpt>
      <trkpt lat="42.7286064159" lon="-1.3325416390">
        <ele>453.88</ele>
        <time>2021-05-23T09:00:52Z</time>
      </trkpt>
      <trkpt lat="42.7286410332" lon="-1.3329308107">
        <ele>452.44</ele>
        <time>2021-05-23T09:00:56Z</time>
      </trkpt>
      <trkpt lat="42.7287948411" lon="-1.3346410543">
        <ele>452.44</ele>
        <time>2021-05-23T09:01:14Z</time>
      </trkpt>
      <trkpt lat="42.7288028877" lon="-1.3347345963">
        <ele>452.44</ele>
        <time>2021-05-23T09:01:15Z</time>
      </trkpt>
      <trkpt lat="42.7290322166" lon="-1.3364674710">
        <ele>452.44</ele>
        <time>2021-05-23T09:01:35Z</time>
      </trkpt>
      <trkpt lat="42.7295838296" lon="-1.3375919033">
        <ele>453.40</ele>
        <time>2021-05-23T09:01:51Z</time>
      </trkpt>
      <trkpt lat="42.7298479434" lon="-1.3378839288">
        <ele>455.32</ele>
        <time>2021-05-23T09:01:57Z</time>
      </trkpt>
      <trkpt lat="42.7303653583" lon="-1.3383527286">
        <ele>458.21</ele>
        <time>2021-05-23T09:02:09Z</time>
      </trkpt>
      <trkpt lat="42.7304116264" lon="-1.3383908663">
        <ele>458.69</ele>
        <time>2021-05-23T09:02:10Z</time>
      </trkpt>
      <trkpt lat="42.7312942408" lon="-1.3390865643">
        <ele>460.13</ele>
        <time>2021-05-23T09:02:28Z</time>
      </trkpt>
      <trkpt lat="42.7322753426" lon="-1.3395002112">
        <ele>456.76</ele>
        <time>2021-05-23T09:02:42Z</time>
      </trkpt>
      <trkpt lat="42.7330769878" lon="-1.3403333724">
        <ele>454.84</ele>
        <time>2021-05-23T09:02:54Z</time>
      </trkpt>
      <trkpt lat="42.7338261623" lon="-1.3417010475">
        <ele>453.40</ele>
        <time>2021-05-23T09:03:10Z</time>
      </trkpt>
      <trkpt lat="42.7340080496" lon="-1.3430134859">
        <ele>453.40</ele>
        <time>2021-05-23T09:03:24Z</time>
      </trkpt>
      <trkpt lat="42.7340570837" lon="-1.3448210433">
        <ele>453.40</ele>
        <time>2021-05-23T09:03:44Z</time>
      </trkpt>
      <trkpt lat="42.7341165114" lon="-1.3465597853">
        <ele>454.36</ele>
        <time>2021-05-23T09:04:04Z</time>
      </trkpt>
      <trkpt lat="42.7342761867" lon="-1.3480479084">
        <ele>454.84</ele>
        <time>2021-05-23T09:04:21Z</time>
      </trkpt>
      <trkpt lat="42.7346766740" lon="-1.3493065350">
        <ele>454.84</ele>
        <time>2021-05-23T09:04:37Z</time>
      </trkpt>
      <trkpt lat="42.7352286223" lon="-1.3503899798">
        <ele>454.84</ele>
        <time>2021-05-23T09:04:52Z</time>
      </trkpt>
      <trkpt lat="42.7361439262" lon="-1.3521662727">
        <ele>456.76</ele>
        <time>2021-05-23T09:05:13Z</time>
      </trkpt>
      <trkpt lat="42.7371265367" lon="-1.3540749997">
        <ele>459.65</ele>
        <time>2021-05-23T09:05:36Z</time>
      </trkpt>
      <trkpt lat="42.7379809041" lon="-1.3551875297">
        <ele>462.05</ele>
        <time>2021-05-23T09:05:52Z</time>
      </trkpt>
      <trkpt lat="42.7393057477" lon="-1.3559728302">
        <ele>459.65</ele>
        <time>2021-05-23T09:06:09Z</time>
      </trkpt>
      <trkpt lat="42.7403879352" lon="-1.3558714930">
        <ele>456.76</ele>
        <time>2021-05-23T09:06:20Z</time>
      </trkpt>
      <trkpt lat="42.7419136930" lon="-1.3551860210">
        <ele>454.84</ele>
        <time>2021-05-23T09:06:36Z</time>
      </trkpt>
      <trkpt lat="42.7435046621" lon="-1.3548599649">
        <ele>454.84</ele>
        <time>2021-05-23T09:06:53Z</time>
      </trkpt>
      <trkpt lat="42.7448834851" lon="-1.3548374176">
        <ele>454.84</ele>
        <time>2021-05-23T09:07:08Z</time>
      </trkpt>
      <trkpt lat="42.7462442871" lon="-1.3554787170">
        <ele>454.36</ele>
        <time>2021-05-23T09:07:24Z</time>
      </trkpt>
      <trkpt lat="42.7477659378" lon="-1.3563764188">
        <ele>454.36</ele>
        <time>2021-05-23T09:07:43Z</time>
      </trkpt>
      <trkpt lat="42.7480857074" lon="-1.3565919176">
        <ele>455.80</ele>
        <time>2021-05-23T09:07:47Z</time>
      </trkpt>
      <trkpt lat="42.7481551934" lon="-1.3566610683">
        <ele>455.80</ele>
        <time>2021-05-23T09:07:48Z</time>
      </trkpt>
      <trkpt lat="42.7482193150" lon="-1.3567369245">
        <ele>455.80</ele>
        <time>2021-05-23T09:07:49Z</time>
      </trkpt>
      <trkpt lat="42.7485701814" lon="-1.3574405015">
        <ele>458.69</ele>
        <time>2021-05-23T09:07:57Z</time>
      </trkpt>
      <trkpt lat="42.7489508875" lon="-1.3589589670">
        <ele>459.17</ele>
        <time>2021-05-23T09:08:12Z</time>
      </trkpt>
      <trkpt lat="42.7491187770" lon="-1.3596285973">
        <ele>461.57</ele>
        <time>2021-05-23T09:08:19Z</time>
      </trkpt>
      <trkpt lat="42.7496703900" lon="-1.3610407803">
        <ele>463.49</ele>
        <time>2021-05-23T09:08:35Z</time>
      </trkpt>
      <trkpt lat="42.7498240303" lon="-1.3614403456">
        <ele>462.05</ele>
        <time>2021-05-23T09:08:39Z</time>
      </trkpt>
      <trkpt lat="42.7498537023" lon="-1.3615452871">
        <ele>462.05</ele>
        <time>2021-05-23T09:08:40Z</time>
      </trkpt>
      <trkpt lat="42.7498720586" lon="-1.3616586104">
        <ele>462.05</ele>
        <time>2021-05-23T09:08:41Z</time>
      </trkpt>
      <trkpt lat="42.7498742379" lon="-1.3617605343">
        <ele>462.05</ele>
        <time>2021-05-23T09:08:42Z</time>
      </trkpt>
      <trkpt lat="42.7498586476" lon="-1.3618701696">
        <ele>462.05</ele>
        <time>2021-05-23T09:08:43Z</time>
      </trkpt>
      <trkpt lat="42.7498319093" lon="-1.3619545754">
        <ele>462.05</ele>
        <time>2021-05-23T09:08:44Z</time>
      </trkpt>
      <trkpt lat="42.7497919276" lon="-1.3620327786">
        <ele>462.05</ele>
        <time>2021-05-23T09:08:45Z</time>
      </trkpt>
      <trkpt lat="42.7497455757" lon="-1.3621045277">
        <ele>463.49</ele>
        <time>2021-05-23T09:08:46Z</time>
      </trkpt>
      <trkpt lat="42.7496982180" lon="-1.3621740136">
        <ele>463.49</ele>
        <time>2021-05-23T09:08:47Z</time>
      </trkpt>
      <trkpt lat="42.7494187653" lon="-1.3625452481">
        <ele>466.86</ele>
        <time>2021-05-23T09:08:53Z</time>
      </trkpt>
      <trkpt lat="42.7493292466" lon="-1.3626650255">
        <ele>467.34</ele>
        <time>2021-05-23T09:08:55Z</time>
      </trkpt>
      <trkpt lat="42.7492840681" lon="-1.3627220225">
        <ele>467.82</ele>
        <time>2021-05-23T09:08:56Z</time>
      </trkpt>
      <trkpt lat="42.7490411606" lon="-1.3630598970">
        <ele>470.22</ele>
        <time>2021-05-23T09:09:02Z</time>
      </trkpt>
      <trkpt lat="42.7490036935" lon="-1.3631158043">
        <ele>470.70</ele>
        <time>2021-05-23T09:09:03Z</time>
      </trkpt>
      <trkpt lat="42.7489647176" lon="-1.3631704543">
        <ele>471.18</ele>
        <time>2021-05-23T09:09:04Z</time>
      </trkpt>
      <trkpt lat="42.7489258256" lon="-1.3632252719">
        <ele>471.18</ele>
        <time>2021-05-23T09:09:05Z</time>
      </trkpt>
      <trkpt lat="42.7488870174" lon="-1.3632785808">
        <ele>472.14</ele>
        <time>2021-05-23T09:09:06Z</time>
      </trkpt>
      <trkpt lat="42.7486979216" lon="-1.3635483105">
        <ele>474.55</ele>
        <time>2021-05-23T09:09:11Z</time>
      </trkpt>
      <trkpt lat="42.7486706804" lon="-1.3636088278">
        <ele>474.55</ele>
        <time>2021-05-23T09:09:12Z</time>
      </trkpt>
      <trkpt lat="42.7486498933" lon="-1.3636760507">
        <ele>475.03</ele>
        <time>2021-05-23T09:09:13Z</time>
      </trkpt>
      <trkpt lat="42.7486380748" lon="-1.3637522422">
        <ele>475.03</ele>
        <time>2021-05-23T09:09:14Z</time>
      </trkpt>
      <trkpt lat="42.7486358117" lon="-1.3638369832">
        <ele>475.03</ele>
        <time>2021-05-23T09:09:15Z</time>
      </trkpt>
      <trkpt lat="42.7486464567" lon="-1.3639222272">
        <ele>475.03</ele>
        <time>2021-05-23T09:09:16Z</time>
      </trkpt>
      <trkpt lat="42.7486706804" lon="-1.3640150987">
        <ele>475.03</ele>
        <time>2021-05-23T09:09:17Z</time>
      </trkpt>
      <trkpt lat="42.7487030346" lon="-1.3641097303">
        <ele>474.55</ele>
        <time>2021-05-23T09:09:18Z</time>
      </trkpt>
      <trkpt lat="42.7487423457" lon="-1.3642048649">
        <ele>474.55</ele>
        <time>2021-05-23T09:09:19Z</time>
      </trkpt>
      <trkpt lat="42.7487850934" lon="-1.3642990775">
        <ele>473.11</ele>
        <time>2021-05-23T09:09:20Z</time>
      </trkpt>
      <trkpt lat="42.7488307748" lon="-1.3643981516">
        <ele>473.11</ele>
        <time>2021-05-23T09:09:21Z</time>
      </trkpt>
      <trkpt lat="42.7491262369" lon="-1.3650643453">
        <ele>469.74</ele>
        <time>2021-05-23T09:09:27Z</time>
      </trkpt>
      <trkpt lat="42.7491766121" lon="-1.3651821110">
        <ele>469.74</ele>
        <time>2021-05-23T09:09:28Z</time>
      </trkpt>
      <trkpt lat="42.7501361724" lon="-1.3674125355">
        <ele>467.82</ele>
        <time>2021-05-23T09:09:48Z</time>
      </trkpt>
      <trkpt lat="42.7512549050" lon="-1.3700223248">
        <ele>466.38</ele>
        <time>2021-05-23T09:10:11Z</time>
      </trkpt>
      <trkpt lat="42.7522249427" lon="-1.3722752128">
        <ele>463.49</ele>
        <time>2021-05-23T09:10:30Z</time>
      </trkpt>
      <trkpt lat="42.7532188687" lon="-1.3745851815">
        <ele>461.09</ele>
        <time>2021-05-23T09:10:50Z</time>
      </trkpt>
      <trkpt lat="42.7540516946" lon="-1.3763742987">
        <ele>461.09</ele>
        <time>2021-05-23T09:11:08Z</time>
      </trkpt>
      <trkpt lat="42.7549966704" lon="-1.3775139023">
        <ele>461.09</ele>
        <time>2021-05-23T09:11:25Z</time>
      </trkpt>
      <trkpt lat="42.7552173659" lon="-1.3777816202">
        <ele>458.69</ele>
        <time>2021-05-23T09:11:29Z</time>
      </trkpt>
      <trkpt lat="42.7553293481" lon="-1.3779114559">
        <ele>460.13</ele>
        <time>2021-05-23T09:11:31Z</time>
      </trkpt>
      <trkpt lat="42.7559621818" lon="-1.3789370656">
        <ele>460.13</ele>
        <time>2021-05-23T09:11:45Z</time>
      </trkpt>
      <trkpt lat="42.7560160775" lon="-1.3792155962">
        <ele>460.13</ele>
        <time>2021-05-23T09:11:48Z</time>
      </trkpt>
      <trkpt lat="42.7560574003" lon="-1.3808949944">
        <ele>460.13</ele>
        <time>2021-05-23T09:12:06Z</time>
      </trkpt>
      <trkpt lat="42.7560825460" lon="-1.3824506756">
        <ele>460.61</ele>
        <time>2021-05-23T09:12:23Z</time>
      </trkpt>
      <trkpt lat="42.7560260519" lon="-1.3840556424">
        <ele>461.09</ele>
        <time>2021-05-23T09:12:41Z</time>
      </trkpt>
      <trkpt lat="42.7559445798" lon="-1.3846413698">
        <ele>463.01</ele>
        <time>2021-05-23T09:12:50Z</time>
      </trkpt>
      <trkpt lat="42.7559361141" lon="-1.3846982829">
        <ele>463.97</ele>
        <time>2021-05-23T09:12:51Z</time>
      </trkpt>
      <trkpt lat="42.7558853198" lon="-1.3851051405">
        <ele>465.42</ele>
        <time>2021-05-23T09:12:58Z</time>
      </trkpt>
      <trkpt lat="42.7558825538" lon="-1.3851624727">
        <ele>465.42</ele>
        <time>2021-05-23T09:12:59Z</time>
      </trkpt>
      <trkpt lat="42.7558790334" lon="-1.3852171227">
        <ele>466.38</ele>
        <time>2021-05-23T09:13:00Z</time>
      </trkpt>
      <trkpt lat="42.7559032571" lon="-1.3858343661">
        <ele>469.26</ele>
        <time>2021-05-23T09:13:12Z</time>
      </trkpt>
      <trkpt lat="42.7559320908" lon="-1.3865564670">
        <ele>472.63</ele>
        <time>2021-05-23T09:13:26Z</time>
      </trkpt>
      <trkpt lat="42.7560026664" lon="-1.3870589621">
        <ele>474.55</ele>
        <time>2021-05-23T09:13:36Z</time>
      </trkpt>
      <trkpt lat="42.7563842107" lon="-1.3874843437">
        <ele>476.95</ele>
        <time>2021-05-23T09:13:49Z</time>
      </trkpt>
      <trkpt lat="42.7564647608" lon="-1.3875078969">
        <ele>476.95</ele>
        <time>2021-05-23T09:13:51Z</time>
      </trkpt>
      <trkpt lat="42.7573772147" lon="-1.3876615372">
        <ele>476.95</ele>
        <time>2021-05-23T09:14:09Z</time>
      </trkpt>
      <trkpt lat="42.7586020622" lon="-1.3878657203">
        <ele>476.95</ele>
        <time>2021-05-23T09:14:31Z</time>
      </trkpt>
      <trkpt lat="42.7601024229" lon="-1.3880580012">
        <ele>476.95</ele>
        <time>2021-05-23T09:14:55Z</time>
      </trkpt>
      <trkpt lat="42.7604527865" lon="-1.3881143276">
        <ele>475.51</ele>
        <time>2021-05-23T09:15:00Z</time>
      </trkpt>
      <trkpt lat="42.7605236974" lon="-1.3881427422">
        <ele>474.55</ele>
        <time>2021-05-23T09:15:01Z</time>
      </trkpt>
      <trkpt lat="42.7605917584" lon="-1.3881841488">
        <ele>474.07</ele>
        <time>2021-05-23T09:15:02Z</time>
      </trkpt>
      <trkpt lat="42.7606579755" lon="-1.3882354461">
        <ele>474.07</ele>
        <time>2021-05-23T09:15:03Z</time>
      </trkpt>
      <trkpt lat="42.7616054658" lon="-1.3890356664">
        <ele>470.70</ele>
        <time>2021-05-23T09:15:17Z</time>
      </trkpt>
      <trkpt lat="42.7624336816" lon="-1.3897139300">
        <ele>467.34</ele>
        <time>2021-05-23T09:15:28Z</time>
      </trkpt>
      <trkpt lat="42.7635544259" lon="-1.3905570656">
        <ele>465.90</ele>
        <time>2021-05-23T09:15:44Z</time>
      </trkpt>
      <trkpt lat="42.7639706712" lon="-1.3908446487">
        <ele>467.34</ele>
        <time>2021-05-23T09:15:51Z</time>
      </trkpt>
      <trkpt lat="42.7642641217" lon="-1.3910458144">
        <ele>469.26</ele>
        <time>2021-05-23T09:15:57Z</time>
      </trkpt>
      <trkpt lat="42.7644487750" lon="-1.3911613170">
        <ele>470.22</ele>
        <time>2021-05-23T09:16:01Z</time>
      </trkpt>
      <trkpt lat="42.7645351924" lon="-1.3912224211">
        <ele>470.70</ele>
        <time>2021-05-23T09:16:03Z</time>
      </trkpt>
      <trkpt lat="42.7645812929" lon="-1.3912493270">
        <ele>470.70</ele>
        <time>2021-05-23T09:16:04Z</time>
      </trkpt>
      <trkpt lat="42.7647960372" lon="-1.3913893886">
        <ele>472.63</ele>
        <time>2021-05-23T09:16:09Z</time>
      </trkpt>
      <trkpt lat="42.7648381982" lon="-1.3914178032">
        <ele>473.11</ele>
        <time>2021-05-23T09:16:10Z</time>
      </trkpt>
      <trkpt lat="42.7650371008" lon="-1.3915413525">
        <ele>475.03</ele>
        <time>2021-05-23T09:16:15Z</time>
      </trkpt>
      <trkpt lat="42.7651157230" lon="-1.3915957510">
        <ele>475.51</ele>
        <time>2021-05-23T09:16:17Z</time>
      </trkpt>
      <trkpt lat="42.7651531901" lon="-1.3916175440">
        <ele>475.51</ele>
        <time>2021-05-23T09:16:18Z</time>
      </trkpt>
      <trkpt lat="42.7652642503" lon="-1.3916950766">
        <ele>476.95</ele>
        <time>2021-05-23T09:16:21Z</time>
      </trkpt>
      <trkpt lat="42.7656118479" lon="-1.3919208013">
        <ele>480.32</ele>
        <time>2021-05-23T09:16:31Z</time>
      </trkpt>
      <trkpt lat="42.7660411689" lon="-1.3922049478">
        <ele>483.68</ele>
        <time>2021-05-23T09:16:44Z</time>
      </trkpt>
      <trkpt lat="42.7663552389" lon="-1.3924573269">
        <ele>486.56</ele>
        <time>2021-05-23T09:16:54Z</time>
      </trkpt>
      <trkpt lat="42.7667145710" lon="-1.3928060979">
        <ele>489.45</ele>
        <time>2021-05-23T09:17:08Z</time>
      </trkpt>
      <trkpt lat="42.7670339216" lon="-1.3931856304">
        <ele>492.81</ele>
        <time>2021-05-23T09:17:21Z</time>
      </trkpt>
      <trkpt lat="42.7673707064" lon="-1.3936549332">
        <ele>495.70</ele>
        <time>2021-05-23T09:17:35Z</time>
      </trkpt>
      <trkpt lat="42.7677227464" lon="-1.3941658102">
        <ele>499.06</ele>
        <time>2021-05-23T09:17:49Z</time>
      </trkpt>
      <trkpt lat="42.7682689950" lon="-1.3949594088">
        <ele>501.46</ele>
        <time>2021-05-23T09:18:09Z</time>
      </trkpt>
      <trkpt lat="42.7685066219" lon="-1.3952998817">
        <ele>502.91</ele>
        <time>2021-05-23T09:18:17Z</time>
      </trkpt>
      <trkpt lat="42.7692269627" lon="-1.3963596057">
        <ele>503.87</ele>
        <time>2021-05-23T09:18:37Z</time>
      </trkpt>
      <trkpt lat="42.7700719424" lon="-1.3976100180">
        <ele>505.31</ele>
        <time>2021-05-23T09:18:59Z</time>
      </trkpt>
      <trkpt lat="42.7709149104" lon="-1.3988645375">
        <ele>506.27</ele>
        <time>2021-05-23T09:19:20Z</time>
      </trkpt>
      <trkpt lat="42.7713954449" lon="-1.3995767478">
        <ele>504.83</ele>
        <time>2021-05-23T09:19:31Z</time>
      </trkpt>
      <trkpt lat="42.7716959361" lon="-1.4000021294">
        <ele>501.95</ele>
        <time>2021-05-23T09:19:37Z</time>
      </trkpt>
      <trkpt lat="42.7717772406" lon="-1.4000936598">
        <ele>501.46</ele>
        <time>2021-05-23T09:19:39Z</time>
      </trkpt>
      <trkpt lat="42.7718043979" lon="-1.4001451246">
        <ele>500.98</ele>
        <time>2021-05-23T09:19:40Z</time>
      </trkpt>
      <trkpt lat="42.7718192339" lon="-1.4002049714">
        <ele>500.98</ele>
        <time>2021-05-23T09:19:41Z</time>
      </trkpt>
      <trkpt lat="42.7718207426" lon="-1.4002750441">
        <ele>500.98</ele>
        <time>2021-05-23T09:19:42Z</time>
      </trkpt>
      <trkpt lat="42.7718064096" lon="-1.4003572706">
        <ele>501.46</ele>
        <time>2021-05-23T09:19:43Z</time>
      </trkpt>
      <trkpt lat="42.7717820182" lon="-1.4004313666">
        <ele>500.50</ele>
        <time>2021-05-23T09:19:44Z</time>
      </trkpt>
      <trkpt lat="42.7717489097" lon="-1.4005120005">
        <ele>500.50</ele>
        <time>2021-05-23T09:19:45Z</time>
      </trkpt>
      <trkpt lat="42.7715711296" lon="-1.4009896852">
        <ele>498.10</ele>
        <time>2021-05-23T09:19:50Z</time>
      </trkpt>
      <trkpt lat="42.7714287210" lon="-1.4017044101">
        <ele>494.74</ele>
        <time>2021-05-23T09:19:56Z</time>
      </trkpt>
      <trkpt lat="42.7714103647" lon="-1.4023781475">
        <ele>490.89</ele>
        <time>2021-05-23T09:20:01Z</time>
      </trkpt>
      <trkpt lat="42.7714706305" lon="-1.4031035174">
        <ele>487.53</ele>
        <time>2021-05-23T09:20:06Z</time>
      </trkpt>
      <trkpt lat="42.7715324890" lon="-1.4036964532">
        <ele>484.64</ele>
        <time>2021-05-23T09:20:10Z</time>
      </trkpt>
      <trkpt lat="42.7715945151" lon="-1.4044431131">
        <ele>480.80</ele>
        <time>2021-05-23T09:20:15Z</time>
      </trkpt>
      <trkpt lat="42.7716107760" lon="-1.4051689859">
        <ele>477.91</ele>
        <time>2021-05-23T09:20:20Z</time>
      </trkpt>
      <trkpt lat="42.7715276275" lon="-1.4062483236">
        <ele>474.55</ele>
        <time>2021-05-23T09:20:28Z</time>
      </trkpt>
      <trkpt lat="42.7713151462" lon="-1.4082554542">
        <ele>473.59</ele>
        <time>2021-05-23T09:20:46Z</time>
      </trkpt>
      <trkpt lat="42.7711099572" lon="-1.4101498481">
        <ele>472.63</ele>
        <time>2021-05-23T09:21:05Z</time>
      </trkpt>
      <trkpt lat="42.7710240427" lon="-1.4120291546">
        <ele>474.55</ele>
        <time>2021-05-23T09:21:25Z</time>
      </trkpt>
      <trkpt lat="42.7712576464" lon="-1.4136542380">
        <ele>475.03</ele>
        <time>2021-05-23T09:21:44Z</time>
      </trkpt>
      <trkpt lat="42.7715722192" lon="-1.4154093247">
        <ele>476.47</ele>
        <time>2021-05-23T09:22:05Z</time>
      </trkpt>
      <trkpt lat="42.7719192300" lon="-1.4173508249">
        <ele>477.43</ele>
        <time>2021-05-23T09:22:28Z</time>
      </trkpt>
      <trkpt lat="42.7722524945" lon="-1.4191349130">
        <ele>478.87</ele>
        <time>2021-05-23T09:22:49Z</time>
      </trkpt>
      <trkpt lat="42.7725724317" lon="-1.4209520258">
        <ele>479.84</ele>
        <time>2021-05-23T09:23:10Z</time>
      </trkpt>
      <trkpt lat="42.7729350328" lon="-1.4229199290">
        <ele>480.80</ele>
        <time>2021-05-23T09:23:33Z</time>
      </trkpt>
      <trkpt lat="42.7733007353" lon="-1.4249627665">
        <ele>481.76</ele>
        <time>2021-05-23T09:23:57Z</time>
      </trkpt>
      <trkpt lat="42.7736098599" lon="-1.4266950544">
        <ele>482.72</ele>
        <time>2021-05-23T09:24:17Z</time>
      </trkpt>
      <trkpt lat="42.7739484888" lon="-1.4285731036">
        <ele>483.68</ele>
        <time>2021-05-23T09:24:38Z</time>
      </trkpt>
      <trkpt lat="42.7743241657" lon="-1.4306348003">
        <ele>484.64</ele>
        <time>2021-05-23T09:25:01Z</time>
      </trkpt>
      <trkpt lat="42.7746292669" lon="-1.4322893880">
        <ele>484.64</ele>
        <time>2021-05-23T09:25:19Z</time>
      </trkpt>
      <trkpt lat="42.7749334462" lon="-1.4340801816">
        <ele>485.12</ele>
        <time>2021-05-23T09:25:38Z</time>
      </trkpt>
      <trkpt lat="42.7749903593" lon="-1.4357636869">
        <ele>485.12</ele>
        <time>2021-05-23T09:25:56Z</time>
      </trkpt>
      <trkpt lat="42.7749532275" lon="-1.4376602601">
        <ele>485.60</ele>
        <time>2021-05-23T09:26:16Z</time>
      </trkpt>
      <trkpt lat="42.7749254834" lon="-1.4395586774">
        <ele>486.08</ele>
        <time>2021-05-23T09:26:37Z</time>
      </trkpt>
      <trkpt lat="42.7751104720" lon="-1.4413778856">
        <ele>487.05</ele>
        <time>2021-05-23T09:26:57Z</time>
      </trkpt>
      <trkpt lat="42.7756479196" lon="-1.4430494048">
        <ele>487.05</ele>
        <time>2021-05-23T09:27:17Z</time>
      </trkpt>
      <trkpt lat="42.7763132751" lon="-1.4448523521">
        <ele>487.05</ele>
        <time>2021-05-23T09:27:38Z</time>
      </trkpt>
      <trkpt lat="42.7769477013" lon="-1.4465862326">
        <ele>488.49</ele>
        <time>2021-05-23T09:27:59Z</time>
      </trkpt>
      <trkpt lat="42.7775237057" lon="-1.4481545705">
        <ele>489.45</ele>
        <time>2021-05-23T09:28:19Z</time>
      </trkpt>
      <trkpt lat="42.7781179827" lon="-1.4497653209">
        <ele>489.93</ele>
        <time>2021-05-23T09:28:39Z</time>
      </trkpt>
      <trkpt lat="42.7787619643" lon="-1.4514579624">
        <ele>489.93</ele>
        <time>2021-05-23T09:28:59Z</time>
      </trkpt>
      <trkpt lat="42.7790491283" lon="-1.4521552529">
        <ele>489.93</ele>
        <time>2021-05-23T09:29:07Z</time>
      </trkpt>
      <trkpt lat="42.7791036107" lon="-1.4522250742">
        <ele>489.93</ele>
        <time>2021-05-23T09:29:08Z</time>
      </trkpt>
      <trkpt lat="42.7791615296" lon="-1.4522793051">
        <ele>489.93</ele>
        <time>2021-05-23T09:29:09Z</time>
      </trkpt>
      <trkpt lat="42.7792362962" lon="-1.4523150120">
        <ele>489.93</ele>
        <time>2021-05-23T09:29:10Z</time>
      </trkpt>
      <trkpt lat="42.7793120686" lon="-1.4523176104">
        <ele>489.93</ele>
        <time>2021-05-23T09:29:11Z</time>
      </trkpt>
      <trkpt lat="42.7793674730" lon="-1.4523060434">
        <ele>489.93</ele>
        <time>2021-05-23T09:29:12Z</time>
      </trkpt>
      <trkpt lat="42.7794356178" lon="-1.4522847533">
        <ele>489.93</ele>
        <time>2021-05-23T09:29:13Z</time>
      </trkpt>
      <trkpt lat="42.7794999909" lon="-1.4522597753">
        <ele>489.93</ele>
        <time>2021-05-23T09:29:14Z</time>
      </trkpt>
      <trkpt lat="42.7806944959" lon="-1.4517188910">
        <ele>489.93</ele>
        <time>2021-05-23T09:29:33Z</time>
      </trkpt>
      <trkpt lat="42.7817890886" lon="-1.4512971137">
        <ele>490.89</ele>
        <time>2021-05-23T09:29:51Z</time>
      </trkpt>
      <trkpt lat="42.7827810030" lon="-1.4514063299">
        <ele>491.37</ele>
        <time>2021-05-23T09:30:06Z</time>
      </trkpt>
      <trkpt lat="42.7840411384" lon="-1.4520370681">
        <ele>492.81</ele>
        <time>2021-05-23T09:30:26Z</time>
      </trkpt>
      <trkpt lat="42.7852819115" lon="-1.4526729193">
        <ele>495.22</ele>
        <time>2021-05-23T09:30:47Z</time>
      </trkpt>
      <trkpt lat="42.7866144665" lon="-1.4533677790">
        <ele>497.62</ele>
        <time>2021-05-23T09:31:10Z</time>
      </trkpt>
      <trkpt lat="42.7877560817" lon="-1.4539545123">
        <ele>497.62</ele>
        <time>2021-05-23T09:31:28Z</time>
      </trkpt>
      <trkpt lat="42.7890130319" lon="-1.4546407387">
        <ele>498.10</ele>
        <time>2021-05-23T09:31:48Z</time>
      </trkpt>
      <trkpt lat="42.7893809974" lon="-1.4548789524">
        <ele>498.10</ele>
        <time>2021-05-23T09:31:58Z</time>
      </trkpt>
      <trkpt lat="42.7893682569" lon="-1.4548828080">
        <ele>498.10</ele>
        <time>2021-05-23T09:32:18Z</time>
      </trkpt>
      <trkpt lat="42.7893776447" lon="-1.4548768569">
        <ele>498.10</ele>
        <time>2021-05-23T09:32:45Z</time>
      </trkpt>
      <trkpt lat="42.7895292733" lon="-1.4549878333">
        <ele>498.58</ele>
        <time>2021-05-23T09:32:58Z</time>
      </trkpt>
      <trkpt lat="42.7901281603" lon="-1.4554466587">
        <ele>499.06</ele>
        <time>2021-05-23T09:33:11Z</time>
      </trkpt>
      <trkpt lat="42.7912005410" lon="-1.4562895428">
        <ele>500.02</ele>
        <time>2021-05-23T09:33:33Z</time>
      </trkpt>
      <trkpt lat="42.7922326047" lon="-1.4570828062">
        <ele>500.98</ele>
        <time>2021-05-23T09:33:54Z</time>
      </trkpt>
      <trkpt lat="42.7934048139" lon="-1.4579813462">
        <ele>500.98</ele>
        <time>2021-05-23T09:34:17Z</time>
      </trkpt>
      <trkpt lat="42.7944691479" lon="-1.4588145912">
        <ele>500.98</ele>
        <time>2021-05-23T09:34:37Z</time>
      </trkpt>
      <trkpt lat="42.7955439594" lon="-1.4596431423">
        <ele>500.98</ele>
        <time>2021-05-23T09:34:57Z</time>
      </trkpt>
      <trkpt lat="42.7966252249" lon="-1.4604431111">
        <ele>501.95</ele>
        <time>2021-05-23T09:35:17Z</time>
      </trkpt>
      <trkpt lat="42.7977325581" lon="-1.4608833287">
        <ele>504.35</ele>
        <time>2021-05-23T09:35:36Z</time>
      </trkpt>
      <trkpt lat="42.7990092896" lon="-1.4610762801">
        <ele>506.75</ele>
        <time>2021-05-23T09:35:57Z</time>
      </trkpt>
      <trkpt lat="42.8000764735" lon="-1.4612124860">
        <ele>508.19</ele>
        <time>2021-05-23T09:36:15Z</time>
      </trkpt>
      <trkpt lat="42.8012739122" lon="-1.4611595124">
        <ele>508.67</ele>
        <time>2021-05-23T09:36:34Z</time>
      </trkpt>
      <trkpt lat="42.8024106659" lon="-1.4610927086">
        <ele>509.16</ele>
        <time>2021-05-23T09:36:52Z</time>
      </trkpt>
      <trkpt lat="42.8037919197" lon="-1.4610095602">
        <ele>510.12</ele>
        <time>2021-05-23T09:37:13Z</time>
      </trkpt>
      <trkpt lat="42.8052598424" lon="-1.4609223884">
        <ele>511.56</ele>
        <time>2021-05-23T09:37:34Z</time>
      </trkpt>
      <trkpt lat="42.8065874521" lon="-1.4608794730">
        <ele>513.00</ele>
        <time>2021-05-23T09:37:54Z</time>
      </trkpt>
      <trkpt lat="42.8078502696" lon="-1.4609219693">
        <ele>513.48</ele>
        <time>2021-05-23T09:38:13Z</time>
      </trkpt>
      <trkpt lat="42.8091093991" lon="-1.4609649684">
        <ele>515.40</ele>
        <time>2021-05-23T09:38:32Z</time>
      </trkpt>
      <trkpt lat="42.8101706319" lon="-1.4609674830">
        <ele>515.88</ele>
        <time>2021-05-23T09:38:48Z</time>
      </trkpt>
      <trkpt lat="42.8118276503" lon="-1.4609918743">
        <ele>516.37</ele>
        <time>2021-05-23T09:39:12Z</time>
      </trkpt>
      <trkpt lat="42.8132061381" lon="-1.4610119909">
        <ele>516.37</ele>
        <time>2021-05-23T09:39:31Z</time>
      </trkpt>
      <trkpt lat="42.8145116195" lon="-1.4610379748">
        <ele>516.85</ele>
        <time>2021-05-23T09:39:49Z</time>
      </trkpt>
      <trkpt lat="42.8157880995" lon="-1.4609171078">
        <ele>517.81</ele>
        <time>2021-05-23T09:40:06Z</time>
      </trkpt>
      <trkpt lat="42.8171324730" lon="-1.4603970945">
        <ele>517.81</ele>
        <time>2021-05-23T09:40:24Z</time>
      </trkpt>
      <trkpt lat="42.8186927643" lon="-1.4597224351">
        <ele>518.29</ele>
        <time>2021-05-23T09:40:45Z</time>
      </trkpt>
      <trkpt lat="42.8198295180" lon="-1.4589140844">
        <ele>518.77</ele>
        <time>2021-05-23T09:41:01Z</time>
      </trkpt>
      <trkpt lat="42.8208609112" lon="-1.4578346629">
        <ele>518.29</ele>
        <time>2021-05-23T09:41:17Z</time>
      </trkpt>
      <trkpt lat="42.8218935616" lon="-1.4567524754">
        <ele>519.73</ele>
        <time>2021-05-23T09:41:34Z</time>
      </trkpt>
      <trkpt lat="42.8228493501" lon="-1.4557485748">
        <ele>522.61</ele>
        <time>2021-05-23T09:41:52Z</time>
      </trkpt>
      <trkpt lat="42.8238826711" lon="-1.4548283257">
        <ele>525.02</ele>
        <time>2021-05-23T09:42:11Z</time>
      </trkpt>
      <trkpt lat="42.8248777706" lon="-1.4539749641">
        <ele>525.98</ele>
        <time>2021-05-23T09:42:29Z</time>
      </trkpt>
      <trkpt lat="42.8257310484" lon="-1.4528507832">
        <ele>526.46</ele>
        <time>2021-05-23T09:42:47Z</time>
      </trkpt>
      <trkpt lat="42.8265917860" lon="-1.4513952658">
        <ele>526.94</ele>
        <time>2021-05-23T09:43:08Z</time>
      </trkpt>
      <trkpt lat="42.8273178264" lon="-1.4511026535">
        <ele>527.42</ele>
        <time>2021-05-23T09:43:20Z</time>
      </trkpt>
      <trkpt lat="42.8285779618" lon="-1.4508615062">
        <ele>527.42</ele>
        <time>2021-05-23T09:43:40Z</time>
      </trkpt>
      <trkpt lat="42.8296842892" lon="-1.4506540541">
        <ele>528.86</ele>
        <time>2021-05-23T09:43:57Z</time>
      </trkpt>
      <trkpt lat="42.8307544906" lon="-1.4505171776">
        <ele>530.30</ele>
        <time>2021-05-23T09:44:13Z</time>
      </trkpt>
      <trkpt lat="42.8317504283" lon="-1.4507167507">
        <ele>531.27</ele>
        <time>2021-05-23T09:44:28Z</time>
      </trkpt>
      <trkpt lat="42.8329761978" lon="-1.4511495084">
        <ele>532.23</ele>
        <time>2021-05-23T09:44:47Z</time>
      </trkpt>
      <trkpt lat="42.8340620734" lon="-1.4515250176">
        <ele>533.19</ele>
        <time>2021-05-23T09:45:04Z</time>
      </trkpt>
      <trkpt lat="42.8351336997" lon="-1.4518987667">
        <ele>534.15</ele>
        <time>2021-05-23T09:45:21Z</time>
      </trkpt>
      <trkpt lat="42.8362569585" lon="-1.4523032773">
        <ele>535.59</ele>
        <time>2021-05-23T09:45:39Z</time>
      </trkpt>
      <trkpt lat="42.8374866676" lon="-1.4528158307">
        <ele>537.03</ele>
        <time>2021-05-23T09:45:59Z</time>
      </trkpt>
      <trkpt lat="42.8388415184" lon="-1.4533800166">
        <ele>537.99</ele>
        <time>2021-05-23T09:46:20Z</time>
      </trkpt>
      <trkpt lat="42.8398004919" lon="-1.4538539294">
        <ele>537.99</ele>
        <time>2021-05-23T09:46:35Z</time>
      </trkpt>
      <trkpt lat="42.8406035621" lon="-1.4547046088">
        <ele>537.99</ele>
        <time>2021-05-23T09:46:50Z</time>
      </trkpt>
      <trkpt lat="42.8414163552" lon="-1.4556944277">
        <ele>538.48</ele>
        <time>2021-05-23T09:47:06Z</time>
      </trkpt>
      <trkpt lat="42.8422225267" lon="-1.4566619508">
        <ele>538.96</ele>
        <time>2021-05-23T09:47:23Z</time>
      </trkpt>
      <trkpt lat="42.8429917339" lon="-1.4573796093">
        <ele>539.92</ele>
        <time>2021-05-23T09:47:38Z</time>
      </trkpt>
      <trkpt lat="42.8438899387" lon="-1.4574421383">
        <ele>540.40</ele>
        <time>2021-05-23T09:47:52Z</time>
      </trkpt>
      <trkpt lat="42.8451221623" lon="-1.4574185014">
        <ele>541.36</ele>
        <time>2021-05-23T09:48:11Z</time>
      </trkpt>
      <trkpt lat="42.8460737597" lon="-1.4573605824">
        <ele>542.80</ele>
        <time>2021-05-23T09:48:26Z</time>
      </trkpt>
      <trkpt lat="42.8461975604" lon="-1.4573048428">
        <ele>542.80</ele>
        <time>2021-05-23T09:48:28Z</time>
      </trkpt>
      <trkpt lat="42.8462565690" lon="-1.4572675433">
        <ele>542.80</ele>
        <time>2021-05-23T09:48:29Z</time>
      </trkpt>
      <trkpt lat="42.8470932506" lon="-1.4566091448">
        <ele>544.24</ele>
        <time>2021-05-23T09:48:45Z</time>
      </trkpt>
      <trkpt lat="42.8478767909" lon="-1.4562766347">
        <ele>546.17</ele>
        <time>2021-05-23T09:48:59Z</time>
      </trkpt>
      <trkpt lat="42.8487469163" lon="-1.4565220568">
        <ele>546.65</ele>
        <time>2021-05-23T09:49:13Z</time>
      </trkpt>
      <trkpt lat="42.8498820774" lon="-1.4572651125">
        <ele>547.13</ele>
        <time>2021-05-23T09:49:32Z</time>
      </trkpt>
      <trkpt lat="42.8500647191" lon="-1.4573720656">
        <ele>547.13</ele>
        <time>2021-05-23T09:49:35Z</time>
      </trkpt>
      <trkpt lat="42.8501911182" lon="-1.4574136399">
        <ele>547.13</ele>
        <time>2021-05-23T09:49:37Z</time>
      </trkpt>
      <trkpt lat="42.8502557427" lon="-1.4574231114">
        <ele>547.13</ele>
        <time>2021-05-23T09:49:38Z</time>
      </trkpt>
      <trkpt lat="42.8503240552" lon="-1.4574242849">
        <ele>547.13</ele>
        <time>2021-05-23T09:49:39Z</time>
      </trkpt>
      <trkpt lat="42.8504473530" lon="-1.4574105386">
        <ele>547.13</ele>
        <time>2021-05-23T09:49:41Z</time>
      </trkpt>
      <trkpt lat="42.8512753174" lon="-1.4574351814">
        <ele>548.09</ele>
        <time>2021-05-23T09:49:54Z</time>
      </trkpt>
      <trkpt lat="42.8513318952" lon="-1.4574715588">
        <ele>548.09</ele>
        <time>2021-05-23T09:49:55Z</time>
      </trkpt>
      <trkpt lat="42.8513874672" lon="-1.4575126301">
        <ele>548.09</ele>
        <time>2021-05-23T09:49:56Z</time>
      </trkpt>
      <trkpt lat="42.8523489553" lon="-1.4582937397">
        <ele>548.57</ele>
        <time>2021-05-23T09:50:14Z</time>
      </trkpt>
      <trkpt lat="42.8531393688" lon="-1.4584512357">
        <ele>550.01</ele>
        <time>2021-05-23T09:50:28Z</time>
      </trkpt>
      <trkpt lat="42.8541659005" lon="-1.4585868549">
        <ele>550.49</ele>
        <time>2021-05-23T09:50:44Z</time>
      </trkpt>
      <trkpt lat="42.8551264666" lon="-1.4587772079">
        <ele>552.41</ele>
        <time>2021-05-23T09:51:00Z</time>
      </trkpt>
      <trkpt lat="42.8561012819" lon="-1.4592038468">
        <ele>555.30</ele>
        <time>2021-05-23T09:51:17Z</time>
      </trkpt>
      <trkpt lat="42.8566124104" lon="-1.4594740793">
        <ele>553.86</ele>
        <time>2021-05-23T09:51:26Z</time>
      </trkpt>
      <trkpt lat="42.8566759452" lon="-1.4595060982">
        <ele>557.22</ele>
        <time>2021-05-23T09:51:27Z</time>
      </trkpt>
      <trkpt lat="42.8567354567" lon="-1.4595371950">
        <ele>555.78</ele>
        <time>2021-05-23T09:51:28Z</time>
      </trkpt>
      <trkpt lat="42.8568581678" lon="-1.4596016519">
        <ele>555.30</ele>
        <time>2021-05-23T09:51:30Z</time>
      </trkpt>
      <trkpt lat="42.8574552108" lon="-1.4599142969">
        <ele>558.66</ele>
        <time>2021-05-23T09:51:40Z</time>
      </trkpt>
      <trkpt lat="42.8575138841" lon="-1.4599463157">
        <ele>556.74</ele>
        <time>2021-05-23T09:51:41Z</time>
      </trkpt>
      <trkpt lat="42.8576927539" lon="-1.4600318950">
        <ele>555.30</ele>
        <time>2021-05-23T09:51:44Z</time>
      </trkpt>
      <trkpt lat="42.8578112740" lon="-1.4600971900">
        <ele>557.22</ele>
        <time>2021-05-23T09:51:46Z</time>
      </trkpt>
      <trkpt lat="42.8587694932" lon="-1.4608438499">
        <ele>559.14</ele>
        <time>2021-05-23T09:52:04Z</time>
      </trkpt>
      <trkpt lat="42.8595879022" lon="-1.4614640269">
        <ele>559.62</ele>
        <time>2021-05-23T09:52:19Z</time>
      </trkpt>
      <trkpt lat="42.8597119544" lon="-1.4614834730">
        <ele>559.62</ele>
        <time>2021-05-23T09:52:21Z</time>
      </trkpt>
      <trkpt lat="42.8604908008" lon="-1.4615360275">
        <ele>560.59</ele>
        <time>2021-05-23T09:52:34Z</time>
      </trkpt>
      <trkpt lat="42.8610353731" lon="-1.4615627658">
        <ele>563.95</ele>
        <time>2021-05-23T09:52:45Z</time>
      </trkpt>
      <trkpt lat="42.8611382190" lon="-1.4615677949">
        <ele>564.43</ele>
        <time>2021-05-23T09:52:47Z</time>
      </trkpt>
      <trkpt lat="42.8611912765" lon="-1.4615782723">
        <ele>564.43</ele>
        <time>2021-05-23T09:52:48Z</time>
      </trkpt>
      <trkpt lat="42.8612403106" lon="-1.4615889173">
        <ele>564.43</ele>
        <time>2021-05-23T09:52:49Z</time>
      </trkpt>
      <trkpt lat="42.8612919431" lon="-1.4616029989">
        <ele>565.39</ele>
        <time>2021-05-23T09:52:50Z</time>
      </trkpt>
      <trkpt lat="42.8613429889" lon="-1.4616216067">
        <ele>565.87</ele>
        <time>2021-05-23T09:52:51Z</time>
      </trkpt>
      <trkpt lat="42.8613950405" lon="-1.4616418071">
        <ele>565.87</ele>
        <time>2021-05-23T09:52:52Z</time>
      </trkpt>
      <trkpt lat="42.8620137926" lon="-1.4622457232">
        <ele>567.80</ele>
        <time>2021-05-23T09:53:06Z</time>
      </trkpt>
      <trkpt lat="42.8623156250" lon="-1.4625804126">
        <ele>568.28</ele>
        <time>2021-05-23T09:53:13Z</time>
      </trkpt>
      <trkpt lat="42.8631402366" lon="-1.4629264176">
        <ele>568.28</ele>
        <time>2021-05-23T09:53:28Z</time>
      </trkpt>
      <trkpt lat="42.8641256969" lon="-1.4633777831">
        <ele>568.76</ele>
        <time>2021-05-23T09:53:46Z</time>
      </trkpt>
      <trkpt lat="42.8650283441" lon="-1.4642511774">
        <ele>569.24</ele>
        <time>2021-05-23T09:54:04Z</time>
      </trkpt>
      <trkpt lat="42.8660158161" lon="-1.4650684129">
        <ele>570.68</ele>
        <time>2021-05-23T09:54:23Z</time>
      </trkpt>
      <trkpt lat="42.8662316501" lon="-1.4651974104">
        <ele>570.68</ele>
        <time>2021-05-23T09:54:27Z</time>
      </trkpt>
      <trkpt lat="42.8662839532" lon="-1.4652305190">
        <ele>570.68</ele>
        <time>2021-05-23T09:54:28Z</time>
      </trkpt>
      <trkpt lat="42.8670222312" lon="-1.4656707365">
        <ele>571.64</ele>
        <time>2021-05-23T09:54:42Z</time>
      </trkpt>
      <trkpt lat="42.8681272175" lon="-1.4663262852">
        <ele>573.08</ele>
        <time>2021-05-23T09:55:02Z</time>
      </trkpt>
      <trkpt lat="42.8691343870" lon="-1.4669230767">
        <ele>574.53</ele>
        <time>2021-05-23T09:55:20Z</time>
      </trkpt>
      <trkpt lat="42.8702452406" lon="-1.4675857499">
        <ele>576.45</ele>
        <time>2021-05-23T09:55:40Z</time>
      </trkpt>
      <trkpt lat="42.8714269213" lon="-1.4683091082">
        <ele>577.89</ele>
        <time>2021-05-23T09:56:01Z</time>
      </trkpt>
      <trkpt lat="42.8725443128" lon="-1.4690354001">
        <ele>577.89</ele>
        <time>2021-05-23T09:56:20Z</time>
      </trkpt>
      <trkpt lat="42.8735285159" lon="-1.4693959896">
        <ele>578.37</ele>
        <time>2021-05-23T09:56:35Z</time>
      </trkpt>
      <trkpt lat="42.8744242061" lon="-1.4692903776">
        <ele>579.33</ele>
        <time>2021-05-23T09:56:48Z</time>
      </trkpt>
      <trkpt lat="42.8751843609" lon="-1.4688881300">
        <ele>579.33</ele>
        <time>2021-05-23T09:57:00Z</time>
      </trkpt>
      <trkpt lat="42.8758001793" lon="-1.4682968706">
        <ele>581.25</ele>
        <time>2021-05-23T09:57:13Z</time>
      </trkpt>
      <trkpt lat="42.8759606089" lon="-1.4681370277">
        <ele>581.73</ele>
        <time>2021-05-23T09:57:17Z</time>
      </trkpt>
      <trkpt lat="42.8763634432" lon="-1.4677275717">
        <ele>584.14</ele>
        <time>2021-05-23T09:57:27Z</time>
      </trkpt>
      <trkpt lat="42.8764040116" lon="-1.4676868357">
        <ele>584.14</ele>
        <time>2021-05-23T09:57:28Z</time>
      </trkpt>
      <trkpt lat="42.8764483519" lon="-1.4676512964">
        <ele>584.62</ele>
        <time>2021-05-23T09:57:29Z</time>
      </trkpt>
      <trkpt lat="42.8771439660" lon="-1.4673464466">
        <ele>587.50</ele>
        <time>2021-05-23T09:57:43Z</time>
      </trkpt>
      <trkpt lat="42.8780010995" lon="-1.4672231488">
        <ele>588.95</ele>
        <time>2021-05-23T09:57:59Z</time>
      </trkpt>
      <trkpt lat="42.8789152298" lon="-1.4670840092">
        <ele>590.39</ele>
        <time>2021-05-23T09:58:17Z</time>
      </trkpt>
      <trkpt lat="42.8796885442" lon="-1.4668336418">
        <ele>592.31</ele>
        <time>2021-05-23T09:58:32Z</time>
      </trkpt>
      <trkpt lat="42.8805163410" lon="-1.4663667697">
        <ele>594.71</ele>
        <time>2021-05-23T09:58:49Z</time>
      </trkpt>
      <trkpt lat="42.8809796087" lon="-1.4660853054">
        <ele>595.19</ele>
        <time>2021-05-23T09:58:59Z</time>
      </trkpt>
      <trkpt lat="42.8817758057" lon="-1.4655874204">
        <ele>597.12</ele>
        <time>2021-05-23T09:59:16Z</time>
      </trkpt>
      <trkpt lat="42.8826639522" lon="-1.4650474582">
        <ele>597.12</ele>
        <time>2021-05-23T09:59:34Z</time>
      </trkpt>
      <trkpt lat="42.8834339976" lon="-1.4645698573">
        <ele>598.08</ele>
        <time>2021-05-23T09:59:49Z</time>
      </trkpt>
      <trkpt lat="42.8842306975" lon="-1.4642313123">
        <ele>599.04</ele>
        <time>2021-05-23T10:00:04Z</time>
      </trkpt>
      <trkpt lat="42.8850490227" lon="-1.4644487388">
        <ele>599.52</ele>
        <time>2021-05-23T10:00:18Z</time>
      </trkpt>
      <trkpt lat="42.8861611336" lon="-1.4649165329">
        <ele>600.48</ele>
        <time>2021-05-23T10:00:37Z</time>
      </trkpt>
      <trkpt lat="42.8872200195" lon="-1.4651429281">
        <ele>600.48</ele>
        <time>2021-05-23T10:00:54Z</time>
      </trkpt>
      <trkpt lat="42.8879702836" lon="-1.4647109248">
        <ele>601.44</ele>
        <time>2021-05-23T10:01:07Z</time>
      </trkpt>
      <trkpt lat="42.8888813965" lon="-1.4643294644">
        <ele>601.44</ele>
        <time>2021-05-23T10:01:22Z</time>
      </trkpt>
      <trkpt lat="42.8898350056" lon="-1.4645004552">
        <ele>601.44</ele>
        <time>2021-05-23T10:01:36Z</time>
      </trkpt>
      <trkpt lat="42.8908950649" lon="-1.4647959173">
        <ele>602.88</ele>
        <time>2021-05-23T10:01:53Z</time>
      </trkpt>
      <trkpt lat="42.8910058737" lon="-1.4648685884">
        <ele>602.88</ele>
        <time>2021-05-23T10:01:55Z</time>
      </trkpt>
      <trkpt lat="42.8918270487" lon="-1.4656741731">
        <ele>604.81</ele>
        <time>2021-05-23T10:02:12Z</time>
      </trkpt>
      <trkpt lat="42.8920621611" lon="-1.4666975196">
        <ele>605.77</ele>
        <time>2021-05-23T10:02:26Z</time>
      </trkpt>
      <trkpt lat="42.8921994567" lon="-1.4678311720">
        <ele>606.73</ele>
        <time>2021-05-23T10:02:41Z</time>
      </trkpt>
      <trkpt lat="42.8922212496" lon="-1.4678929467">
        <ele>606.73</ele>
        <time>2021-05-23T10:02:42Z</time>
      </trkpt>
      <trkpt lat="42.8923004586" lon="-1.4680527896">
        <ele>607.21</ele>
        <time>2021-05-23T10:02:45Z</time>
      </trkpt>
      <trkpt lat="42.8923335671" lon="-1.4680994768">
        <ele>608.17</ele>
        <time>2021-05-23T10:02:46Z</time>
      </trkpt>
      <trkpt lat="42.8923676815" lon="-1.4681443200">
        <ele>608.17</ele>
        <time>2021-05-23T10:02:47Z</time>
      </trkpt>
      <trkpt lat="42.8924042266" lon="-1.4681839664">
        <ele>609.13</ele>
        <time>2021-05-23T10:02:48Z</time>
      </trkpt>
      <trkpt lat="42.8924410231" lon="-1.4682188351">
        <ele>609.13</ele>
        <time>2021-05-23T10:02:49Z</time>
      </trkpt>
      <trkpt lat="42.8926517442" lon="-1.4683884848">
        <ele>610.09</ele>
        <time>2021-05-23T10:02:55Z</time>
      </trkpt>
      <trkpt lat="42.8926892951" lon="-1.4684176538">
        <ele>610.09</ele>
        <time>2021-05-23T10:02:56Z</time>
      </trkpt>
      <trkpt lat="42.8927282710" lon="-1.4684464037">
        <ele>610.09</ele>
        <time>2021-05-23T10:02:57Z</time>
      </trkpt>
      <trkpt lat="42.8929462843" lon="-1.4685980324">
        <ele>610.09</ele>
        <time>2021-05-23T10:03:02Z</time>
      </trkpt>
      <trkpt lat="42.8929959890" lon="-1.4686211664">
        <ele>610.09</ele>
        <time>2021-05-23T10:03:03Z</time>
      </trkpt>
      <trkpt lat="42.8930468671" lon="-1.4686361700">
        <ele>610.09</ele>
        <time>2021-05-23T10:03:04Z</time>
      </trkpt>
      <trkpt lat="42.8930993378" lon="-1.4686443843">
        <ele>610.09</ele>
        <time>2021-05-23T10:03:05Z</time>
      </trkpt>
      <trkpt lat="42.8931523114" lon="-1.4686491620">
        <ele>610.09</ele>
        <time>2021-05-23T10:03:06Z</time>
      </trkpt>
      <trkpt lat="42.8932019323" lon="-1.4686458930">
        <ele>610.09</ele>
        <time>2021-05-23T10:03:07Z</time>
      </trkpt>
      <trkpt lat="42.8932497930" lon="-1.4686368406">
        <ele>610.09</ele>
        <time>2021-05-23T10:03:08Z</time>
      </trkpt>
      <trkpt lat="42.8933005035" lon="-1.4686227590">
        <ele>610.09</ele>
        <time>2021-05-23T10:03:09Z</time>
      </trkpt>
      <trkpt lat="42.8934075404" lon="-1.4685756527">
        <ele>610.09</ele>
        <time>2021-05-23T10:03:11Z</time>
      </trkpt>
      <trkpt lat="42.8934590891" lon="-1.4685461484">
        <ele>610.09</ele>
        <time>2021-05-23T10:03:12Z</time>
      </trkpt>
      <trkpt lat="42.8936709836" lon="-1.4683819469">
        <ele>610.09</ele>
        <time>2021-05-23T10:03:16Z</time>
      </trkpt>
      <trkpt lat="42.8940411285" lon="-1.4680960402">
        <ele>610.09</ele>
        <time>2021-05-23T10:03:23Z</time>
      </trkpt>
      <trkpt lat="42.8941570502" lon="-1.4680647757">
        <ele>610.09</ele>
        <time>2021-05-23T10:03:25Z</time>
      </trkpt>
      <trkpt lat="42.8942172322" lon="-1.4680609200">
        <ele>610.57</ele>
        <time>2021-05-23T10:03:26Z</time>
      </trkpt>
      <trkpt lat="42.8942733910" lon="-1.4680671226">
        <ele>610.57</ele>
        <time>2021-05-23T10:03:27Z</time>
      </trkpt>
      <trkpt lat="42.8943310585" lon="-1.4680830482">
        <ele>610.57</ele>
        <time>2021-05-23T10:03:28Z</time>
      </trkpt>
      <trkpt lat="42.8943891451" lon="-1.4681075234">
        <ele>610.57</ele>
        <time>2021-05-23T10:03:29Z</time>
      </trkpt>
      <trkpt lat="42.8944438789" lon="-1.4681392908">
        <ele>610.57</ele>
        <time>2021-05-23T10:03:30Z</time>
      </trkpt>
      <trkpt lat="42.8948544245" lon="-1.4684225153">
        <ele>610.57</ele>
        <time>2021-05-23T10:03:38Z</time>
      </trkpt>
      <trkpt lat="42.8949088231" lon="-1.4684446435">
        <ele>610.57</ele>
        <time>2021-05-23T10:03:39Z</time>
      </trkpt>
      <trkpt lat="42.8949639760" lon="-1.4684596471">
        <ele>610.57</ele>
        <time>2021-05-23T10:03:40Z</time>
      </trkpt>
      <trkpt lat="42.8950203862" lon="-1.4684655983">
        <ele>610.57</ele>
        <time>2021-05-23T10:03:41Z</time>
      </trkpt>
      <trkpt lat="42.8950764611" lon="-1.4684645087">
        <ele>610.57</ele>
        <time>2021-05-23T10:03:42Z</time>
      </trkpt>
      <trkpt lat="42.8957633581" lon="-1.4684137143">
        <ele>611.06</ele>
        <time>2021-05-23T10:03:54Z</time>
      </trkpt>
      <trkpt lat="42.8967252653" lon="-1.4683386125">
        <ele>612.02</ele>
        <time>2021-05-23T10:04:11Z</time>
      </trkpt>
      <trkpt lat="42.8976908606" lon="-1.4682738204">
        <ele>612.98</ele>
        <time>2021-05-23T10:04:27Z</time>
      </trkpt>
      <trkpt lat="42.8977509588" lon="-1.4682912547">
        <ele>612.98</ele>
        <time>2021-05-23T10:04:28Z</time>
      </trkpt>
      <trkpt lat="42.8978103027" lon="-1.4683193341">
        <ele>612.98</ele>
        <time>2021-05-23T10:04:29Z</time>
      </trkpt>
      <trkpt lat="42.8978672996" lon="-1.4683559630">
        <ele>612.98</ele>
        <time>2021-05-23T10:04:30Z</time>
      </trkpt>
      <trkpt lat="42.8979228716" lon="-1.4684016444">
        <ele>612.98</ele>
        <time>2021-05-23T10:04:31Z</time>
      </trkpt>
      <trkpt lat="42.8979746718" lon="-1.4684537798">
        <ele>612.98</ele>
        <time>2021-05-23T10:04:32Z</time>
      </trkpt>
      <trkpt lat="42.8980256338" lon="-1.4685096871">
        <ele>612.98</ele>
        <time>2021-05-23T10:04:33Z</time>
      </trkpt>
      <trkpt lat="42.8986211680" lon="-1.4691268466">
        <ele>613.46</ele>
        <time>2021-05-23T10:04:45Z</time>
      </trkpt>
      <trkpt lat="42.8987237625" lon="-1.4691913873">
        <ele>613.94</ele>
        <time>2021-05-23T10:04:47Z</time>
      </trkpt>
      <trkpt lat="42.8994472884" lon="-1.4694072213">
        <ele>615.86</ele>
        <time>2021-05-23T10:05:01Z</time>
      </trkpt>
      <trkpt lat="42.8996057902" lon="-1.4694513101">
        <ele>614.42</ele>
        <time>2021-05-23T10:05:04Z</time>
      </trkpt>
      <trkpt lat="42.8997144196" lon="-1.4694786351">
        <ele>615.86</ele>
        <time>2021-05-23T10:05:06Z</time>
      </trkpt>
      <trkpt lat="42.9005110357" lon="-1.4696609415">
        <ele>617.30</ele>
        <time>2021-05-23T10:05:21Z</time>
      </trkpt>
      <trkpt lat="42.9006938450" lon="-1.4696920384">
        <ele>618.75</ele>
        <time>2021-05-23T10:05:25Z</time>
      </trkpt>
      <trkpt lat="42.9007385205" lon="-1.4696934633">
        <ele>618.75</ele>
        <time>2021-05-23T10:05:26Z</time>
      </trkpt>
      <trkpt lat="42.9008266144" lon="-1.4697026834">
        <ele>619.23</ele>
        <time>2021-05-23T10:05:28Z</time>
      </trkpt>
      <trkpt lat="42.9008723795" lon="-1.4697074611">
        <ele>619.23</ele>
        <time>2021-05-23T10:05:29Z</time>
      </trkpt>
      <trkpt lat="42.9009168874" lon="-1.4697087184">
        <ele>619.71</ele>
        <time>2021-05-23T10:05:30Z</time>
      </trkpt>
      <trkpt lat="42.9009625688" lon="-1.4697100595">
        <ele>619.71</ele>
        <time>2021-05-23T10:05:31Z</time>
      </trkpt>
      <trkpt lat="42.9010083340" lon="-1.4697129093">
        <ele>620.19</ele>
        <time>2021-05-23T10:05:32Z</time>
      </trkpt>
      <trkpt lat="42.9010533448" lon="-1.4697119035">
        <ele>620.19</ele>
        <time>2021-05-23T10:05:33Z</time>
      </trkpt>
      <trkpt lat="42.9012538400" lon="-1.4697160944">
        <ele>620.67</ele>
        <time>2021-05-23T10:05:37Z</time>
      </trkpt>
      <trkpt lat="42.9013580270" lon="-1.4697112329">
        <ele>619.23</ele>
        <time>2021-05-23T10:05:39Z</time>
      </trkpt>
      <trkpt lat="42.9016350489" lon="-1.4697039407">
        <ele>620.19</ele>
        <time>2021-05-23T10:05:44Z</time>
      </trkpt>
      <trkpt lat="42.9025014862" lon="-1.4696055371">
        <ele>619.71</ele>
        <time>2021-05-23T10:06:00Z</time>
      </trkpt>
      <trkpt lat="42.9031214118" lon="-1.4695317764">
        <ele>620.19</ele>
        <time>2021-05-23T10:06:11Z</time>
      </trkpt>
      <trkpt lat="42.9039933812" lon="-1.4695337042">
        <ele>621.15</ele>
        <time>2021-05-23T10:06:26Z</time>
      </trkpt>
      <trkpt lat="42.9048969503" lon="-1.4695577603">
        <ele>621.63</ele>
        <time>2021-05-23T10:06:41Z</time>
      </trkpt>
      <trkpt lat="42.9050726350" lon="-1.4695592690">
        <ele>621.63</ele>
        <time>2021-05-23T10:06:44Z</time>
      </trkpt>
      <trkpt lat="42.9056810774" lon="-1.4695263281">
        <ele>624.99</ele>
        <time>2021-05-23T10:06:55Z</time>
      </trkpt>
      <trkpt lat="42.9062284157" lon="-1.4694112446">
        <ele>627.88</ele>
        <time>2021-05-23T10:07:07Z</time>
      </trkpt>
      <trkpt lat="42.9070180748" lon="-1.4691437781">
        <ele>625.47</ele>
        <time>2021-05-23T10:07:21Z</time>
      </trkpt>
      <trkpt lat="42.9081283417" lon="-1.4685467351">
        <ele>623.07</ele>
        <time>2021-05-23T10:07:38Z</time>
      </trkpt>
      <trkpt lat="42.9088832997" lon="-1.4681282267">
        <ele>622.59</ele>
        <time>2021-05-23T10:07:51Z</time>
      </trkpt>
      <trkpt lat="42.9089443199" lon="-1.4680946153">
        <ele>622.59</ele>
        <time>2021-05-23T10:07:52Z</time>
      </trkpt>
      <trkpt lat="42.9098664131" lon="-1.4676108118">
        <ele>624.51</ele>
        <time>2021-05-23T10:08:07Z</time>
      </trkpt>
      <trkpt lat="42.9106439184" lon="-1.4671936445">
        <ele>624.51</ele>
        <time>2021-05-23T10:08:20Z</time>
      </trkpt>
      <trkpt lat="42.9113834538" lon="-1.4667841885">
        <ele>625.47</ele>
        <time>2021-05-23T10:08:33Z</time>
      </trkpt>
      <trkpt lat="42.9117772356" lon="-1.4665617328">
        <ele>625.96</ele>
        <time>2021-05-23T10:08:40Z</time>
      </trkpt>
      <trkpt lat="42.9118345678" lon="-1.4665266126">
        <ele>625.96</ele>
        <time>2021-05-23T10:08:41Z</time>
      </trkpt>
      <trkpt lat="42.9120587837" lon="-1.4664111938">
        <ele>626.92</ele>
        <time>2021-05-23T10:08:45Z</time>
      </trkpt>
      <trkpt lat="42.9121098295" lon="-1.4663805161">
        <ele>626.92</ele>
        <time>2021-05-23T10:08:46Z</time>
      </trkpt>
      <trkpt lat="42.9127819743" lon="-1.4660336729">
        <ele>627.88</ele>
        <time>2021-05-23T10:08:59Z</time>
      </trkpt>
      <trkpt lat="42.9128319304" lon="-1.4660100359">
        <ele>627.88</ele>
        <time>2021-05-23T10:09:00Z</time>
      </trkpt>
      <trkpt lat="42.9134950228" lon="-1.4656635281">
        <ele>629.80</ele>
        <time>2021-05-23T10:09:14Z</time>
      </trkpt>
      <trkpt lat="42.9140166286" lon="-1.4653663058">
        <ele>632.20</ele>
        <time>2021-05-23T10:09:26Z</time>
      </trkpt>
      <trkpt lat="42.9146150127" lon="-1.4650609531">
        <ele>634.13</ele>
        <time>2021-05-23T10:09:42Z</time>
      </trkpt>
      <trkpt lat="42.9152677115" lon="-1.4648850169">
        <ele>637.01</ele>
        <time>2021-05-23T10:09:58Z</time>
      </trkpt>
      <trkpt lat="42.9159221705" lon="-1.4649820793">
        <ele>637.01</ele>
        <time>2021-05-23T10:10:11Z</time>
      </trkpt>
      <trkpt lat="42.9166870192" lon="-1.4651720971">
        <ele>635.09</ele>
        <time>2021-05-23T10:10:24Z</time>
      </trkpt>
      <trkpt lat="42.9176253732" lon="-1.4652250707">
        <ele>634.61</ele>
        <time>2021-05-23T10:10:38Z</time>
      </trkpt>
      <trkpt lat="42.9185592011" lon="-1.4647009503">
        <ele>633.17</ele>
        <time>2021-05-23T10:10:52Z</time>
      </trkpt>
      <trkpt lat="42.9193263967" lon="-1.4639410470">
        <ele>633.17</ele>
        <time>2021-05-23T10:11:07Z</time>
      </trkpt>
      <trkpt lat="42.9196863994" lon="-1.4635883365">
        <ele>634.61</ele>
        <time>2021-05-23T10:11:15Z</time>
      </trkpt>
      <trkpt lat="42.9202971049" lon="-1.4629982505">
        <ele>636.05</ele>
        <time>2021-05-23T10:11:29Z</time>
      </trkpt>
      <trkpt lat="42.9205093347" lon="-1.4628120884">
        <ele>636.05</ele>
        <time>2021-05-23T10:11:34Z</time>
      </trkpt>
      <trkpt lat="42.9212919530" lon="-1.4620529395">
        <ele>637.01</ele>
        <time>2021-05-23T10:11:50Z</time>
      </trkpt>
      <trkpt lat="42.9220654350" lon="-1.4612880070">
        <ele>637.97</ele>
        <time>2021-05-23T10:12:07Z</time>
      </trkpt>
      <trkpt lat="42.9228223208" lon="-1.4605518244">
        <ele>638.45</ele>
        <time>2021-05-23T10:12:24Z</time>
      </trkpt>
      <trkpt lat="42.9234741814" lon="-1.4600641653">
        <ele>640.86</ele>
        <time>2021-05-23T10:12:38Z</time>
      </trkpt>
      <trkpt lat="42.9240262974" lon="-1.4596543740">
        <ele>640.38</ele>
        <time>2021-05-23T10:12:50Z</time>
      </trkpt>
      <trkpt lat="42.9241766687" lon="-1.4595367759">
        <ele>641.82</ele>
        <time>2021-05-23T10:12:53Z</time>
      </trkpt>
      <trkpt lat="42.9250487220" lon="-1.4588359650">
        <ele>641.82</ele>
        <time>2021-05-23T10:13:10Z</time>
      </trkpt>
      <trkpt lat="42.9257608484" lon="-1.4582406823">
        <ele>643.26</ele>
        <time>2021-05-23T10:13:25Z</time>
      </trkpt>
      <trkpt lat="42.9260210227" lon="-1.4580489881">
        <ele>643.26</ele>
        <time>2021-05-23T10:13:30Z</time>
      </trkpt>
      <trkpt lat="42.9267946724" lon="-1.4575439785">
        <ele>643.26</ele>
        <time>2021-05-23T10:13:44Z</time>
      </trkpt>
      <trkpt lat="42.9271840118" lon="-1.4571377914">
        <ele>643.74</ele>
        <time>2021-05-23T10:13:52Z</time>
      </trkpt>
      <trkpt lat="42.9272397514" lon="-1.4571134001">
        <ele>643.74</ele>
        <time>2021-05-23T10:13:53Z</time>
      </trkpt>
      <trkpt lat="42.9272916354" lon="-1.4571046829">
        <ele>644.70</ele>
        <time>2021-05-23T10:13:54Z</time>
      </trkpt>
      <trkpt lat="42.9273411725" lon="-1.4571045153">
        <ele>644.70</ele>
        <time>2021-05-23T10:13:55Z</time>
      </trkpt>
      <trkpt lat="42.9273949843" lon="-1.4571088739">
        <ele>644.70</ele>
        <time>2021-05-23T10:13:56Z</time>
      </trkpt>
      <trkpt lat="42.9276301805" lon="-1.4571569860">
        <ele>646.14</ele>
        <time>2021-05-23T10:14:01Z</time>
      </trkpt>
      <trkpt lat="42.9278020933" lon="-1.4572059363">
        <ele>647.10</ele>
        <time>2021-05-23T10:14:05Z</time>
      </trkpt>
      <trkpt lat="42.9279602598" lon="-1.4572435711">
        <ele>648.55</ele>
        <time>2021-05-23T10:14:09Z</time>
      </trkpt>
      <trkpt lat="42.9283763375" lon="-1.4573068544">
        <ele>651.43</ele>
        <time>2021-05-23T10:14:20Z</time>
      </trkpt>
      <trkpt lat="42.9286486655" lon="-1.4572922699">
        <ele>652.87</ele>
        <time>2021-05-23T10:14:27Z</time>
      </trkpt>
      <trkpt lat="42.9286893178" lon="-1.4572909288">
        <ele>652.87</ele>
        <time>2021-05-23T10:14:28Z</time>
      </trkpt>
      <trkpt lat="42.9291921481" lon="-1.4573561400">
        <ele>656.24</ele>
        <time>2021-05-23T10:14:41Z</time>
      </trkpt>
      <trkpt lat="42.9296185356" lon="-1.4573890809">
        <ele>658.64</ele>
        <time>2021-05-23T10:14:53Z</time>
      </trkpt>
      <trkpt lat="42.9300840665" lon="-1.4571819641">
        <ele>662.01</ele>
        <time>2021-05-23T10:15:06Z</time>
      </trkpt>
      <trkpt lat="42.9303350206" lon="-1.4567461051">
        <ele>664.89</ele>
        <time>2021-05-23T10:15:18Z</time>
      </trkpt>
      <trkpt lat="42.9303163290" lon="-1.4562265947">
        <ele>668.25</ele>
        <time>2021-05-23T10:15:28Z</time>
      </trkpt>
      <trkpt lat="42.9303155746" lon="-1.4557057433">
        <ele>670.66</ele>
        <time>2021-05-23T10:15:38Z</time>
      </trkpt>
      <trkpt lat="42.9303510301" lon="-1.4555447269">
        <ele>671.14</ele>
        <time>2021-05-23T10:15:41Z</time>
      </trkpt>
      <trkpt lat="42.9303726554" lon="-1.4554978721">
        <ele>671.14</ele>
        <time>2021-05-23T10:15:42Z</time>
      </trkpt>
      <trkpt lat="42.9303988907" lon="-1.4554526936">
        <ele>671.14</ele>
        <time>2021-05-23T10:15:43Z</time>
      </trkpt>
      <trkpt lat="42.9304297362" lon="-1.4554086048">
        <ele>671.14</ele>
        <time>2021-05-23T10:15:44Z</time>
      </trkpt>
      <trkpt lat="42.9304673709" lon="-1.4553641807">
        <ele>671.14</ele>
        <time>2021-05-23T10:15:45Z</time>
      </trkpt>
      <trkpt lat="42.9305071849" lon="-1.4553283062">
        <ele>671.14</ele>
        <time>2021-05-23T10:15:46Z</time>
      </trkpt>
      <trkpt lat="42.9305560514" lon="-1.4552972093">
        <ele>671.14</ele>
        <time>2021-05-23T10:15:47Z</time>
      </trkpt>
      <trkpt lat="42.9306070134" lon="-1.4552723151">
        <ele>671.14</ele>
        <time>2021-05-23T10:15:48Z</time>
      </trkpt>
      <trkpt lat="42.9315962456" lon="-1.4548766054">
        <ele>671.14</ele>
        <time>2021-05-23T10:16:05Z</time>
      </trkpt>
      <trkpt lat="42.9319311026" lon="-1.4547445904">
        <ele>669.70</ele>
        <time>2021-05-23T10:16:10Z</time>
      </trkpt>
      <trkpt lat="42.9331156332" lon="-1.4540697634">
        <ele>666.81</ele>
        <time>2021-05-23T10:16:27Z</time>
      </trkpt>
      <trkpt lat="42.9336626362" lon="-1.4533992112">
        <ele>663.45</ele>
        <time>2021-05-23T10:16:35Z</time>
      </trkpt>
      <trkpt lat="42.9347568098" lon="-1.4520543348">
        <ele>661.04</ele>
        <time>2021-05-23T10:16:52Z</time>
      </trkpt>
      <trkpt lat="42.9352281243" lon="-1.4514753968">
        <ele>662.49</ele>
        <time>2021-05-23T10:17:02Z</time>
      </trkpt>
      <trkpt lat="42.9357257579" lon="-1.4508548845">
        <ele>665.85</ele>
        <time>2021-05-23T10:17:15Z</time>
      </trkpt>
      <trkpt lat="42.9362517223" lon="-1.4502142556">
        <ele>668.25</ele>
        <time>2021-05-23T10:17:32Z</time>
      </trkpt>
      <trkpt lat="42.9368198477" lon="-1.4494904783">
        <ele>669.70</ele>
        <time>2021-05-23T10:17:49Z</time>
      </trkpt>
      <trkpt lat="42.9369536228" lon="-1.4493242651">
        <ele>671.14</ele>
        <time>2021-05-23T10:17:53Z</time>
      </trkpt>
      <trkpt lat="42.9369871505" lon="-1.4492844511">
        <ele>671.14</ele>
        <time>2021-05-23T10:17:54Z</time>
      </trkpt>
      <trkpt lat="42.9376082495" lon="-1.4484934509">
        <ele>672.58</ele>
        <time>2021-05-23T10:18:13Z</time>
      </trkpt>
      <trkpt lat="42.9383720923" lon="-1.4476835076">
        <ele>673.06</ele>
        <time>2021-05-23T10:18:33Z</time>
      </trkpt>
      <trkpt lat="42.9388294090" lon="-1.4473251812">
        <ele>672.10</ele>
        <time>2021-05-23T10:18:41Z</time>
      </trkpt>
      <trkpt lat="42.9395947605" lon="-1.4468199201">
        <ele>667.29</ele>
        <time>2021-05-23T10:18:53Z</time>
      </trkpt>
      <trkpt lat="42.9401124269" lon="-1.4467273839">
        <ele>666.81</ele>
        <time>2021-05-23T10:18:59Z</time>
      </trkpt>
      <trkpt lat="42.9411432333" lon="-1.4466003980">
        <ele>663.93</ele>
        <time>2021-05-23T10:19:12Z</time>
      </trkpt>
      <trkpt lat="42.9412065167" lon="-1.4466145635">
        <ele>663.93</ele>
        <time>2021-05-23T10:19:13Z</time>
      </trkpt>
      <trkpt lat="42.9422112554" lon="-1.4470583852">
        <ele>664.89</ele>
        <time>2021-05-23T10:19:31Z</time>
      </trkpt>
      <trkpt lat="42.9424161930" lon="-1.4471643325">
        <ele>664.89</ele>
        <time>2021-05-23T10:19:39Z</time>
      </trkpt>
      <trkpt lat="42.9424234852" lon="-1.4474724513">
        <ele>663.45</ele>
        <time>2021-05-23T10:19:50Z</time>
      </trkpt>
      <trkpt lat="42.9424241558" lon="-1.4476208948">
        <ele>662.97</ele>
        <time>2021-05-23T10:19:55Z</time>
      </trkpt>
      <trkpt lat="42.9424322024" lon="-1.4476380777">
        <ele>662.49</ele>
        <time>2021-05-23T10:19:56Z</time>
      </trkpt>
      <trkpt lat="42.9424420092" lon="-1.4476541709">
        <ele>662.49</ele>
        <time>2021-05-23T10:19:57Z</time>
      </trkpt>
      <trkpt lat="42.9424539115" lon="-1.4476667438">
        <ele>662.97</ele>
        <time>2021-05-23T10:19:58Z</time>
      </trkpt>
      <trkpt lat="42.9424321186" lon="-1.4476231579">
        <ele>662.97</ele>
        <time>2021-05-23T10:20:07Z</time>
      </trkpt>
      <trkpt lat="42.9423964117" lon="-1.4475972578">
        <ele>662.49</ele>
        <time>2021-05-23T10:20:09Z</time>
      </trkpt>
      <trkpt lat="42.9423819110" lon="-1.4475677535">
        <ele>662.49</ele>
        <time>2021-05-23T10:20:10Z</time>
      </trkpt>
      <trkpt lat="42.9423741996" lon="-1.4475334715">
        <ele>662.49</ele>
        <time>2021-05-23T10:20:11Z</time>
      </trkpt>
      <trkpt lat="42.9423707630" lon="-1.4474897180">
        <ele>662.49</ele>
        <time>2021-05-23T10:20:12Z</time>
      </trkpt>
      <trkpt lat="42.9423700925" lon="-1.4474431146">
        <ele>662.49</ele>
        <time>2021-05-23T10:20:13Z</time>
      </trkpt>
      <trkpt lat="42.9424651433" lon="-1.4467881527">
        <ele>665.85</ele>
        <time>2021-05-23T10:20:27Z</time>
      </trkpt>
      <trkpt lat="42.9426688235" lon="-1.4459818974">
        <ele>669.22</ele>
        <time>2021-05-23T10:20:46Z</time>
      </trkpt>
      <trkpt lat="42.9428497050" lon="-1.4452714473">
        <ele>672.10</ele>
        <time>2021-05-23T10:21:02Z</time>
      </trkpt>
      <trkpt lat="42.9430043511" lon="-1.4446555451">
        <ele>675.46</ele>
        <time>2021-05-23T10:21:15Z</time>
      </trkpt>
      <trkpt lat="42.9431520402" lon="-1.4439951349">
        <ele>677.39</ele>
        <time>2021-05-23T10:21:29Z</time>
      </trkpt>
      <trkpt lat="42.9432546347" lon="-1.4436062146">
        <ele>679.79</ele>
        <time>2021-05-23T10:21:37Z</time>
      </trkpt>
      <trkpt lat="42.9432809539" lon="-1.4435037039">
        <ele>677.87</ele>
        <time>2021-05-23T10:21:39Z</time>
      </trkpt>
      <trkpt lat="42.9433278088" lon="-1.4433595352">
        <ele>680.27</ele>
        <time>2021-05-23T10:21:42Z</time>
      </trkpt>
      <trkpt lat="42.9434215184" lon="-1.4430753887">
        <ele>682.19</ele>
        <time>2021-05-23T10:21:48Z</time>
      </trkpt>
      <trkpt lat="42.9434548784" lon="-1.4429813437">
        <ele>680.27</ele>
        <time>2021-05-23T10:21:50Z</time>
      </trkpt>
      <trkpt lat="42.9434885737" lon="-1.4428911544">
        <ele>682.19</ele>
        <time>2021-05-23T10:21:52Z</time>
      </trkpt>
      <trkpt lat="42.9438443016" lon="-1.4418838173">
        <ele>684.12</ele>
        <time>2021-05-23T10:22:13Z</time>
      </trkpt>
      <trkpt lat="42.9441664182" lon="-1.4410424419">
        <ele>683.15</ele>
        <time>2021-05-23T10:22:26Z</time>
      </trkpt>
      <trkpt lat="42.9443566874" lon="-1.4405844547">
        <ele>680.27</ele>
        <time>2021-05-23T10:22:31Z</time>
      </trkpt>
      <trkpt lat="42.9448664747" lon="-1.4393459447">
        <ele>679.31</ele>
        <time>2021-05-23T10:22:45Z</time>
      </trkpt>
      <trkpt lat="42.9451374616" lon="-1.4386716206">
        <ele>683.15</ele>
        <time>2021-05-23T10:22:56Z</time>
      </trkpt>
      <trkpt lat="42.9452073667" lon="-1.4385025576">
        <ele>683.63</ele>
        <time>2021-05-23T10:22:59Z</time>
      </trkpt>
      <trkpt lat="42.9454333428" lon="-1.4379412215">
        <ele>686.52</ele>
        <time>2021-05-23T10:23:09Z</time>
      </trkpt>
      <trkpt lat="42.9454756714" lon="-1.4378273953">
        <ele>687.00</ele>
        <time>2021-05-23T10:23:11Z</time>
      </trkpt>
      <trkpt lat="42.9456077702" lon="-1.4375010878">
        <ele>688.92</ele>
        <time>2021-05-23T10:23:17Z</time>
      </trkpt>
      <trkpt lat="42.9459638335" lon="-1.4369450323">
        <ele>692.29</ele>
        <time>2021-05-23T10:23:31Z</time>
      </trkpt>
      <trkpt lat="42.9463975132" lon="-1.4363389369">
        <ele>694.69</ele>
        <time>2021-05-23T10:23:48Z</time>
      </trkpt>
      <trkpt lat="42.9470720049" lon="-1.4357157424">
        <ele>695.17</ele>
        <time>2021-05-23T10:24:06Z</time>
      </trkpt>
      <trkpt lat="42.9480531067" lon="-1.4351959806">
        <ele>695.17</ele>
        <time>2021-05-23T10:24:25Z</time>
      </trkpt>
      <trkpt lat="42.9489890300" lon="-1.4344656654">
        <ele>695.17</ele>
        <time>2021-05-23T10:24:44Z</time>
      </trkpt>
      <trkpt lat="42.9490723461" lon="-1.4343804214">
        <ele>695.17</ele>
        <time>2021-05-23T10:24:46Z</time>
      </trkpt>
      <trkpt lat="42.9491104838" lon="-1.4343297109">
        <ele>695.65</ele>
        <time>2021-05-23T10:24:47Z</time>
      </trkpt>
      <trkpt lat="42.9492649622" lon="-1.4340452291">
        <ele>696.13</ele>
        <time>2021-05-23T10:24:52Z</time>
      </trkpt>
      <trkpt lat="42.9492859170" lon="-1.4339820296">
        <ele>696.13</ele>
        <time>2021-05-23T10:24:53Z</time>
      </trkpt>
      <trkpt lat="42.9494492803" lon="-1.4332441706">
        <ele>697.57</ele>
        <time>2021-05-23T10:25:06Z</time>
      </trkpt>
      <trkpt lat="42.9494708218" lon="-1.4331346191">
        <ele>697.57</ele>
        <time>2021-05-23T10:25:08Z</time>
      </trkpt>
      <trkpt lat="42.9496776871" lon="-1.4322893042">
        <ele>700.46</ele>
        <time>2021-05-23T10:25:23Z</time>
      </trkpt>
      <trkpt lat="42.9497485980" lon="-1.4321426209">
        <ele>700.94</ele>
        <time>2021-05-23T10:25:26Z</time>
      </trkpt>
      <trkpt lat="42.9497775994" lon="-1.4320961852">
        <ele>700.94</ele>
        <time>2021-05-23T10:25:27Z</time>
      </trkpt>
      <trkpt lat="42.9498097021" lon="-1.4320541080">
        <ele>701.42</ele>
        <time>2021-05-23T10:25:28Z</time>
      </trkpt>
      <trkpt lat="42.9498446546" lon="-1.4320168085">
        <ele>701.42</ele>
        <time>2021-05-23T10:25:29Z</time>
      </trkpt>
      <trkpt lat="42.9498824570" lon="-1.4319841191">
        <ele>701.90</ele>
        <time>2021-05-23T10:25:30Z</time>
      </trkpt>
      <trkpt lat="42.9499221034" lon="-1.4319547825">
        <ele>701.90</ele>
        <time>2021-05-23T10:25:31Z</time>
      </trkpt>
      <trkpt lat="42.9499623366" lon="-1.4319303073">
        <ele>702.38</ele>
        <time>2021-05-23T10:25:32Z</time>
      </trkpt>
      <trkpt lat="42.9505511653" lon="-1.4314341825">
        <ele>704.78</ele>
        <time>2021-05-23T10:25:49Z</time>
      </trkpt>
      <trkpt lat="42.9508934822" lon="-1.4312429912">
        <ele>706.71</ele>
        <time>2021-05-23T10:25:59Z</time>
      </trkpt>
      <trkpt lat="42.9515528865" lon="-1.4311155863">
        <ele>710.07</ele>
        <time>2021-05-23T10:26:15Z</time>
      </trkpt>
      <trkpt lat="42.9522276297" lon="-1.4310912788">
        <ele>711.51</ele>
        <time>2021-05-23T10:26:31Z</time>
      </trkpt>
      <trkpt lat="42.9532263335" lon="-1.4310202841">
        <ele>711.99</ele>
        <time>2021-05-23T10:26:49Z</time>
      </trkpt>
      <trkpt lat="42.9542180803" lon="-1.4309742674">
        <ele>712.47</ele>
        <time>2021-05-23T10:27:06Z</time>
      </trkpt>
      <trkpt lat="42.9550952464" lon="-1.4314247109">
        <ele>713.44</ele>
        <time>2021-05-23T10:27:22Z</time>
      </trkpt>
      <trkpt lat="42.9558741767" lon="-1.4321007952">
        <ele>714.40</ele>
        <time>2021-05-23T10:27:38Z</time>
      </trkpt>
      <trkpt lat="42.9568558652" lon="-1.4327737782">
        <ele>716.80</ele>
        <time>2021-05-23T10:27:57Z</time>
      </trkpt>
      <trkpt lat="42.9573664069" lon="-1.4331183583">
        <ele>717.76</ele>
        <time>2021-05-23T10:28:08Z</time>
      </trkpt>
      <trkpt lat="42.9574089032" lon="-1.4331504609">
        <ele>718.24</ele>
        <time>2021-05-23T10:28:09Z</time>
      </trkpt>
      <trkpt lat="42.9580829758" lon="-1.4336080290">
        <ele>719.68</ele>
        <time>2021-05-23T10:28:24Z</time>
      </trkpt>
      <trkpt lat="42.9583253805" lon="-1.4337273873">
        <ele>720.16</ele>
        <time>2021-05-23T10:28:29Z</time>
      </trkpt>
      <trkpt lat="42.9583754204" lon="-1.4337400440">
        <ele>720.16</ele>
        <time>2021-05-23T10:28:30Z</time>
      </trkpt>
      <trkpt lat="42.9586269613" lon="-1.4337568078">
        <ele>720.65</ele>
        <time>2021-05-23T10:28:35Z</time>
      </trkpt>
      <trkpt lat="42.9586780071" lon="-1.4337445702">
        <ele>720.65</ele>
        <time>2021-05-23T10:28:36Z</time>
      </trkpt>
      <trkpt lat="42.9592843540" lon="-1.4334700629">
        <ele>723.05</ele>
        <time>2021-05-23T10:28:50Z</time>
      </trkpt>
      <trkpt lat="42.9598917067" lon="-1.4333836455">
        <ele>724.49</ele>
        <time>2021-05-23T10:29:04Z</time>
      </trkpt>
      <trkpt lat="42.9600206204" lon="-1.4333374612">
        <ele>724.97</ele>
        <time>2021-05-23T10:29:07Z</time>
      </trkpt>
      <trkpt lat="42.9607258737" lon="-1.4328492153">
        <ele>727.37</ele>
        <time>2021-05-23T10:29:24Z</time>
      </trkpt>
      <trkpt lat="42.9609650094" lon="-1.4326504804">
        <ele>726.41</ele>
        <time>2021-05-23T10:29:30Z</time>
      </trkpt>
      <trkpt lat="42.9610075057" lon="-1.4326242451">
        <ele>726.41</ele>
        <time>2021-05-23T10:29:31Z</time>
      </trkpt>
      <trkpt lat="42.9610948451" lon="-1.4325830899">
        <ele>728.82</ele>
        <time>2021-05-23T10:29:33Z</time>
      </trkpt>
      <trkpt lat="42.9613012914" lon="-1.4325340558">
        <ele>729.78</ele>
        <time>2021-05-23T10:29:38Z</time>
      </trkpt>
      <trkpt lat="42.9614049755" lon="-1.4325261768">
        <ele>728.82</ele>
        <time>2021-05-23T10:29:40Z</time>
      </trkpt>
      <trkpt lat="42.9615425225" lon="-1.4325234108">
        <ele>729.78</ele>
        <time>2021-05-23T10:29:43Z</time>
      </trkpt>
      <trkpt lat="42.9618772957" lon="-1.4325318765">
        <ele>730.74</ele>
        <time>2021-05-23T10:29:51Z</time>
      </trkpt>
      <trkpt lat="42.9622499552" lon="-1.4325018693">
        <ele>732.18</ele>
        <time>2021-05-23T10:30:00Z</time>
      </trkpt>
      <trkpt lat="42.9622934572" lon="-1.4324938226">
        <ele>732.18</ele>
        <time>2021-05-23T10:30:01Z</time>
      </trkpt>
      <trkpt lat="42.9625027534" lon="-1.4324714430">
        <ele>733.14</ele>
        <time>2021-05-23T10:30:06Z</time>
      </trkpt>
      <trkpt lat="42.9631436337" lon="-1.4322849456">
        <ele>736.99</ele>
        <time>2021-05-23T10:30:22Z</time>
      </trkpt>
      <trkpt lat="42.9632443003" lon="-1.4322193153">
        <ele>735.07</ele>
        <time>2021-05-23T10:30:25Z</time>
      </trkpt>
      <trkpt lat="42.9633565340" lon="-1.4321337361">
        <ele>737.47</ele>
        <time>2021-05-23T10:30:28Z</time>
      </trkpt>
      <trkpt lat="42.9638907965" lon="-1.4316230267">
        <ele>739.87</ele>
        <time>2021-05-23T10:30:45Z</time>
      </trkpt>
      <trkpt lat="42.9639189597" lon="-1.4315829612">
        <ele>739.87</ele>
        <time>2021-05-23T10:30:46Z</time>
      </trkpt>
      <trkpt lat="42.9641679861" lon="-1.4312305022">
        <ele>741.79</ele>
        <time>2021-05-23T10:30:55Z</time>
      </trkpt>
      <trkpt lat="42.9645125661" lon="-1.4306850918">
        <ele>744.20</ele>
        <time>2021-05-23T10:31:08Z</time>
      </trkpt>
      <trkpt lat="42.9649278894" lon="-1.4299319778">
        <ele>746.12</ele>
        <time>2021-05-23T10:31:25Z</time>
      </trkpt>
      <trkpt lat="42.9653302208" lon="-1.4293790236">
        <ele>749.49</ele>
        <time>2021-05-23T10:31:40Z</time>
      </trkpt>
      <trkpt lat="42.9657359887" lon="-1.4291012473">
        <ele>752.85</ele>
        <time>2021-05-23T10:31:53Z</time>
      </trkpt>
      <trkpt lat="42.9658927303" lon="-1.4289476071">
        <ele>753.81</ele>
        <time>2021-05-23T10:31:59Z</time>
      </trkpt>
      <trkpt lat="42.9662056267" lon="-1.4283755422">
        <ele>756.69</ele>
        <time>2021-05-23T10:32:15Z</time>
      </trkpt>
      <trkpt lat="42.9664291721" lon="-1.4278697781">
        <ele>760.06</ele>
        <time>2021-05-23T10:32:27Z</time>
      </trkpt>
      <trkpt lat="42.9667397216" lon="-1.4273713902">
        <ele>763.42</ele>
        <time>2021-05-23T10:32:40Z</time>
      </trkpt>
      <trkpt lat="42.9668910988" lon="-1.4268303383">
        <ele>766.79</ele>
        <time>2021-05-23T10:32:53Z</time>
      </trkpt>
      <trkpt lat="42.9671065975" lon="-1.4262567647">
        <ele>769.67</ele>
        <time>2021-05-23T10:33:07Z</time>
      </trkpt>
      <trkpt lat="42.9673028179" lon="-1.4257004578">
        <ele>773.04</ele>
        <time>2021-05-23T10:33:20Z</time>
      </trkpt>
      <trkpt lat="42.9674065020" lon="-1.4249755908">
        <ele>776.40</ele>
        <time>2021-05-23T10:33:36Z</time>
      </trkpt>
      <trkpt lat="42.9674895667" lon="-1.4243194554">
        <ele>779.29</ele>
        <time>2021-05-23T10:33:50Z</time>
      </trkpt>
      <trkpt lat="42.9675402772" lon="-1.4236489031">
        <ele>782.17</ele>
        <time>2021-05-23T10:34:04Z</time>
      </trkpt>
      <trkpt lat="42.9674636666" lon="-1.4229681250">
        <ele>785.53</ele>
        <time>2021-05-23T10:34:19Z</time>
      </trkpt>
      <trkpt lat="42.9674752336" lon="-1.4225191902">
        <ele>786.02</ele>
        <time>2021-05-23T10:34:29Z</time>
      </trkpt>
      <trkpt lat="42.9674857948" lon="-1.4224610198">
        <ele>786.02</ele>
        <time>2021-05-23T10:34:30Z</time>
      </trkpt>
      <trkpt lat="42.9676812608" lon="-1.4219041262">
        <ele>782.65</ele>
        <time>2021-05-23T10:34:38Z</time>
      </trkpt>
      <trkpt lat="42.9677893035" lon="-1.4216579497">
        <ele>781.21</ele>
        <time>2021-05-23T10:34:41Z</time>
      </trkpt>
      <trkpt lat="42.9681048822" lon="-1.4209217671">
        <ele>778.32</ele>
        <time>2021-05-23T10:34:49Z</time>
      </trkpt>
      <trkpt lat="42.9681353923" lon="-1.4208141435">
        <ele>778.32</ele>
        <time>2021-05-23T10:34:50Z</time>
      </trkpt>
      <trkpt lat="42.9681602865" lon="-1.4206998982">
        <ele>777.36</ele>
        <time>2021-05-23T10:34:51Z</time>
      </trkpt>
      <trkpt lat="42.9681769665" lon="-1.4205915201">
        <ele>776.88</ele>
        <time>2021-05-23T10:34:52Z</time>
      </trkpt>
      <trkpt lat="42.9681862704" lon="-1.4204810467">
        <ele>776.88</ele>
        <time>2021-05-23T10:34:53Z</time>
      </trkpt>
      <trkpt lat="42.9681841750" lon="-1.4203732554">
        <ele>776.88</ele>
        <time>2021-05-23T10:34:54Z</time>
      </trkpt>
      <trkpt lat="42.9681703448" lon="-1.4202677272">
        <ele>776.88</ele>
        <time>2021-05-23T10:34:55Z</time>
      </trkpt>
      <trkpt lat="42.9681495577" lon="-1.4201766159">
        <ele>776.88</ele>
        <time>2021-05-23T10:34:56Z</time>
      </trkpt>
      <trkpt lat="42.9681261722" lon="-1.4200883545">
        <ele>776.88</ele>
        <time>2021-05-23T10:34:57Z</time>
      </trkpt>
      <trkpt lat="42.9679121822" lon="-1.4191520959">
        <ele>778.81</ele>
        <time>2021-05-23T10:35:10Z</time>
      </trkpt>
      <trkpt lat="42.9679124337" lon="-1.4190795086">
        <ele>778.81</ele>
        <time>2021-05-23T10:35:11Z</time>
      </trkpt>
      <trkpt lat="42.9679214023" lon="-1.4188548736">
        <ele>778.81</ele>
        <time>2021-05-23T10:35:14Z</time>
      </trkpt>
      <trkpt lat="42.9679298680" lon="-1.4187799394">
        <ele>778.81</ele>
        <time>2021-05-23T10:35:15Z</time>
      </trkpt>
      <trkpt lat="42.9680483043" lon="-1.4180733450">
        <ele>782.17</ele>
        <time>2021-05-23T10:35:26Z</time>
      </trkpt>
      <trkpt lat="42.9681205563" lon="-1.4177838340">
        <ele>782.65</ele>
        <time>2021-05-23T10:35:31Z</time>
      </trkpt>
      <trkpt lat="42.9683899507" lon="-1.4171179757">
        <ele>781.69</ele>
        <time>2021-05-23T10:35:41Z</time>
      </trkpt>
      <trkpt lat="42.9687274899" lon="-1.4163216949">
        <ele>777.84</ele>
        <time>2021-05-23T10:35:50Z</time>
      </trkpt>
      <trkpt lat="42.9693288915" lon="-1.4148898143">
        <ele>777.36</ele>
        <time>2021-05-23T10:36:07Z</time>
      </trkpt>
      <trkpt lat="42.9694554582" lon="-1.4146121219">
        <ele>780.25</ele>
        <time>2021-05-23T10:36:12Z</time>
      </trkpt>
      <trkpt lat="42.9697248526" lon="-1.4138809685">
        <ele>782.65</ele>
        <time>2021-05-23T10:36:26Z</time>
      </trkpt>
      <trkpt lat="42.9698689375" lon="-1.4134503063">
        <ele>784.09</ele>
        <time>2021-05-23T10:36:34Z</time>
      </trkpt>
      <trkpt lat="42.9698842764" lon="-1.4133979194">
        <ele>784.09</ele>
        <time>2021-05-23T10:36:35Z</time>
      </trkpt>
      <trkpt lat="42.9698994476" lon="-1.4133465383">
        <ele>784.57</ele>
        <time>2021-05-23T10:36:36Z</time>
      </trkpt>
      <trkpt lat="42.9700999428" lon="-1.4125733078">
        <ele>786.50</ele>
        <time>2021-05-23T10:36:51Z</time>
      </trkpt>
      <trkpt lat="42.9701001942" lon="-1.4122333378">
        <ele>785.05</ele>
        <time>2021-05-23T10:36:56Z</time>
      </trkpt>
      <trkpt lat="42.9699975159" lon="-1.4116769470">
        <ele>782.65</ele>
        <time>2021-05-23T10:37:03Z</time>
      </trkpt>
      <trkpt lat="42.9699606355" lon="-1.4115971513">
        <ele>782.17</ele>
        <time>2021-05-23T10:37:04Z</time>
      </trkpt>
      <trkpt lat="42.9699126910" lon="-1.4115261566">
        <ele>781.69</ele>
        <time>2021-05-23T10:37:05Z</time>
      </trkpt>
      <trkpt lat="42.9698541854" lon="-1.4114624541">
        <ele>781.69</ele>
        <time>2021-05-23T10:37:06Z</time>
      </trkpt>
      <trkpt lat="42.9697901476" lon="-1.4114128333">
        <ele>781.69</ele>
        <time>2021-05-23T10:37:07Z</time>
      </trkpt>
      <trkpt lat="42.9697188176" lon="-1.4113708399">
        <ele>781.69</ele>
        <time>2021-05-23T10:37:08Z</time>
      </trkpt>
      <trkpt lat="42.9696440510" lon="-1.4113254938">
        <ele>780.73</ele>
        <time>2021-05-23T10:37:09Z</time>
      </trkpt>
      <trkpt lat="42.9695818573" lon="-1.4112623781">
        <ele>780.73</ele>
        <time>2021-05-23T10:37:10Z</time>
      </trkpt>
      <trkpt lat="42.9695401154" lon="-1.4111740328">
        <ele>780.25</ele>
        <time>2021-05-23T10:37:11Z</time>
      </trkpt>
      <trkpt lat="42.9695238546" lon="-1.4110656548">
        <ele>779.77</ele>
        <time>2021-05-23T10:37:12Z</time>
      </trkpt>
      <trkpt lat="42.9695351701" lon="-1.4109502360">
        <ele>779.77</ele>
        <time>2021-05-23T10:37:13Z</time>
      </trkpt>
      <trkpt lat="42.9695702903" lon="-1.4108495694">
        <ele>779.29</ele>
        <time>2021-05-23T10:37:14Z</time>
      </trkpt>
      <trkpt lat="42.9696248565" lon="-1.4107556082">
        <ele>778.81</ele>
        <time>2021-05-23T10:37:15Z</time>
      </trkpt>
      <trkpt lat="42.9696846195" lon="-1.4106629044">
        <ele>778.32</ele>
        <time>2021-05-23T10:37:16Z</time>
      </trkpt>
      <trkpt lat="42.9702002741" lon="-1.4098968823">
        <ele>774.00</ele>
        <time>2021-05-23T10:37:24Z</time>
      </trkpt>
      <trkpt lat="42.9704055469" lon="-1.4096068684">
        <ele>771.11</ele>
        <time>2021-05-23T10:37:27Z</time>
      </trkpt>
      <trkpt lat="42.9707444273" lon="-1.4090982545">
        <ele>767.75</ele>
        <time>2021-05-23T10:37:32Z</time>
      </trkpt>
      <trkpt lat="42.9709093831" lon="-1.4087442867">
        <ele>766.31</ele>
        <time>2021-05-23T10:37:35Z</time>
      </trkpt>
      <trkpt lat="42.9710820504" lon="-1.4082380198">
        <ele>764.87</ele>
        <time>2021-05-23T10:37:39Z</time>
      </trkpt>
      <trkpt lat="42.9710965510" lon="-1.4080983773">
        <ele>764.39</ele>
        <time>2021-05-23T10:37:40Z</time>
      </trkpt>
      <trkpt lat="42.9710930306" lon="-1.4079517778">
        <ele>763.42</ele>
        <time>2021-05-23T10:37:41Z</time>
      </trkpt>
      <trkpt lat="42.9710745066" lon="-1.4078127220">
        <ele>762.46</ele>
        <time>2021-05-23T10:37:42Z</time>
      </trkpt>
      <trkpt lat="42.9710360337" lon="-1.4076741692">
        <ele>761.50</ele>
        <time>2021-05-23T10:37:43Z</time>
      </trkpt>
      <trkpt lat="42.9709746782" lon="-1.4075492788">
        <ele>760.54</ele>
        <time>2021-05-23T10:37:44Z</time>
      </trkpt>
      <trkpt lat="42.9709056951" lon="-1.4074466005">
        <ele>759.58</ele>
        <time>2021-05-23T10:37:45Z</time>
      </trkpt>
      <trkpt lat="42.9707761947" lon="-1.4072243962">
        <ele>758.14</ele>
        <time>2021-05-23T10:37:47Z</time>
      </trkpt>
      <trkpt lat="42.9707267415" lon="-1.4070999250">
        <ele>758.14</ele>
        <time>2021-05-23T10:37:48Z</time>
      </trkpt>
      <trkpt lat="42.9706885200" lon="-1.4069629647">
        <ele>757.66</ele>
        <time>2021-05-23T10:37:49Z</time>
      </trkpt>
      <trkpt lat="42.9706689902" lon="-1.4068293571">
        <ele>757.18</ele>
        <time>2021-05-23T10:37:50Z</time>
      </trkpt>
      <trkpt lat="42.9706637934" lon="-1.4066897985">
        <ele>757.66</ele>
        <time>2021-05-23T10:37:51Z</time>
      </trkpt>
      <trkpt lat="42.9706645478" lon="-1.4065469708">
        <ele>756.69</ele>
        <time>2021-05-23T10:37:52Z</time>
      </trkpt>
      <trkpt lat="42.9706614465" lon="-1.4061733894">
        <ele>756.69</ele>
        <time>2021-05-23T10:37:55Z</time>
      </trkpt>
      <trkpt lat="42.9706445150" lon="-1.4060556237">
        <ele>756.69</ele>
        <time>2021-05-23T10:37:56Z</time>
      </trkpt>
      <trkpt lat="42.9706135858" lon="-1.4059427194">
        <ele>756.69</ele>
        <time>2021-05-23T10:37:57Z</time>
      </trkpt>
      <trkpt lat="42.9705735203" lon="-1.4058498479">
        <ele>756.69</ele>
        <time>2021-05-23T10:37:58Z</time>
      </trkpt>
      <trkpt lat="42.9705273360" lon="-1.4057746623">
        <ele>756.69</ele>
        <time>2021-05-23T10:37:59Z</time>
      </trkpt>
      <trkpt lat="42.9704746138" lon="-1.4057091996">
        <ele>756.69</ele>
        <time>2021-05-23T10:38:00Z</time>
      </trkpt>
      <trkpt lat="42.9704189580" lon="-1.4056525379">
        <ele>756.69</ele>
        <time>2021-05-23T10:38:01Z</time>
      </trkpt>
      <trkpt lat="42.9703621287" lon="-1.4055990614">
        <ele>756.69</ele>
        <time>2021-05-23T10:38:02Z</time>
      </trkpt>
      <trkpt lat="42.9697112739" lon="-1.4049453568">
        <ele>759.58</ele>
        <time>2021-05-23T10:38:14Z</time>
      </trkpt>
      <trkpt lat="42.9689418152" lon="-1.4039360080">
        <ele>761.02</ele>
        <time>2021-05-23T10:38:33Z</time>
      </trkpt>
      <trkpt lat="42.9685960617" lon="-1.4033983927">
        <ele>761.98</ele>
        <time>2021-05-23T10:38:43Z</time>
      </trkpt>
      <trkpt lat="42.9685782921" lon="-1.4033514541">
        <ele>761.98</ele>
        <time>2021-05-23T10:38:44Z</time>
      </trkpt>
      <trkpt lat="42.9685160983" lon="-1.4031585865">
        <ele>763.42</ele>
        <time>2021-05-23T10:38:47Z</time>
      </trkpt>
      <trkpt lat="42.9684763681" lon="-1.4029504638">
        <ele>763.42</ele>
        <time>2021-05-23T10:38:50Z</time>
      </trkpt>
      <trkpt lat="42.9685582593" lon="-1.4018891472">
        <ele>764.87</ele>
        <time>2021-05-23T10:39:05Z</time>
      </trkpt>
      <trkpt lat="42.9688105546" lon="-1.4011931978">
        <ele>764.39</ele>
        <time>2021-05-23T10:39:16Z</time>
      </trkpt>
      <trkpt lat="42.9690820444" lon="-1.4008797146">
        <ele>764.39</ele>
        <time>2021-05-23T10:39:23Z</time>
      </trkpt>
      <trkpt lat="42.9697575420" lon="-1.4006414171">
        <ele>767.27</ele>
        <time>2021-05-23T10:39:39Z</time>
      </trkpt>
      <trkpt lat="42.9702315386" lon="-1.4007784612">
        <ele>770.15</ele>
        <time>2021-05-23T10:39:53Z</time>
      </trkpt>
      <trkpt lat="42.9706111550" lon="-1.4008796308">
        <ele>774.48</ele>
        <time>2021-05-23T10:40:06Z</time>
      </trkpt>
      <trkpt lat="42.9706420004" lon="-1.4008834027">
        <ele>774.48</ele>
        <time>2021-05-23T10:40:07Z</time>
      </trkpt>
      <trkpt lat="42.9711536318" lon="-1.4008915331">
        <ele>776.40</ele>
        <time>2021-05-23T10:40:24Z</time>
      </trkpt>
      <trkpt lat="42.9715872277" lon="-1.4008572511">
        <ele>779.29</ele>
        <time>2021-05-23T10:40:38Z</time>
      </trkpt>
      <trkpt lat="42.9720582068" lon="-1.4008658007">
        <ele>782.17</ele>
        <time>2021-05-23T10:40:52Z</time>
      </trkpt>
      <trkpt lat="42.9725438543" lon="-1.4007458556">
        <ele>785.05</ele>
        <time>2021-05-23T10:41:09Z</time>
      </trkpt>
      <trkpt lat="42.9728358798" lon="-1.4005167782">
        <ele>787.94</ele>
        <time>2021-05-23T10:41:21Z</time>
      </trkpt>
      <trkpt lat="42.9732820485" lon="-1.4002234116">
        <ele>791.30</ele>
        <time>2021-05-23T10:41:38Z</time>
      </trkpt>
      <trkpt lat="42.9737626668" lon="-1.3999777380">
        <ele>794.67</ele>
        <time>2021-05-23T10:41:55Z</time>
      </trkpt>
      <trkpt lat="42.9742863681" lon="-1.3997101877">
        <ele>798.03</ele>
        <time>2021-05-23T10:42:13Z</time>
      </trkpt>
      <trkpt lat="42.9744009487" lon="-1.3996731397">
        <ele>793.22</ele>
        <time>2021-05-23T10:42:17Z</time>
      </trkpt>
      <trkpt lat="42.9744271841" lon="-1.3996583875">
        <ele>801.88</ele>
        <time>2021-05-23T10:42:18Z</time>
      </trkpt>
      <trkpt lat="42.9744530004" lon="-1.3996380195">
        <ele>799.95</ele>
        <time>2021-05-23T10:42:19Z</time>
      </trkpt>
      <trkpt lat="42.9748327844" lon="-1.3992294017">
        <ele>802.36</ele>
        <time>2021-05-23T10:42:36Z</time>
      </trkpt>
      <trkpt lat="42.9752411507" lon="-1.3988668006">
        <ele>805.24</ele>
        <time>2021-05-23T10:42:53Z</time>
      </trkpt>
      <trkpt lat="42.9756335914" lon="-1.3985250704">
        <ele>808.13</ele>
        <time>2021-05-23T10:43:08Z</time>
      </trkpt>
      <trkpt lat="42.9760660976" lon="-1.3983332086">
        <ele>811.01</ele>
        <time>2021-05-23T10:43:23Z</time>
      </trkpt>
      <trkpt lat="42.9765140265" lon="-1.3985270821">
        <ele>813.89</ele>
        <time>2021-05-23T10:43:38Z</time>
      </trkpt>
      <trkpt lat="42.9766582791" lon="-1.3982975017">
        <ele>815.82</ele>
        <time>2021-05-23T10:43:47Z</time>
      </trkpt>
      <trkpt lat="42.9765168764" lon="-1.3977475651">
        <ele>818.70</ele>
        <time>2021-05-23T10:44:01Z</time>
      </trkpt>
      <trkpt lat="42.9766114242" lon="-1.3972498477">
        <ele>821.58</ele>
        <time>2021-05-23T10:44:15Z</time>
      </trkpt>
      <trkpt lat="42.9768280126" lon="-1.3968204428">
        <ele>824.47</ele>
        <time>2021-05-23T10:44:29Z</time>
      </trkpt>
      <trkpt lat="42.9771122430" lon="-1.3963228930">
        <ele>827.35</ele>
        <time>2021-05-23T10:44:45Z</time>
      </trkpt>
      <trkpt lat="42.9773172643" lon="-1.3958820887">
        <ele>830.72</ele>
        <time>2021-05-23T10:44:58Z</time>
      </trkpt>
      <trkpt lat="42.9774167575" lon="-1.3953165617">
        <ele>834.08</ele>
        <time>2021-05-23T10:45:12Z</time>
      </trkpt>
      <trkpt lat="42.9774212837" lon="-1.3947548065">
        <ele>836.96</ele>
        <time>2021-05-23T10:45:26Z</time>
      </trkpt>
      <trkpt lat="42.9773843195" lon="-1.3941549137">
        <ele>839.37</ele>
        <time>2021-05-23T10:45:41Z</time>
      </trkpt>
      <trkpt lat="42.9774249718" lon="-1.3937651552">
        <ele>842.73</ele>
        <time>2021-05-23T10:45:51Z</time>
      </trkpt>
      <trkpt lat="42.9775437433" lon="-1.3932785019">
        <ele>845.62</ele>
        <time>2021-05-23T10:46:04Z</time>
      </trkpt>
      <trkpt lat="42.9777311627" lon="-1.3926498592">
        <ele>848.98</ele>
        <time>2021-05-23T10:46:20Z</time>
      </trkpt>
      <trkpt lat="42.9779739026" lon="-1.3921963144">
        <ele>852.35</ele>
        <time>2021-05-23T10:46:34Z</time>
      </trkpt>
      <trkpt lat="42.9779504333" lon="-1.3917164505">
        <ele>854.75</ele>
        <time>2021-05-23T10:46:47Z</time>
      </trkpt>
      <trkpt lat="42.9777755029" lon="-1.3912402745">
        <ele>857.63</ele>
        <time>2021-05-23T10:47:00Z</time>
      </trkpt>
      <trkpt lat="42.9776820447" lon="-1.3906294852">
        <ele>861.00</ele>
        <time>2021-05-23T10:47:15Z</time>
      </trkpt>
      <trkpt lat="42.9776432365" lon="-1.3900954742">
        <ele>863.88</ele>
        <time>2021-05-23T10:47:29Z</time>
      </trkpt>
      <trkpt lat="42.9774785321" lon="-1.3895506505">
        <ele>866.77</ele>
        <time>2021-05-23T10:47:44Z</time>
      </trkpt>
      <trkpt lat="42.9773135763" lon="-1.3890323136">
        <ele>870.13</ele>
        <time>2021-05-23T10:47:59Z</time>
      </trkpt>
      <trkpt lat="42.9770702496" lon="-1.3888151385">
        <ele>872.53</ele>
        <time>2021-05-23T10:48:09Z</time>
      </trkpt>
      <trkpt lat="42.9770424217" lon="-1.3888113666">
        <ele>872.53</ele>
        <time>2021-05-23T10:48:10Z</time>
      </trkpt>
      <trkpt lat="42.9770149291" lon="-1.3888084330">
        <ele>873.01</ele>
        <time>2021-05-23T10:48:11Z</time>
      </trkpt>
      <trkpt lat="42.9769884422" lon="-1.3888044935">
        <ele>873.01</ele>
        <time>2021-05-23T10:48:12Z</time>
      </trkpt>
      <trkpt lat="42.9769608658" lon="-1.3887956925">
        <ele>873.01</ele>
        <time>2021-05-23T10:48:13Z</time>
      </trkpt>
      <trkpt lat="42.9765903018" lon="-1.3886094466">
        <ele>875.90</ele>
        <time>2021-05-23T10:48:27Z</time>
      </trkpt>
      <trkpt lat="42.9762694426" lon="-1.3882959634">
        <ele>879.26</ele>
        <time>2021-05-23T10:48:41Z</time>
      </trkpt>
      <trkpt lat="42.9760252777" lon="-1.3877688255">
        <ele>882.15</ele>
        <time>2021-05-23T10:48:57Z</time>
      </trkpt>
      <trkpt lat="42.9757981282" lon="-1.3871719502">
        <ele>885.51</ele>
        <time>2021-05-23T10:49:12Z</time>
      </trkpt>
      <trkpt lat="42.9758902453" lon="-1.3869706169">
        <ele>886.47</ele>
        <time>2021-05-23T10:49:19Z</time>
      </trkpt>
      <trkpt lat="42.9759179056" lon="-1.3869746402">
        <ele>886.47</ele>
        <time>2021-05-23T10:49:20Z</time>
      </trkpt>
      <trkpt lat="42.9759458173" lon="-1.3869883027">
        <ele>886.95</ele>
        <time>2021-05-23T10:49:21Z</time>
      </trkpt>
      <trkpt lat="42.9759721365" lon="-1.3870078325">
        <ele>886.95</ele>
        <time>2021-05-23T10:49:22Z</time>
      </trkpt>
      <trkpt lat="42.9759976175" lon="-1.3870283682">
        <ele>886.95</ele>
        <time>2021-05-23T10:49:23Z</time>
      </trkpt>
      <trkpt lat="42.9764390085" lon="-1.3873563521">
        <ele>889.36</ele>
        <time>2021-05-23T10:49:38Z</time>
      </trkpt>
      <trkpt lat="42.9769313615" lon="-1.3873233274">
        <ele>892.72</ele>
        <time>2021-05-23T10:49:52Z</time>
      </trkpt>
      <trkpt lat="42.9773788713" lon="-1.3872268517">
        <ele>896.09</ele>
        <time>2021-05-23T10:50:06Z</time>
      </trkpt>
      <trkpt lat="42.9777389579" lon="-1.3872847706">
        <ele>898.97</ele>
        <time>2021-05-23T10:50:19Z</time>
      </trkpt>
      <trkpt lat="42.9779997189" lon="-1.3874966651">
        <ele>901.85</ele>
        <time>2021-05-23T10:50:31Z</time>
      </trkpt>
      <trkpt lat="42.9783654213" lon="-1.3879879285">
        <ele>904.74</ele>
        <time>2021-05-23T10:50:50Z</time>
      </trkpt>
      <trkpt lat="42.9787641484" lon="-1.3880103081">
        <ele>907.62</ele>
        <time>2021-05-23T10:51:05Z</time>
      </trkpt>
      <trkpt lat="42.9790645558" lon="-1.3879367150">
        <ele>910.03</ele>
        <time>2021-05-23T10:51:17Z</time>
      </trkpt>
      <trkpt lat="42.9794185236" lon="-1.3878290076">
        <ele>913.39</ele>
        <time>2021-05-23T10:51:31Z</time>
      </trkpt>
      <trkpt lat="42.9798320867" lon="-1.3878267445">
        <ele>915.31</ele>
        <time>2021-05-23T10:51:46Z</time>
      </trkpt>
      <trkpt lat="42.9800319951" lon="-1.3877511397">
        <ele>916.27</ele>
        <time>2021-05-23T10:51:53Z</time>
      </trkpt>
      <trkpt lat="42.9800482560" lon="-1.3877167739">
        <ele>916.27</ele>
        <time>2021-05-23T10:51:54Z</time>
      </trkpt>
      <trkpt lat="42.9800630081" lon="-1.3876793906">
        <ele>916.75</ele>
        <time>2021-05-23T10:51:55Z</time>
      </trkpt>
      <trkpt lat="42.9800674506" lon="-1.3876420911">
        <ele>916.75</ele>
        <time>2021-05-23T10:51:56Z</time>
      </trkpt>
      <trkpt lat="42.9800618347" lon="-1.3876093179">
        <ele>917.72</ele>
        <time>2021-05-23T10:51:57Z</time>
      </trkpt>
      <trkpt lat="42.9800487589" lon="-1.3875838369">
        <ele>917.72</ele>
        <time>2021-05-23T10:51:58Z</time>
      </trkpt>
      <trkpt lat="42.9800335877" lon="-1.3875601161">
        <ele>918.20</ele>
        <time>2021-05-23T10:51:59Z</time>
      </trkpt>
      <trkpt lat="42.9797755927" lon="-1.3872754667">
        <ele>921.08</ele>
        <time>2021-05-23T10:52:13Z</time>
      </trkpt>
      <trkpt lat="42.9797507823" lon="-1.3868222572">
        <ele>923.00</ele>
        <time>2021-05-23T10:52:27Z</time>
      </trkpt>
      <trkpt lat="42.9797773529" lon="-1.3866179064">
        <ele>923.96</ele>
        <time>2021-05-23T10:52:41Z</time>
      </trkpt>
      <trkpt lat="42.9797456693" lon="-1.3866507635">
        <ele>923.96</ele>
        <time>2021-05-23T10:52:55Z</time>
      </trkpt>
      <trkpt lat="42.9797386285" lon="-1.3866769988">
        <ele>923.96</ele>
        <time>2021-05-23T10:52:59Z</time>
      </trkpt>
      <trkpt lat="42.9797454178" lon="-1.3867122866">
        <ele>923.96</ele>
        <time>2021-05-23T10:53:01Z</time>
      </trkpt>
      <trkpt lat="42.9797596671" lon="-1.3867246918">
        <ele>923.96</ele>
        <time>2021-05-23T10:53:02Z</time>
      </trkpt>
      <trkpt lat="42.9797715694" lon="-1.3867220096">
        <ele>923.96</ele>
        <time>2021-05-23T10:53:03Z</time>
      </trkpt>
      <trkpt lat="42.9797861539" lon="-1.3867116999">
        <ele>923.96</ele>
        <time>2021-05-23T10:53:04Z</time>
      </trkpt>
      <trkpt lat="42.9797966313" lon="-1.3866987079">
        <ele>923.96</ele>
        <time>2021-05-23T10:53:05Z</time>
      </trkpt>
      <trkpt lat="42.9798095394" lon="-1.3866775017">
        <ele>923.96</ele>
        <time>2021-05-23T10:53:06Z</time>
      </trkpt>
      <trkpt lat="42.9800573085" lon="-1.3863736577">
        <ele>924.45</ele>
        <time>2021-05-23T10:53:19Z</time>
      </trkpt>
      <trkpt lat="42.9801003076" lon="-1.3863537088">
        <ele>923.00</ele>
        <time>2021-05-23T10:53:20Z</time>
      </trkpt>
      <trkpt lat="42.9801485874" lon="-1.3863391243">
        <ele>923.00</ele>
        <time>2021-05-23T10:53:21Z</time>
      </trkpt>
      <trkpt lat="42.9802006390" lon="-1.3863283955">
        <ele>922.52</ele>
        <time>2021-05-23T10:53:22Z</time>
      </trkpt>
      <trkpt lat="42.9802569654" lon="-1.3863228634">
        <ele>922.52</ele>
        <time>2021-05-23T10:53:23Z</time>
      </trkpt>
      <trkpt lat="42.9803101067" lon="-1.3863252103">
        <ele>922.04</ele>
        <time>2021-05-23T10:53:24Z</time>
      </trkpt>
      <trkpt lat="42.9803668521" lon="-1.3863345142">
        <ele>922.04</ele>
        <time>2021-05-23T10:53:25Z</time>
      </trkpt>
      <trkpt lat="42.9804256093" lon="-1.3863476738">
        <ele>922.04</ele>
        <time>2021-05-23T10:53:26Z</time>
      </trkpt>
      <trkpt lat="42.9808447044" lon="-1.3864526991">
        <ele>920.12</ele>
        <time>2021-05-23T10:53:32Z</time>
      </trkpt>
      <trkpt lat="42.9809223209" lon="-1.3864604104">
        <ele>919.64</ele>
        <time>2021-05-23T10:53:33Z</time>
      </trkpt>
      <trkpt lat="42.9810022842" lon="-1.3864564709">
        <ele>919.64</ele>
        <time>2021-05-23T10:53:34Z</time>
      </trkpt>
      <trkpt lat="42.9816210363" lon="-1.3863699697">
        <ele>916.27</ele>
        <time>2021-05-23T10:53:42Z</time>
      </trkpt>
      <trkpt lat="42.9816757701" lon="-1.3863465842">
        <ele>916.27</ele>
        <time>2021-05-23T10:53:43Z</time>
      </trkpt>
      <trkpt lat="42.9817149974" lon="-1.3862920180">
        <ele>915.79</ele>
        <time>2021-05-23T10:53:44Z</time>
      </trkpt>
      <trkpt lat="42.9817288276" lon="-1.3862168323">
        <ele>914.83</ele>
        <time>2021-05-23T10:53:45Z</time>
      </trkpt>
      <trkpt lat="42.9817041010" lon="-1.3861521240">
        <ele>914.35</ele>
        <time>2021-05-23T10:53:46Z</time>
      </trkpt>
      <trkpt lat="42.9816481937" lon="-1.3861238770">
        <ele>914.35</ele>
        <time>2021-05-23T10:53:47Z</time>
      </trkpt>
      <trkpt lat="42.9815779533" lon="-1.3861153275">
        <ele>913.39</ele>
        <time>2021-05-23T10:53:48Z</time>
      </trkpt>
      <trkpt lat="42.9813585151" lon="-1.3860620186">
        <ele>911.95</ele>
        <time>2021-05-23T10:53:51Z</time>
      </trkpt>
      <trkpt lat="42.9812845867" lon="-1.3860277366">
        <ele>911.95</ele>
        <time>2021-05-23T10:53:52Z</time>
      </trkpt>
      <trkpt lat="42.9812125023" lon="-1.3859822229">
        <ele>911.47</ele>
        <time>2021-05-23T10:53:53Z</time>
      </trkpt>
      <trkpt lat="42.9807579517" lon="-1.3856241480">
        <ele>908.10</ele>
        <time>2021-05-23T10:53:59Z</time>
      </trkpt>
      <trkpt lat="42.9806882143" lon="-1.3855358865">
        <ele>907.62</ele>
        <time>2021-05-23T10:54:00Z</time>
      </trkpt>
      <trkpt lat="42.9806383420" lon="-1.3854241557">
        <ele>907.62</ele>
        <time>2021-05-23T10:54:01Z</time>
      </trkpt>
      <trkpt lat="42.9806133639" lon="-1.3852990139">
        <ele>906.66</ele>
        <time>2021-05-23T10:54:02Z</time>
      </trkpt>
      <trkpt lat="42.9806157947" lon="-1.3851675857">
        <ele>906.66</ele>
        <time>2021-05-23T10:54:03Z</time>
      </trkpt>
      <trkpt lat="42.9806463886" lon="-1.3850400969">
        <ele>906.18</ele>
        <time>2021-05-23T10:54:04Z</time>
      </trkpt>
      <trkpt lat="42.9806970991" lon="-1.3849257678">
        <ele>905.22</ele>
        <time>2021-05-23T10:54:05Z</time>
      </trkpt>
      <trkpt lat="42.9807613883" lon="-1.3848249335">
        <ele>905.22</ele>
        <time>2021-05-23T10:54:06Z</time>
      </trkpt>
      <trkpt lat="42.9808339756" lon="-1.3847345766">
        <ele>904.26</ele>
        <time>2021-05-23T10:54:07Z</time>
      </trkpt>
      <trkpt lat="42.9809094127" lon="-1.3846492488">
        <ele>903.78</ele>
        <time>2021-05-23T10:54:08Z</time>
      </trkpt>
      <trkpt lat="42.9813214671" lon="-1.3841097895">
        <ele>900.89</ele>
        <time>2021-05-23T10:54:14Z</time>
      </trkpt>
      <trkpt lat="42.9815775342" lon="-1.3835524768">
        <ele>897.53</ele>
        <time>2021-05-23T10:54:19Z</time>
      </trkpt>
      <trkpt lat="42.9818968847" lon="-1.3827221654">
        <ele>893.68</ele>
        <time>2021-05-23T10:54:26Z</time>
      </trkpt>
      <trkpt lat="42.9819261376" lon="-1.3825888932">
        <ele>893.20</ele>
        <time>2021-05-23T10:54:27Z</time>
      </trkpt>
      <trkpt lat="42.9819460865" lon="-1.3824555371">
        <ele>893.20</ele>
        <time>2021-05-23T10:54:28Z</time>
      </trkpt>
      <trkpt lat="42.9819527082" lon="-1.3823201694">
        <ele>892.24</ele>
        <time>2021-05-23T10:54:29Z</time>
      </trkpt>
      <trkpt lat="42.9819393810" lon="-1.3821819518">
        <ele>891.76</ele>
        <time>2021-05-23T10:54:30Z</time>
      </trkpt>
      <trkpt lat="42.9819112178" lon="-1.3820414711">
        <ele>890.80</ele>
        <time>2021-05-23T10:54:31Z</time>
      </trkpt>
      <trkpt lat="42.9818729125" lon="-1.3819102105">
        <ele>890.32</ele>
        <time>2021-05-23T10:54:32Z</time>
      </trkpt>
      <trkpt lat="42.9818266444" lon="-1.3817833085">
        <ele>889.36</ele>
        <time>2021-05-23T10:54:33Z</time>
      </trkpt>
      <trkpt lat="42.9817741737" lon="-1.3816580828">
        <ele>888.88</ele>
        <time>2021-05-23T10:54:34Z</time>
      </trkpt>
      <trkpt lat="42.9817174282" lon="-1.3815303426">
        <ele>887.91</ele>
        <time>2021-05-23T10:54:35Z</time>
      </trkpt>
      <trkpt lat="42.9815785401" lon="-1.3811513968">
        <ele>885.99</ele>
        <time>2021-05-23T10:54:38Z</time>
      </trkpt>
      <trkpt lat="42.9815609381" lon="-1.3810053840">
        <ele>885.51</ele>
        <time>2021-05-23T10:54:39Z</time>
      </trkpt>
      <trkpt lat="42.9815957230" lon="-1.3798260503">
        <ele>881.67</ele>
        <time>2021-05-23T10:54:47Z</time>
      </trkpt>
      <trkpt lat="42.9817010835" lon="-1.3792390656">
        <ele>878.78</ele>
        <time>2021-05-23T10:54:51Z</time>
      </trkpt>
      <trkpt lat="42.9817492794" lon="-1.3789658155">
        <ele>877.82</ele>
        <time>2021-05-23T10:54:53Z</time>
      </trkpt>
      <trkpt lat="42.9818262253" lon="-1.3776517007">
        <ele>877.34</ele>
        <time>2021-05-23T10:55:04Z</time>
      </trkpt>
      <trkpt lat="42.9819490202" lon="-1.3762772363">
        <ele>875.90</ele>
        <time>2021-05-23T10:55:18Z</time>
      </trkpt>
      <trkpt lat="42.9820031673" lon="-1.3759632502">
        <ele>874.94</ele>
        <time>2021-05-23T10:55:21Z</time>
      </trkpt>
      <trkpt lat="42.9820107948" lon="-1.3758535311">
        <ele>873.98</ele>
        <time>2021-05-23T10:55:22Z</time>
      </trkpt>
      <trkpt lat="42.9820114654" lon="-1.3757397886">
        <ele>873.50</ele>
        <time>2021-05-23T10:55:23Z</time>
      </trkpt>
      <trkpt lat="42.9820053466" lon="-1.3756246213">
        <ele>873.50</ele>
        <time>2021-05-23T10:55:24Z</time>
      </trkpt>
      <trkpt lat="42.9819880798" lon="-1.3755052630">
        <ele>872.53</ele>
        <time>2021-05-23T10:55:25Z</time>
      </trkpt>
      <trkpt lat="42.9819600005" lon="-1.3753852341">
        <ele>872.05</ele>
        <time>2021-05-23T10:55:26Z</time>
      </trkpt>
      <trkpt lat="42.9819241259" lon="-1.3752745092">
        <ele>872.05</ele>
        <time>2021-05-23T10:55:27Z</time>
      </trkpt>
      <trkpt lat="42.9818815459" lon="-1.3751703221">
        <ele>871.57</ele>
        <time>2021-05-23T10:55:28Z</time>
      </trkpt>
      <trkpt lat="42.9818321764" lon="-1.3750678115">
        <ele>871.57</ele>
        <time>2021-05-23T10:55:29Z</time>
      </trkpt>
      <trkpt lat="42.9817797896" lon="-1.3749786280">
        <ele>871.57</ele>
        <time>2021-05-23T10:55:30Z</time>
      </trkpt>
      <trkpt lat="42.9817206971" lon="-1.3748989999">
        <ele>871.57</ele>
        <time>2021-05-23T10:55:31Z</time>
      </trkpt>
      <trkpt lat="42.9816559888" lon="-1.3748274185">
        <ele>871.57</ele>
        <time>2021-05-23T10:55:32Z</time>
      </trkpt>
      <trkpt lat="42.9815932922" lon="-1.3747656438">
        <ele>871.57</ele>
        <time>2021-05-23T10:55:33Z</time>
      </trkpt>
      <trkpt lat="42.9808561876" lon="-1.3740794174">
        <ele>872.53</ele>
        <time>2021-05-23T10:55:46Z</time>
      </trkpt>
      <trkpt lat="42.9803705402" lon="-1.3736270461">
        <ele>874.46</ele>
        <time>2021-05-23T10:55:56Z</time>
      </trkpt>
      <trkpt lat="42.9803242721" lon="-1.3735708036">
        <ele>874.46</ele>
        <time>2021-05-23T10:55:57Z</time>
      </trkpt>
      <trkpt lat="42.9802874755" lon="-1.3735183328">
        <ele>874.94</ele>
        <time>2021-05-23T10:55:58Z</time>
      </trkpt>
      <trkpt lat="42.9801862221" lon="-1.3733376190">
        <ele>875.42</ele>
        <time>2021-05-23T10:56:01Z</time>
      </trkpt>
      <trkpt lat="42.9801165685" lon="-1.3731597550">
        <ele>876.38</ele>
        <time>2021-05-23T10:56:04Z</time>
      </trkpt>
      <trkpt lat="42.9798843060" lon="-1.3724120893">
        <ele>874.94</ele>
        <time>2021-05-23T10:56:15Z</time>
      </trkpt>
      <trkpt lat="42.9795746785" lon="-1.3713209331">
        <ele>871.57</ele>
        <time>2021-05-23T10:56:27Z</time>
      </trkpt>
      <trkpt lat="42.9793611076" lon="-1.3705652207">
        <ele>870.13</ele>
        <time>2021-05-23T10:56:35Z</time>
      </trkpt>
      <trkpt lat="42.9793343693" lon="-1.3704706728">
        <ele>870.13</ele>
        <time>2021-05-23T10:56:36Z</time>
      </trkpt>
      <trkpt lat="42.9790804815" lon="-1.3694510981">
        <ele>869.17</ele>
        <time>2021-05-23T10:56:49Z</time>
      </trkpt>
      <trkpt lat="42.9788298625" lon="-1.3682532404">
        <ele>870.61</ele>
        <time>2021-05-23T10:57:05Z</time>
      </trkpt>
      <trkpt lat="42.9787279386" lon="-1.3672127947">
        <ele>871.57</ele>
        <time>2021-05-23T10:57:19Z</time>
      </trkpt>
      <trkpt lat="42.9787012842" lon="-1.3669672050">
        <ele>873.50</ele>
        <time>2021-05-23T10:57:23Z</time>
      </trkpt>
      <trkpt lat="42.9785628151" lon="-1.3661772944">
        <ele>876.38</ele>
        <time>2021-05-23T10:57:37Z</time>
      </trkpt>
      <trkpt lat="42.9783895612" lon="-1.3653908204">
        <ele>877.82</ele>
        <time>2021-05-23T10:57:51Z</time>
      </trkpt>
      <trkpt lat="42.9782949295" lon="-1.3651019800">
        <ele>876.86</ele>
        <time>2021-05-23T10:57:55Z</time>
      </trkpt>
      <trkpt lat="42.9778898321" lon="-1.3640924636">
        <ele>873.50</ele>
        <time>2021-05-23T10:58:06Z</time>
      </trkpt>
      <trkpt lat="42.9775719903" lon="-1.3633229211">
        <ele>870.13</ele>
        <time>2021-05-23T10:58:13Z</time>
      </trkpt>
      <trkpt lat="42.9773226287" lon="-1.3627315778">
        <ele>866.77</ele>
        <time>2021-05-23T10:58:18Z</time>
      </trkpt>
      <trkpt lat="42.9771656357" lon="-1.3623535540">
        <ele>863.88</ele>
        <time>2021-05-23T10:58:21Z</time>
      </trkpt>
      <trkpt lat="42.9769500531" lon="-1.3618358877">
        <ele>860.04</ele>
        <time>2021-05-23T10:58:25Z</time>
      </trkpt>
      <trkpt lat="42.9767296929" lon="-1.3613036368">
        <ele>857.15</ele>
        <time>2021-05-23T10:58:29Z</time>
      </trkpt>
      <trkpt lat="42.9765644018" lon="-1.3609166443">
        <ele>855.71</ele>
        <time>2021-05-23T10:58:32Z</time>
      </trkpt>
      <trkpt lat="42.9760380182" lon="-1.3596468698">
        <ele>858.11</ele>
        <time>2021-05-23T10:58:44Z</time>
      </trkpt>
      <trkpt lat="42.9756361898" lon="-1.3587156404">
        <ele>861.00</ele>
        <time>2021-05-23T10:58:57Z</time>
      </trkpt>
      <trkpt lat="42.9753501993" lon="-1.3580750115">
        <ele>864.36</ele>
        <time>2021-05-23T10:59:11Z</time>
      </trkpt>
      <trkpt lat="42.9750651307" lon="-1.3574659824">
        <ele>867.25</ele>
        <time>2021-05-23T10:59:26Z</time>
      </trkpt>
      <trkpt lat="42.9748859257" lon="-1.3571894635">
        <ele>869.17</ele>
        <time>2021-05-23T10:59:34Z</time>
      </trkpt>
      <trkpt lat="42.9748406634" lon="-1.3571322989">
        <ele>870.13</ele>
        <time>2021-05-23T10:59:36Z</time>
      </trkpt>
      <trkpt lat="42.9747897014" lon="-1.3570665848">
        <ele>868.69</ele>
        <time>2021-05-23T10:59:38Z</time>
      </trkpt>
      <trkpt lat="42.9747500550" lon="-1.3570089173">
        <ele>870.13</ele>
        <time>2021-05-23T10:59:40Z</time>
      </trkpt>
      <trkpt lat="42.9743943270" lon="-1.3565303106">
        <ele>873.50</ele>
        <time>2021-05-23T10:59:56Z</time>
      </trkpt>
      <trkpt lat="42.9741245974" lon="-1.3561565615">
        <ele>876.38</ele>
        <time>2021-05-23T11:00:09Z</time>
      </trkpt>
      <trkpt lat="42.9738344159" lon="-1.3557628635">
        <ele>879.74</ele>
        <time>2021-05-23T11:00:24Z</time>
      </trkpt>
      <trkpt lat="42.9735084437" lon="-1.3554194570">
        <ele>881.19</ele>
        <time>2021-05-23T11:00:38Z</time>
      </trkpt>
      <trkpt lat="42.9731637798" lon="-1.3550331350">
        <ele>882.15</ele>
        <time>2021-05-23T11:00:51Z</time>
      </trkpt>
      <trkpt lat="42.9727652203" lon="-1.3543334138">
        <ele>880.22</ele>
        <time>2021-05-23T11:01:03Z</time>
      </trkpt>
      <trkpt lat="42.9726448562" lon="-1.3540973794">
        <ele>879.74</ele>
        <time>2021-05-23T11:01:06Z</time>
      </trkpt>
      <trkpt lat="42.9726150166" lon="-1.3540035859">
        <ele>879.26</ele>
        <time>2021-05-23T11:01:07Z</time>
      </trkpt>
      <trkpt lat="42.9725933075" lon="-1.3539041765">
        <ele>879.26</ele>
        <time>2021-05-23T11:01:08Z</time>
      </trkpt>
      <trkpt lat="42.9725830816" lon="-1.3538007438">
        <ele>878.78</ele>
        <time>2021-05-23T11:01:09Z</time>
      </trkpt>
      <trkpt lat="42.9725837521" lon="-1.3536969759">
        <ele>878.30</ele>
        <time>2021-05-23T11:01:10Z</time>
      </trkpt>
      <trkpt lat="42.9725994263" lon="-1.3535979856">
        <ele>878.30</ele>
        <time>2021-05-23T11:01:11Z</time>
      </trkpt>
      <trkpt lat="42.9726274218" lon="-1.3534970675">
        <ele>876.86</ele>
        <time>2021-05-23T11:01:12Z</time>
      </trkpt>
      <trkpt lat="42.9726680741" lon="-1.3534011785">
        <ele>876.86</ele>
        <time>2021-05-23T11:01:13Z</time>
      </trkpt>
      <trkpt lat="42.9727195390" lon="-1.3533165213">
        <ele>876.86</ele>
        <time>2021-05-23T11:01:14Z</time>
      </trkpt>
      <trkpt lat="42.9727796372" lon="-1.3532368932">
        <ele>875.90</ele>
        <time>2021-05-23T11:01:15Z</time>
      </trkpt>
      <trkpt lat="42.9728466086" lon="-1.3531596959">
        <ele>875.90</ele>
        <time>2021-05-23T11:01:16Z</time>
      </trkpt>
      <trkpt lat="42.9734930210" lon="-1.3524556160">
        <ele>872.53</ele>
        <time>2021-05-23T11:01:25Z</time>
      </trkpt>
      <trkpt lat="42.9741606396" lon="-1.3517329283">
        <ele>873.50</ele>
        <time>2021-05-23T11:01:37Z</time>
      </trkpt>
      <trkpt lat="42.9747966584" lon="-1.3510379009">
        <ele>873.50</ele>
        <time>2021-05-23T11:01:52Z</time>
      </trkpt>
      <trkpt lat="42.9758722242" lon="-1.3498471677">
        <ele>873.50</ele>
        <time>2021-05-23T11:02:15Z</time>
      </trkpt>
      <trkpt lat="42.9767875280" lon="-1.3487934787">
        <ele>873.01</ele>
        <time>2021-05-23T11:02:34Z</time>
      </trkpt>
      <trkpt lat="42.9769967403" lon="-1.3485396747">
        <ele>873.01</ele>
        <time>2021-05-23T11:02:39Z</time>
      </trkpt>
      <trkpt lat="42.9776937794" lon="-1.3478393666">
        <ele>875.42</ele>
        <time>2021-05-23T11:02:56Z</time>
      </trkpt>
      <trkpt lat="42.9784179758" lon="-1.3470559940">
        <ele>878.30</ele>
        <time>2021-05-23T11:03:15Z</time>
      </trkpt>
      <trkpt lat="42.9784634057" lon="-1.3470055349">
        <ele>878.78</ele>
        <time>2021-05-23T11:03:16Z</time>
      </trkpt>
      <trkpt lat="42.9790001828" lon="-1.3464177959">
        <ele>880.71</ele>
        <time>2021-05-23T11:03:31Z</time>
      </trkpt>
      <trkpt lat="42.9796964675" lon="-1.3456547074">
        <ele>881.19</ele>
        <time>2021-05-23T11:03:49Z</time>
      </trkpt>
      <trkpt lat="42.9797351919" lon="-1.3456135523">
        <ele>884.55</ele>
        <time>2021-05-23T11:03:50Z</time>
      </trkpt>
      <trkpt lat="42.9797744192" lon="-1.3455697987">
        <ele>884.55</ele>
        <time>2021-05-23T11:03:51Z</time>
      </trkpt>
      <trkpt lat="42.9805349931" lon="-1.3447463606">
        <ele>885.99</ele>
        <time>2021-05-23T11:04:10Z</time>
      </trkpt>
      <trkpt lat="42.9813546594" lon="-1.3438334875">
        <ele>888.88</ele>
        <time>2021-05-23T11:04:31Z</time>
      </trkpt>
      <trkpt lat="42.9818623513" lon="-1.3432309963">
        <ele>887.43</ele>
        <time>2021-05-23T11:04:42Z</time>
      </trkpt>
      <trkpt lat="42.9827093426" lon="-1.3421992678">
        <ele>884.55</ele>
        <time>2021-05-23T11:04:57Z</time>
      </trkpt>
      <trkpt lat="42.9838221241" lon="-1.3408470154">
        <ele>883.59</ele>
        <time>2021-05-23T11:05:19Z</time>
      </trkpt>
      <trkpt lat="42.9846106935" lon="-1.3398853596">
        <ele>885.51</ele>
        <time>2021-05-23T11:05:38Z</time>
      </trkpt>
      <trkpt lat="42.9851502366" lon="-1.3392096944">
        <ele>888.40</ele>
        <time>2021-05-23T11:05:52Z</time>
      </trkpt>
      <trkpt lat="42.9852203932" lon="-1.3391255401">
        <ele>888.88</ele>
        <time>2021-05-23T11:05:54Z</time>
      </trkpt>
      <trkpt lat="42.9852541722" lon="-1.3390806969">
        <ele>888.88</ele>
        <time>2021-05-23T11:05:55Z</time>
      </trkpt>
      <trkpt lat="42.9859250598" lon="-1.3382657245">
        <ele>890.80</ele>
        <time>2021-05-23T11:06:14Z</time>
      </trkpt>
      <trkpt lat="42.9865944386" lon="-1.3374270312">
        <ele>892.72</ele>
        <time>2021-05-23T11:06:34Z</time>
      </trkpt>
      <trkpt lat="42.9873377457" lon="-1.3369659428">
        <ele>894.16</ele>
        <time>2021-05-23T11:06:51Z</time>
      </trkpt>
      <trkpt lat="42.9881185200" lon="-1.3365473505">
        <ele>895.12</ele>
        <time>2021-05-23T11:07:09Z</time>
      </trkpt>
      <trkpt lat="42.9883760121" lon="-1.3364325184">
        <ele>895.61</ele>
        <time>2021-05-23T11:07:15Z</time>
      </trkpt>
      <trkpt lat="42.9884226155" lon="-1.3364104740">
        <ele>896.09</ele>
        <time>2021-05-23T11:07:16Z</time>
      </trkpt>
      <trkpt lat="42.9884651955" lon="-1.3363900222">
        <ele>896.09</ele>
        <time>2021-05-23T11:07:17Z</time>
      </trkpt>
      <trkpt lat="42.9885075241" lon="-1.3363703247">
        <ele>896.57</ele>
        <time>2021-05-23T11:07:18Z</time>
      </trkpt>
      <trkpt lat="42.9885486793" lon="-1.3363476098">
        <ele>896.57</ele>
        <time>2021-05-23T11:07:19Z</time>
      </trkpt>
      <trkpt lat="42.9885916784" lon="-1.3363219611">
        <ele>896.57</ele>
        <time>2021-05-23T11:07:20Z</time>
      </trkpt>
      <trkpt lat="42.9891609773" lon="-1.3359318674">
        <ele>897.53</ele>
        <time>2021-05-23T11:07:35Z</time>
      </trkpt>
      <trkpt lat="42.9894561041" lon="-1.3357459567">
        <ele>899.45</ele>
        <time>2021-05-23T11:07:44Z</time>
      </trkpt>
      <trkpt lat="42.9894903861" lon="-1.3357203919">
        <ele>899.45</ele>
        <time>2021-05-23T11:07:45Z</time>
      </trkpt>
      <trkpt lat="42.9901245609" lon="-1.3352546934">
        <ele>900.89</ele>
        <time>2021-05-23T11:08:02Z</time>
      </trkpt>
      <trkpt lat="42.9905948695" lon="-1.3348469976">
        <ele>901.85</ele>
        <time>2021-05-23T11:08:14Z</time>
      </trkpt>
      <trkpt lat="42.9906325042" lon="-1.3348057587">
        <ele>901.85</ele>
        <time>2021-05-23T11:08:15Z</time>
      </trkpt>
      <trkpt lat="42.9906742461" lon="-1.3347695488">
        <ele>901.85</ele>
        <time>2021-05-23T11:08:16Z</time>
      </trkpt>
      <trkpt lat="42.9907154012" lon="-1.3347325008">
        <ele>901.85</ele>
        <time>2021-05-23T11:08:17Z</time>
      </trkpt>
      <trkpt lat="42.9907546286" lon="-1.3346840534">
        <ele>901.85</ele>
        <time>2021-05-23T11:08:18Z</time>
      </trkpt>
      <trkpt lat="42.9907874018" lon="-1.3346370310">
        <ele>901.85</ele>
        <time>2021-05-23T11:08:19Z</time>
      </trkpt>
      <trkpt lat="42.9908195045" lon="-1.3345809560">
        <ele>901.85</ele>
        <time>2021-05-23T11:08:20Z</time>
      </trkpt>
      <trkpt lat="42.9913105164" lon="-1.3334968407">
        <ele>900.89</ele>
        <time>2021-05-23T11:08:36Z</time>
      </trkpt>
      <trkpt lat="42.9918897897" lon="-1.3321592566">
        <ele>900.41</ele>
        <time>2021-05-23T11:08:55Z</time>
      </trkpt>
      <trkpt lat="42.9922883492" lon="-1.3312588725">
        <ele>901.85</ele>
        <time>2021-05-23T11:09:09Z</time>
      </trkpt>
      <trkpt lat="42.9923918657" lon="-1.3310629036">
        <ele>902.82</ele>
        <time>2021-05-23T11:09:13Z</time>
      </trkpt>
      <trkpt lat="42.9924199451" lon="-1.3310255203">
        <ele>903.30</ele>
        <time>2021-05-23T11:09:14Z</time>
      </trkpt>
      <trkpt lat="42.9930497613" lon="-1.3303584047">
        <ele>906.18</ele>
        <time>2021-05-23T11:09:34Z</time>
      </trkpt>
      <trkpt lat="42.9935731273" lon="-1.3298283331">
        <ele>908.58</ele>
        <time>2021-05-23T11:09:51Z</time>
      </trkpt>
      <trkpt lat="42.9942424223" lon="-1.3291852735">
        <ele>910.03</ele>
        <time>2021-05-23T11:10:09Z</time>
      </trkpt>
      <trkpt lat="42.9950504377" lon="-1.3284028228">
        <ele>912.43</ele>
        <time>2021-05-23T11:10:29Z</time>
      </trkpt>
      <trkpt lat="42.9958143644" lon="-1.3276540674">
        <ele>914.35</ele>
        <time>2021-05-23T11:10:48Z</time>
      </trkpt>
      <trkpt lat="42.9965093080" lon="-1.3269765582">
        <ele>916.75</ele>
        <time>2021-05-23T11:11:05Z</time>
      </trkpt>
      <trkpt lat="42.9971320834" lon="-1.3263699599">
        <ele>917.72</ele>
        <time>2021-05-23T11:11:21Z</time>
      </trkpt>
      <trkpt lat="42.9973299801" lon="-1.3261797745">
        <ele>920.12</ele>
        <time>2021-05-23T11:11:26Z</time>
      </trkpt>
      <trkpt lat="42.9974086024" lon="-1.3260965422">
        <ele>918.68</ele>
        <time>2021-05-23T11:11:28Z</time>
      </trkpt>
      <trkpt lat="42.9978086706" lon="-1.3257007487">
        <ele>920.12</ele>
        <time>2021-05-23T11:11:38Z</time>
      </trkpt>
      <trkpt lat="42.9980483931" lon="-1.3254656363">
        <ele>920.60</ele>
        <time>2021-05-23T11:11:44Z</time>
      </trkpt>
      <trkpt lat="42.9985461943" lon="-1.3249878678">
        <ele>922.52</ele>
        <time>2021-05-23T11:11:57Z</time>
      </trkpt>
      <trkpt lat="42.9988303408" lon="-1.3247198984">
        <ele>923.00</ele>
        <time>2021-05-23T11:12:04Z</time>
      </trkpt>
      <trkpt lat="42.9988719989" lon="-1.3246839400">
        <ele>923.00</ele>
        <time>2021-05-23T11:12:05Z</time>
      </trkpt>
      <trkpt lat="42.9994744901" lon="-1.3240995537">
        <ele>924.93</ele>
        <time>2021-05-23T11:12:20Z</time>
      </trkpt>
      <trkpt lat="43.0000504106" lon="-1.3235556521">
        <ele>926.37</ele>
        <time>2021-05-23T11:12:35Z</time>
      </trkpt>
      <trkpt lat="43.0006651394" lon="-1.3229310326">
        <ele>927.81</ele>
        <time>2021-05-23T11:12:51Z</time>
      </trkpt>
      <trkpt lat="43.0013045110" lon="-1.3222880568">
        <ele>929.25</ele>
        <time>2021-05-23T11:13:08Z</time>
      </trkpt>
      <trkpt lat="43.0019684415" lon="-1.3216311671">
        <ele>931.17</ele>
        <time>2021-05-23T11:13:26Z</time>
      </trkpt>
      <trkpt lat="43.0026100762" lon="-1.3209871855">
        <ele>933.10</ele>
        <time>2021-05-23T11:13:43Z</time>
      </trkpt>
      <trkpt lat="43.0026478786" lon="-1.3209537417">
        <ele>933.58</ele>
        <time>2021-05-23T11:13:44Z</time>
      </trkpt>
      <trkpt lat="43.0033041816" lon="-1.3203478977">
        <ele>935.98</ele>
        <time>2021-05-23T11:14:01Z</time>
      </trkpt>
      <trkpt lat="43.0038511846" lon="-1.3198979571">
        <ele>936.46</ele>
        <time>2021-05-23T11:14:15Z</time>
      </trkpt>
      <trkpt lat="43.0045249220" lon="-1.3194521237">
        <ele>938.38</ele>
        <time>2021-05-23T11:14:30Z</time>
      </trkpt>
      <trkpt lat="43.0051990785" lon="-1.3192740921">
        <ele>939.35</ele>
        <time>2021-05-23T11:14:44Z</time>
      </trkpt>
      <trkpt lat="43.0057692993" lon="-1.3192198612">
        <ele>941.27</ele>
        <time>2021-05-23T11:14:57Z</time>
      </trkpt>
      <trkpt lat="43.0062992871" lon="-1.3192375470">
        <ele>942.71</ele>
        <time>2021-05-23T11:15:10Z</time>
      </trkpt>
      <trkpt lat="43.0069483817" lon="-1.3193036802">
        <ele>944.15</ele>
        <time>2021-05-23T11:15:25Z</time>
      </trkpt>
      <trkpt lat="43.0071264971" lon="-1.3193214498">
        <ele>944.15</ele>
        <time>2021-05-23T11:15:29Z</time>
      </trkpt>
      <trkpt lat="43.0071668979" lon="-1.3193222042">
        <ele>944.15</ele>
        <time>2021-05-23T11:15:30Z</time>
      </trkpt>
      <trkpt lat="43.0072069634" lon="-1.3193273172">
        <ele>944.63</ele>
        <time>2021-05-23T11:15:31Z</time>
      </trkpt>
      <trkpt lat="43.0072456039" lon="-1.3193360344">
        <ele>945.11</ele>
        <time>2021-05-23T11:15:32Z</time>
      </trkpt>
      <trkpt lat="43.0072844122" lon="-1.3193441648">
        <ele>945.11</ele>
        <time>2021-05-23T11:15:33Z</time>
      </trkpt>
      <trkpt lat="43.0073217954" lon="-1.3193487749">
        <ele>946.07</ele>
        <time>2021-05-23T11:15:34Z</time>
      </trkpt>
      <trkpt lat="43.0079967901" lon="-1.3194493577">
        <ele>948.48</ele>
        <time>2021-05-23T11:15:54Z</time>
      </trkpt>
      <trkpt lat="43.0083696172" lon="-1.3196177501">
        <ele>950.88</ele>
        <time>2021-05-23T11:16:07Z</time>
      </trkpt>
      <trkpt lat="43.0087991897" lon="-1.3199264556">
        <ele>954.25</ele>
        <time>2021-05-23T11:16:23Z</time>
      </trkpt>
      <trkpt lat="43.0091411714" lon="-1.3203118555">
        <ele>957.13</ele>
        <time>2021-05-23T11:16:39Z</time>
      </trkpt>
      <trkpt lat="43.0092717614" lon="-1.3208322879">
        <ele>960.01</ele>
        <time>2021-05-23T11:16:54Z</time>
      </trkpt>
      <trkpt lat="43.0092763714" lon="-1.3214138243">
        <ele>961.94</ele>
        <time>2021-05-23T11:17:09Z</time>
      </trkpt>
      <trkpt lat="43.0094692390" lon="-1.3220232725">
        <ele>965.78</ele>
        <time>2021-05-23T11:17:24Z</time>
      </trkpt>
      <trkpt lat="43.0095419940" lon="-1.3220855501">
        <ele>966.26</ele>
        <time>2021-05-23T11:17:27Z</time>
      </trkpt>
      <trkpt lat="43.0095606856" lon="-1.3220770005">
        <ele>966.74</ele>
        <time>2021-05-23T11:17:28Z</time>
      </trkpt>
      <trkpt lat="43.0095682293" lon="-1.3220176566">
        <ele>967.22</ele>
        <time>2021-05-23T11:17:30Z</time>
      </trkpt>
      <trkpt lat="43.0095586739" lon="-1.3219731487">
        <ele>968.18</ele>
        <time>2021-05-23T11:17:31Z</time>
      </trkpt>
      <trkpt lat="43.0095486995" lon="-1.3219352625">
        <ele>968.18</ele>
        <time>2021-05-23T11:17:32Z</time>
      </trkpt>
      <trkpt lat="43.0095355399" lon="-1.3212976512">
        <ele>969.63</ele>
        <time>2021-05-23T11:17:48Z</time>
      </trkpt>
      <trkpt lat="43.0098823830" lon="-1.3209641352">
        <ele>971.07</ele>
        <time>2021-05-23T11:18:01Z</time>
      </trkpt>
      <trkpt lat="43.0100216065" lon="-1.3208491355">
        <ele>971.07</ele>
        <time>2021-05-23T11:18:05Z</time>
      </trkpt>
      <trkpt lat="43.0100523680" lon="-1.3208100758">
        <ele>971.55</ele>
        <time>2021-05-23T11:18:06Z</time>
      </trkpt>
      <trkpt lat="43.0103033222" lon="-1.3201872166">
        <ele>973.47</ele>
        <time>2021-05-23T11:18:20Z</time>
      </trkpt>
      <trkpt lat="43.0106084235" lon="-1.3198583946">
        <ele>974.91</ele>
        <time>2021-05-23T11:18:32Z</time>
      </trkpt>
      <trkpt lat="43.0110188853" lon="-1.3196408842">
        <ele>978.28</ele>
        <time>2021-05-23T11:18:47Z</time>
      </trkpt>
      <trkpt lat="43.0112492200" lon="-1.3196487632">
        <ele>980.20</ele>
        <time>2021-05-23T11:18:57Z</time>
      </trkpt>
      <trkpt lat="43.0112754554" lon="-1.3196594920">
        <ele>980.20</ele>
        <time>2021-05-23T11:18:58Z</time>
      </trkpt>
      <trkpt lat="43.0112964101" lon="-1.3196634315">
        <ele>980.20</ele>
        <time>2021-05-23T11:18:59Z</time>
      </trkpt>
      <trkpt lat="43.0116389785" lon="-1.3197355159">
        <ele>982.60</ele>
        <time>2021-05-23T11:19:12Z</time>
      </trkpt>
      <trkpt lat="43.0120112188" lon="-1.3197377790">
        <ele>985.97</ele>
        <time>2021-05-23T11:19:25Z</time>
      </trkpt>
      <trkpt lat="43.0123349279" lon="-1.3196061831">
        <ele>988.85</ele>
        <time>2021-05-23T11:19:37Z</time>
      </trkpt>
      <trkpt lat="43.0125008058" lon="-1.3195620105">
        <ele>989.81</ele>
        <time>2021-05-23T11:19:44Z</time>
      </trkpt>
      <trkpt lat="43.0125130434" lon="-1.3195755892">
        <ele>989.81</ele>
        <time>2021-05-23T11:19:45Z</time>
      </trkpt>
      <trkpt lat="43.0125273764" lon="-1.3195839711">
        <ele>989.81</ele>
        <time>2021-05-23T11:19:46Z</time>
      </trkpt>
      <trkpt lat="43.0125587247" lon="-1.3195826299">
        <ele>990.30</ele>
        <time>2021-05-23T11:19:59Z</time>
      </trkpt>
      <trkpt lat="43.0125775002" lon="-1.3195900898">
        <ele>990.30</ele>
        <time>2021-05-23T11:20:25Z</time>
      </trkpt>
      <trkpt lat="43.0125791766" lon="-1.3196019083">
        <ele>990.30</ele>
        <time>2021-05-23T11:20:54Z</time>
      </trkpt>
      <trkpt lat="43.0125983711" lon="-1.3195757568">
        <ele>990.30</ele>
        <time>2021-05-23T11:21:17Z</time>
      </trkpt>
      <trkpt lat="43.0126065016" lon="-1.3195377868">
        <ele>990.30</ele>
        <time>2021-05-23T11:21:22Z</time>
      </trkpt>
      <trkpt lat="43.0126129556" lon="-1.3195202686">
        <ele>990.30</ele>
        <time>2021-05-23T11:21:23Z</time>
      </trkpt>
      <trkpt lat="43.0126204155" lon="-1.3194984756">
        <ele>990.78</ele>
        <time>2021-05-23T11:21:24Z</time>
      </trkpt>
      <trkpt lat="43.0126307253" lon="-1.3194802031">
        <ele>990.78</ele>
        <time>2021-05-23T11:21:25Z</time>
      </trkpt>
      <trkpt lat="43.0126435496" lon="-1.3194709830">
        <ele>990.78</ele>
        <time>2021-05-23T11:21:26Z</time>
      </trkpt>
      <trkpt lat="43.0126583017" lon="-1.3194646966">
        <ele>990.78</ele>
        <time>2021-05-23T11:21:27Z</time>
      </trkpt>
      <trkpt lat="43.0126726348" lon="-1.3194590807">
        <ele>990.78</ele>
        <time>2021-05-23T11:21:28Z</time>
      </trkpt>
      <trkpt lat="43.0129537638" lon="-1.3193898462">
        <ele>993.66</ele>
        <time>2021-05-23T11:21:40Z</time>
      </trkpt>
      <trkpt lat="43.0133021995" lon="-1.3193044346">
        <ele>995.58</ele>
        <time>2021-05-23T11:21:54Z</time>
      </trkpt>
      <trkpt lat="43.0136232264" lon="-1.3192573283">
        <ele>998.47</ele>
        <time>2021-05-23T11:22:08Z</time>
      </trkpt>
      <trkpt lat="43.0139673036" lon="-1.3192318473">
        <ele>1001.35</ele>
        <time>2021-05-23T11:22:21Z</time>
      </trkpt>
      <trkpt lat="43.0143314134" lon="-1.3192283269">
        <ele>1004.72</ele>
        <time>2021-05-23T11:22:36Z</time>
      </trkpt>
      <trkpt lat="43.0147414561" lon="-1.3194610085">
        <ele>1007.60</ele>
        <time>2021-05-23T11:22:54Z</time>
      </trkpt>
      <trkpt lat="43.0150121916" lon="-1.3197552133">
        <ele>1010.48</ele>
        <time>2021-05-23T11:23:08Z</time>
      </trkpt>
      <trkpt lat="43.0152514949" lon="-1.3200480770">
        <ele>1013.37</ele>
        <time>2021-05-23T11:23:21Z</time>
      </trkpt>
      <trkpt lat="43.0155467056" lon="-1.3204183895">
        <ele>1016.73</ele>
        <time>2021-05-23T11:23:38Z</time>
      </trkpt>
      <trkpt lat="43.0158172734" lon="-1.3207457028">
        <ele>1020.10</ele>
        <time>2021-05-23T11:23:54Z</time>
      </trkpt>
      <trkpt lat="43.0160773639" lon="-1.3211311027">
        <ele>1022.98</ele>
        <time>2021-05-23T11:24:10Z</time>
      </trkpt>
      <trkpt lat="43.0163429864" lon="-1.3217057660">
        <ele>1026.83</ele>
        <time>2021-05-23T11:24:30Z</time>
      </trkpt>
      <trkpt lat="43.0164939445" lon="-1.3222107757">
        <ele>1030.19</ele>
        <time>2021-05-23T11:24:45Z</time>
      </trkpt>
      <trkpt lat="43.0167341698" lon="-1.3226981834">
        <ele>1033.55</ele>
        <time>2021-05-23T11:25:01Z</time>
      </trkpt>
      <trkpt lat="43.0170391034" lon="-1.3229796477">
        <ele>1036.44</ele>
        <time>2021-05-23T11:25:16Z</time>
      </trkpt>
      <trkpt lat="43.0171026383" lon="-1.3230241556">
        <ele>1037.88</ele>
        <time>2021-05-23T11:25:19Z</time>
      </trkpt>
      <trkpt lat="43.0174187198" lon="-1.3232010975">
        <ele>1040.28</ele>
        <time>2021-05-23T11:25:33Z</time>
      </trkpt>
      <trkpt lat="43.0177893676" lon="-1.3233408239">
        <ele>1043.17</ele>
        <time>2021-05-23T11:25:48Z</time>
      </trkpt>
      <trkpt lat="43.0181646254" lon="-1.3233849127">
        <ele>1046.05</ele>
        <time>2021-05-23T11:26:03Z</time>
      </trkpt>
      <trkpt lat="43.0185322557" lon="-1.3234530576">
        <ele>1049.42</ele>
        <time>2021-05-23T11:26:19Z</time>
      </trkpt>
      <trkpt lat="43.0189632531" lon="-1.3235429954">
        <ele>1052.30</ele>
        <time>2021-05-23T11:26:35Z</time>
      </trkpt>
      <trkpt lat="43.0194158759" lon="-1.3236973062">
        <ele>1055.67</ele>
        <time>2021-05-23T11:26:53Z</time>
      </trkpt>
      <trkpt lat="43.0197752919" lon="-1.3239681255">
        <ele>1058.07</ele>
        <time>2021-05-23T11:27:09Z</time>
      </trkpt>
      <trkpt lat="43.0199801456" lon="-1.3241775893">
        <ele>1058.55</ele>
        <time>2021-05-23T11:27:24Z</time>
      </trkpt>
      <trkpt lat="43.0200044531" lon="-1.3241642620">
        <ele>1058.55</ele>
        <time>2021-05-23T11:27:36Z</time>
      </trkpt>
      <trkpt lat="43.0200071353" lon="-1.3241598196">
        <ele>1058.55</ele>
        <time>2021-05-23T11:28:39Z</time>
      </trkpt>
      <trkpt lat="43.0200059619" lon="-1.3241698779">
        <ele>1058.55</ele>
        <time>2021-05-23T11:29:14Z</time>
      </trkpt>
      <trkpt lat="43.0200145952" lon="-1.3241482526">
        <ele>1058.55</ele>
        <time>2021-05-23T11:29:46Z</time>
      </trkpt>
      <trkpt lat="43.0200111587" lon="-1.3241617475">
        <ele>1058.55</ele>
        <time>2021-05-23T11:30:13Z</time>
      </trkpt>
      <trkpt lat="43.0200057104" lon="-1.3241526112">
        <ele>1058.55</ele>
        <time>2021-05-23T11:30:45Z</time>
      </trkpt>
      <trkpt lat="43.0199888628" lon="-1.3241899107">
        <ele>1058.07</ele>
        <time>2021-05-23T11:31:11Z</time>
      </trkpt>
      <trkpt lat="43.0199917965" lon="-1.3241901621">
        <ele>1058.55</ele>
        <time>2021-05-23T11:31:16Z</time>
      </trkpt>
      <trkpt lat="43.0199834984" lon="-1.3241828699">
        <ele>1059.99</ele>
        <time>2021-05-23T11:31:29Z</time>
      </trkpt>
      <trkpt lat="43.0199728534" lon="-1.3241827860">
        <ele>1058.55</ele>
        <time>2021-05-23T11:31:30Z</time>
      </trkpt>
      <trkpt lat="43.0199574307" lon="-1.3241785951">
        <ele>1058.55</ele>
        <time>2021-05-23T11:31:31Z</time>
      </trkpt>
      <trkpt lat="43.0199425109" lon="-1.3241682015">
        <ele>1058.55</ele>
        <time>2021-05-23T11:31:32Z</time>
      </trkpt>
      <trkpt lat="43.0199277587" lon="-1.3241574727">
        <ele>1058.55</ele>
        <time>2021-05-23T11:31:33Z</time>
      </trkpt>
      <trkpt lat="43.0199112464" lon="-1.3241458219">
        <ele>1058.55</ele>
        <time>2021-05-23T11:31:34Z</time>
      </trkpt>
      <trkpt lat="43.0198918842" lon="-1.3241335843">
        <ele>1058.55</ele>
        <time>2021-05-23T11:31:35Z</time>
      </trkpt>
      <trkpt lat="43.0194776505" lon="-1.3238154911">
        <ele>1057.11</ele>
        <time>2021-05-23T11:31:47Z</time>
      </trkpt>
      <trkpt lat="43.0191112775" lon="-1.3236186001">
        <ele>1054.70</ele>
        <time>2021-05-23T11:31:52Z</time>
      </trkpt>
      <trkpt lat="43.0188378599" lon="-1.3235366251">
        <ele>1053.26</ele>
        <time>2021-05-23T11:31:55Z</time>
      </trkpt>
      <trkpt lat="43.0183186010" lon="-1.3234285824">
        <ele>1049.90</ele>
        <time>2021-05-23T11:32:00Z</time>
      </trkpt>
      <trkpt lat="43.0178567581" lon="-1.3233367167">
        <ele>1046.05</ele>
        <time>2021-05-23T11:32:04Z</time>
      </trkpt>
      <trkpt lat="43.0177380703" lon="-1.3233085535">
        <ele>1046.05</ele>
        <time>2021-05-23T11:32:05Z</time>
      </trkpt>
      <trkpt lat="43.0172591284" lon="-1.3231386524">
        <ele>1042.69</ele>
        <time>2021-05-23T11:32:09Z</time>
      </trkpt>
      <trkpt lat="43.0168079305" lon="-1.3228411786">
        <ele>1039.32</ele>
        <time>2021-05-23T11:32:13Z</time>
      </trkpt>
      <trkpt lat="43.0167118739" lon="-1.3227350637">
        <ele>1037.88</ele>
        <time>2021-05-23T11:32:14Z</time>
      </trkpt>
      <trkpt lat="43.0166241992" lon="-1.3226174656">
        <ele>1037.40</ele>
        <time>2021-05-23T11:32:15Z</time>
      </trkpt>
      <trkpt lat="43.0165492650" lon="-1.3224836905">
        <ele>1035.96</ele>
        <time>2021-05-23T11:32:16Z</time>
      </trkpt>
      <trkpt lat="43.0164880771" lon="-1.3223375939">
        <ele>1035.00</ele>
        <time>2021-05-23T11:32:17Z</time>
      </trkpt>
      <trkpt lat="43.0164367799" lon="-1.3221855462">
        <ele>1034.52</ele>
        <time>2021-05-23T11:32:18Z</time>
      </trkpt>
      <trkpt lat="43.0163930263" lon="-1.3220298104">
        <ele>1033.55</ele>
        <time>2021-05-23T11:32:19Z</time>
      </trkpt>
      <trkpt lat="43.0162561499" lon="-1.3215483539">
        <ele>1029.71</ele>
        <time>2021-05-23T11:32:22Z</time>
      </trkpt>
      <trkpt lat="43.0161923636" lon="-1.3213932049">
        <ele>1028.27</ele>
        <time>2021-05-23T11:32:23Z</time>
      </trkpt>
      <trkpt lat="43.0161164235" lon="-1.3212429173">
        <ele>1026.83</ele>
        <time>2021-05-23T11:32:24Z</time>
      </trkpt>
      <trkpt lat="43.0159412418" lon="-1.3209581841">
        <ele>1025.86</ele>
        <time>2021-05-23T11:32:26Z</time>
      </trkpt>
      <trkpt lat="43.0155411735" lon="-1.3204478100">
        <ele>1022.02</ele>
        <time>2021-05-23T11:32:30Z</time>
      </trkpt>
      <trkpt lat="43.0152355693" lon="-1.3200702891">
        <ele>1018.17</ele>
        <time>2021-05-23T11:32:33Z</time>
      </trkpt>
      <trkpt lat="43.0149245169" lon="-1.3196866494">
        <ele>1014.33</ele>
        <time>2021-05-23T11:32:36Z</time>
      </trkpt>
      <trkpt lat="43.0146958586" lon="-1.3194521237">
        <ele>1011.93</ele>
        <time>2021-05-23T11:32:38Z</time>
      </trkpt>
      <trkpt lat="43.0145667773" lon="-1.3193592522">
        <ele>1010.48</ele>
        <time>2021-05-23T11:32:39Z</time>
      </trkpt>
      <trkpt lat="43.0144297332" lon="-1.3192871679">
        <ele>1009.04</ele>
        <time>2021-05-23T11:32:40Z</time>
      </trkpt>
      <trkpt lat="43.0142870732" lon="-1.3192398101">
        <ele>1008.08</ele>
        <time>2021-05-23T11:32:41Z</time>
      </trkpt>
      <trkpt lat="43.0141403899" lon="-1.3192190230">
        <ele>1006.64</ele>
        <time>2021-05-23T11:32:42Z</time>
      </trkpt>
      <trkpt lat="43.0139947124" lon="-1.3192108087">
        <ele>1005.68</ele>
        <time>2021-05-23T11:32:43Z</time>
      </trkpt>
      <trkpt lat="43.0134157743" lon="-1.3192663807">
        <ele>1002.31</ele>
        <time>2021-05-23T11:32:47Z</time>
      </trkpt>
      <trkpt lat="43.0129841901" lon="-1.3193636108">
        <ele>998.95</ele>
        <time>2021-05-23T11:32:50Z</time>
      </trkpt>
      <trkpt lat="43.0125696212" lon="-1.3194827177">
        <ele>995.58</ele>
        <time>2021-05-23T11:32:53Z</time>
      </trkpt>
      <trkpt lat="43.0121775158" lon="-1.3196499366">
        <ele>992.22</ele>
        <time>2021-05-23T11:32:56Z</time>
      </trkpt>
      <trkpt lat="43.0120478477" lon="-1.3197014853">
        <ele>991.74</ele>
        <time>2021-05-23T11:32:57Z</time>
      </trkpt>
      <trkpt lat="43.0119162519" lon="-1.3197263796">
        <ele>990.30</ele>
        <time>2021-05-23T11:32:58Z</time>
      </trkpt>
      <trkpt lat="43.0117858294" lon="-1.3197195902">
        <ele>989.33</ele>
        <time>2021-05-23T11:32:59Z</time>
      </trkpt>
      <trkpt lat="43.0114000943" lon="-1.3196428958">
        <ele>985.49</ele>
        <time>2021-05-23T11:33:02Z</time>
      </trkpt>
      <trkpt lat="43.0111374054" lon="-1.3196194265">
        <ele>982.60</ele>
        <time>2021-05-23T11:33:04Z</time>
      </trkpt>
      <trkpt lat="43.0110065639" lon="-1.3196421415">
        <ele>981.16</ele>
        <time>2021-05-23T11:33:05Z</time>
      </trkpt>
      <trkpt lat="43.0108797457" lon="-1.3196919300">
        <ele>980.68</ele>
        <time>2021-05-23T11:33:06Z</time>
      </trkpt>
      <trkpt lat="43.0107561965" lon="-1.3197614159">
        <ele>979.24</ele>
        <time>2021-05-23T11:33:07Z</time>
      </trkpt>
      <trkpt lat="43.0106344074" lon="-1.3198382780">
        <ele>978.76</ele>
        <time>2021-05-23T11:33:08Z</time>
      </trkpt>
      <trkpt lat="43.0105187371" lon="-1.3199223485">
        <ele>977.80</ele>
        <time>2021-05-23T11:33:09Z</time>
      </trkpt>
      <trkpt lat="43.0104180705" lon="-1.3200236019">
        <ele>976.84</ele>
        <time>2021-05-23T11:33:10Z</time>
      </trkpt>
      <trkpt lat="43.0103371851" lon="-1.3201534376">
        <ele>975.39</ele>
        <time>2021-05-23T11:33:11Z</time>
      </trkpt>
      <trkpt lat="43.0102770030" lon="-1.3203010429">
        <ele>974.91</ele>
        <time>2021-05-23T11:33:12Z</time>
      </trkpt>
      <trkpt lat="43.0102319084" lon="-1.3204509951">
        <ele>974.91</ele>
        <time>2021-05-23T11:33:13Z</time>
      </trkpt>
      <trkpt lat="43.0101881549" lon="-1.3206000254">
        <ele>973.95</ele>
        <time>2021-05-23T11:33:14Z</time>
      </trkpt>
      <trkpt lat="43.0101348460" lon="-1.3207369018">
        <ele>973.95</ele>
        <time>2021-05-23T11:33:15Z</time>
      </trkpt>
      <trkpt lat="43.0100642703" lon="-1.3208514825">
        <ele>973.95</ele>
        <time>2021-05-23T11:33:16Z</time>
      </trkpt>
      <trkpt lat="43.0099781882" lon="-1.3209423423">
        <ele>973.95</ele>
        <time>2021-05-23T11:33:17Z</time>
      </trkpt>
      <trkpt lat="43.0098833051" lon="-1.3210135046">
        <ele>973.95</ele>
        <time>2021-05-23T11:33:18Z</time>
      </trkpt>
      <trkpt lat="43.0097897630" lon="-1.3210782968">
        <ele>972.99</ele>
        <time>2021-05-23T11:33:19Z</time>
      </trkpt>
      <trkpt lat="43.0097015016" lon="-1.3211530633">
        <ele>972.99</ele>
        <time>2021-05-23T11:33:20Z</time>
      </trkpt>
      <trkpt lat="43.0096245557" lon="-1.3212476950">
        <ele>972.03</ele>
        <time>2021-05-23T11:33:21Z</time>
      </trkpt>
      <trkpt lat="43.0095668882" lon="-1.3213629462">
        <ele>971.07</ele>
        <time>2021-05-23T11:33:22Z</time>
      </trkpt>
      <trkpt lat="43.0095397308" lon="-1.3214947097">
        <ele>971.07</ele>
        <time>2021-05-23T11:33:23Z</time>
      </trkpt>
      <trkpt lat="43.0095416587" lon="-1.3216330949">
        <ele>970.59</ele>
        <time>2021-05-23T11:33:24Z</time>
      </trkpt>
      <trkpt lat="43.0095661338" lon="-1.3217681274">
        <ele>970.59</ele>
        <time>2021-05-23T11:33:25Z</time>
      </trkpt>
      <trkpt lat="43.0095984880" lon="-1.3218844682">
        <ele>970.11</ele>
        <time>2021-05-23T11:33:26Z</time>
      </trkpt>
      <trkpt lat="43.0096390564" lon="-1.3220762461">
        <ele>969.15</ele>
        <time>2021-05-23T11:33:28Z</time>
      </trkpt>
      <trkpt lat="43.0096301716" lon="-1.3221539464">
        <ele>969.15</ele>
        <time>2021-05-23T11:33:29Z</time>
      </trkpt>
      <trkpt lat="43.0095961411" lon="-1.3222095184">
        <ele>968.67</ele>
        <time>2021-05-23T11:33:30Z</time>
      </trkpt>
      <trkpt lat="43.0095481966" lon="-1.3222246058">
        <ele>968.67</ele>
        <time>2021-05-23T11:33:31Z</time>
      </trkpt>
      <trkpt lat="43.0094978213" lon="-1.3221938442">
        <ele>967.70</ele>
        <time>2021-05-23T11:33:32Z</time>
      </trkpt>
      <trkpt lat="43.0094569176" lon="-1.3221272919">
        <ele>967.70</ele>
        <time>2021-05-23T11:33:33Z</time>
      </trkpt>
      <trkpt lat="43.0094244797" lon="-1.3220474962">
        <ele>967.22</ele>
        <time>2021-05-23T11:33:34Z</time>
      </trkpt>
      <trkpt lat="43.0093917064" lon="-1.3219568878">
        <ele>967.22</ele>
        <time>2021-05-23T11:33:35Z</time>
      </trkpt>
      <trkpt lat="43.0092301872" lon="-1.3214243017">
        <ele>965.30</ele>
        <time>2021-05-23T11:33:40Z</time>
      </trkpt>
      <trkpt lat="43.0092138425" lon="-1.3213036861">
        <ele>964.82</ele>
        <time>2021-05-23T11:33:41Z</time>
      </trkpt>
      <trkpt lat="43.0092081428" lon="-1.3211879320">
        <ele>964.82</ele>
        <time>2021-05-23T11:33:42Z</time>
      </trkpt>
      <trkpt lat="43.0092088133" lon="-1.3210723456">
        <ele>963.86</ele>
        <time>2021-05-23T11:33:43Z</time>
      </trkpt>
      <trkpt lat="43.0092130881" lon="-1.3209499698">
        <ele>963.38</ele>
        <time>2021-05-23T11:33:44Z</time>
      </trkpt>
      <trkpt lat="43.0092115793" lon="-1.3207047153">
        <ele>962.42</ele>
        <time>2021-05-23T11:33:46Z</time>
      </trkpt>
      <trkpt lat="43.0091901217" lon="-1.3205730356">
        <ele>961.46</ele>
        <time>2021-05-23T11:33:47Z</time>
      </trkpt>
      <trkpt lat="43.0091481283" lon="-1.3204488996">
        <ele>960.49</ele>
        <time>2021-05-23T11:33:48Z</time>
      </trkpt>
      <trkpt lat="43.0090798996" lon="-1.3203280326">
        <ele>959.53</ele>
        <time>2021-05-23T11:33:49Z</time>
      </trkpt>
      <trkpt lat="43.0090011936" lon="-1.3202282041">
        <ele>959.05</ele>
        <time>2021-05-23T11:33:50Z</time>
      </trkpt>
      <trkpt lat="43.0089158658" lon="-1.3201352488">
        <ele>958.09</ele>
        <time>2021-05-23T11:33:51Z</time>
      </trkpt>
      <trkpt lat="43.0085064098" lon="-1.3197801076">
        <ele>954.25</ele>
        <time>2021-05-23T11:33:55Z</time>
      </trkpt>
      <trkpt lat="43.0080501828" lon="-1.3195464201">
        <ele>951.84</ele>
        <time>2021-05-23T11:33:59Z</time>
      </trkpt>
      <trkpt lat="43.0075773597" lon="-1.3194199372">
        <ele>948.48</ele>
        <time>2021-05-23T11:34:03Z</time>
      </trkpt>
      <trkpt lat="43.0071095657" lon="-1.3193558156">
        <ele>946.56</ele>
        <time>2021-05-23T11:34:07Z</time>
      </trkpt>
      <trkpt lat="43.0060268752" lon="-1.3192362059">
        <ele>943.19</ele>
        <time>2021-05-23T11:34:17Z</time>
      </trkpt>
      <trkpt lat="43.0048785545" lon="-1.3193778601">
        <ele>940.31</ele>
        <time>2021-05-23T11:34:29Z</time>
      </trkpt>
      <trkpt lat="43.0038749892" lon="-1.3199213427">
        <ele>937.90</ele>
        <time>2021-05-23T11:34:41Z</time>
      </trkpt>
      <trkpt lat="43.0027111620" lon="-1.3209479582">
        <ele>935.02</ele>
        <time>2021-05-23T11:34:56Z</time>
      </trkpt>
      <trkpt lat="43.0017467402" lon="-1.3219260424">
        <ele>931.65</ele>
        <time>2021-05-23T11:35:09Z</time>
      </trkpt>
      <trkpt lat="43.0008418299" lon="-1.3228021190">
        <ele>928.29</ele>
        <time>2021-05-23T11:35:21Z</time>
      </trkpt>
      <trkpt lat="42.9997028131" lon="-1.3238983881">
        <ele>924.93</ele>
        <time>2021-05-23T11:35:36Z</time>
      </trkpt>
      <trkpt lat="42.9985142592" lon="-1.3250495587">
        <ele>922.04</ele>
        <time>2021-05-23T11:35:52Z</time>
      </trkpt>
      <trkpt lat="42.9974305630" lon="-1.3261055108">
        <ele>918.68</ele>
        <time>2021-05-23T11:36:07Z</time>
      </trkpt>
      <trkpt lat="42.9961563461" lon="-1.3273534924">
        <ele>915.79</ele>
        <time>2021-05-23T11:36:25Z</time>
      </trkpt>
      <trkpt lat="42.9951210134" lon="-1.3283780962">
        <ele>912.43</ele>
        <time>2021-05-23T11:36:40Z</time>
      </trkpt>
      <trkpt lat="42.9938286915" lon="-1.3296437636">
        <ele>909.54</ele>
        <time>2021-05-23T11:36:59Z</time>
      </trkpt>
      <trkpt lat="42.9929546267" lon="-1.3305034116">
        <ele>905.70</ele>
        <time>2021-05-23T11:37:12Z</time>
      </trkpt>
      <trkpt lat="42.9923160933" lon="-1.3312256802">
        <ele>902.82</ele>
        <time>2021-05-23T11:37:21Z</time>
      </trkpt>
      <trkpt lat="42.9916734528" lon="-1.3327011466">
        <ele>899.45</ele>
        <time>2021-05-23T11:37:35Z</time>
      </trkpt>
      <trkpt lat="42.9910251964" lon="-1.3341565803">
        <ele>899.45</ele>
        <time>2021-05-23T11:37:53Z</time>
      </trkpt>
      <trkpt lat="42.9909602366" lon="-1.3342979830">
        <ele>900.89</ele>
        <time>2021-05-23T11:37:55Z</time>
      </trkpt>
      <trkpt lat="42.9907081090" lon="-1.3347642682">
        <ele>901.37</ele>
        <time>2021-05-23T11:38:02Z</time>
      </trkpt>
      <trkpt lat="42.9906154890" lon="-1.3348625042">
        <ele>901.37</ele>
        <time>2021-05-23T11:38:04Z</time>
      </trkpt>
      <trkpt lat="42.9905712325" lon="-1.3349052519">
        <ele>901.37</ele>
        <time>2021-05-23T11:38:05Z</time>
      </trkpt>
      <trkpt lat="42.9905254673" lon="-1.3349508494">
        <ele>901.37</ele>
        <time>2021-05-23T11:38:06Z</time>
      </trkpt>
      <trkpt lat="42.9896046314" lon="-1.3356364891">
        <ele>899.93</ele>
        <time>2021-05-23T11:38:22Z</time>
      </trkpt>
      <trkpt lat="42.9885336757" lon="-1.3363720011">
        <ele>897.53</ele>
        <time>2021-05-23T11:38:37Z</time>
      </trkpt>
      <trkpt lat="42.9875542503" lon="-1.3368884940">
        <ele>895.61</ele>
        <time>2021-05-23T11:38:50Z</time>
      </trkpt>
      <trkpt lat="42.9867152218" lon="-1.3373546954">
        <ele>894.16</ele>
        <time>2021-05-23T11:39:02Z</time>
      </trkpt>
      <trkpt lat="42.9858117364" lon="-1.3384434208">
        <ele>891.76</ele>
        <time>2021-05-23T11:39:17Z</time>
      </trkpt>
      <trkpt lat="42.9849487357" lon="-1.3394992054">
        <ele>888.40</ele>
        <time>2021-05-23T11:39:31Z</time>
      </trkpt>
      <trkpt lat="42.9841168318" lon="-1.3405010942">
        <ele>885.51</ele>
        <time>2021-05-23T11:39:44Z</time>
      </trkpt>
      <trkpt lat="42.9831737000" lon="-1.3416586351">
        <ele>884.07</ele>
        <time>2021-05-23T11:40:00Z</time>
      </trkpt>
      <trkpt lat="42.9823991284" lon="-1.3425975759">
        <ele>884.07</ele>
        <time>2021-05-23T11:40:15Z</time>
      </trkpt>
      <trkpt lat="42.9818523768" lon="-1.3432752527">
        <ele>886.47</ele>
        <time>2021-05-23T11:40:27Z</time>
      </trkpt>
      <trkpt lat="42.9812746122" lon="-1.3439467270">
        <ele>887.43</ele>
        <time>2021-05-23T11:40:41Z</time>
      </trkpt>
      <trkpt lat="42.9812486283" lon="-1.3439738844">
        <ele>887.91</ele>
        <time>2021-05-23T11:40:42Z</time>
      </trkpt>
      <trkpt lat="42.9811682459" lon="-1.3440628164">
        <ele>889.84</ele>
        <time>2021-05-23T11:40:44Z</time>
      </trkpt>
      <trkpt lat="42.9806933273" lon="-1.3445946481">
        <ele>887.91</ele>
        <time>2021-05-23T11:40:54Z</time>
      </trkpt>
      <trkpt lat="42.9802325740" lon="-1.3451095484">
        <ele>885.51</ele>
        <time>2021-05-23T11:41:02Z</time>
      </trkpt>
      <trkpt lat="42.9801125452" lon="-1.3452433236">
        <ele>886.95</ele>
        <time>2021-05-23T11:41:04Z</time>
      </trkpt>
      <trkpt lat="42.9791471176" lon="-1.3462979347">
        <ele>883.59</ele>
        <time>2021-05-23T11:41:19Z</time>
      </trkpt>
      <trkpt lat="42.9783955123" lon="-1.3471157569">
        <ele>880.22</ele>
        <time>2021-05-23T11:41:30Z</time>
      </trkpt>
      <trkpt lat="42.9783338215" lon="-1.3471829798">
        <ele>880.22</ele>
        <time>2021-05-23T11:41:31Z</time>
      </trkpt>
      <trkpt lat="42.9774253909" lon="-1.3481904846">
        <ele>877.34</ele>
        <time>2021-05-23T11:41:45Z</time>
      </trkpt>
      <trkpt lat="42.9764861986" lon="-1.3492148370">
        <ele>875.42</ele>
        <time>2021-05-23T11:42:00Z</time>
      </trkpt>
      <trkpt lat="42.9755814560" lon="-1.3501997944">
        <ele>874.94</ele>
        <time>2021-05-23T11:42:16Z</time>
      </trkpt>
      <trkpt lat="42.9747274239" lon="-1.3511473686">
        <ele>876.38</ele>
        <time>2021-05-23T11:42:32Z</time>
      </trkpt>
      <trkpt lat="42.9738137126" lon="-1.3521267939">
        <ele>875.42</ele>
        <time>2021-05-23T11:42:50Z</time>
      </trkpt>
      <trkpt lat="42.9735428933" lon="-1.3524156343">
        <ele>874.46</ele>
        <time>2021-05-23T11:42:55Z</time>
      </trkpt>
      <trkpt lat="42.9734774306" lon="-1.3524645008">
        <ele>874.46</ele>
        <time>2021-05-23T11:42:56Z</time>
      </trkpt>
      <trkpt lat="42.9734123871" lon="-1.3525003754">
        <ele>874.46</ele>
        <time>2021-05-23T11:42:57Z</time>
      </trkpt>
      <trkpt lat="42.9733525403" lon="-1.3525199890">
        <ele>873.98</ele>
        <time>2021-05-23T11:42:58Z</time>
      </trkpt>
      <trkpt lat="42.9732982256" lon="-1.3525261078">
        <ele>874.46</ele>
        <time>2021-05-23T11:42:59Z</time>
      </trkpt>
      <trkpt lat="42.9732427374" lon="-1.3525246829">
        <ele>874.46</ele>
        <time>2021-05-23T11:43:00Z</time>
      </trkpt>
      <trkpt lat="42.9731795378" lon="-1.3525272813">
        <ele>874.46</ele>
        <time>2021-05-23T11:43:01Z</time>
      </trkpt>
      <trkpt lat="42.9731158353" lon="-1.3525431231">
        <ele>874.46</ele>
        <time>2021-05-23T11:43:02Z</time>
      </trkpt>
      <trkpt lat="42.9730516300" lon="-1.3525699452">
        <ele>873.98</ele>
        <time>2021-05-23T11:43:03Z</time>
      </trkpt>
      <trkpt lat="42.9729879275" lon="-1.3526033051">
        <ele>873.50</ele>
        <time>2021-05-23T11:43:04Z</time>
      </trkpt>
      <trkpt lat="42.9729237221" lon="-1.3526440412">
        <ele>873.01</ele>
        <time>2021-05-23T11:43:05Z</time>
      </trkpt>
      <trkpt lat="42.9728611093" lon="-1.3526913151">
        <ele>873.01</ele>
        <time>2021-05-23T11:43:06Z</time>
      </trkpt>
      <trkpt lat="42.9727995023" lon="-1.3527439535">
        <ele>873.01</ele>
        <time>2021-05-23T11:43:07Z</time>
      </trkpt>
      <trkpt lat="42.9727394879" lon="-1.3528013695">
        <ele>873.01</ele>
        <time>2021-05-23T11:43:08Z</time>
      </trkpt>
      <trkpt lat="42.9719488230" lon="-1.3535708282">
        <ele>872.05</ele>
        <time>2021-05-23T11:43:21Z</time>
      </trkpt>
      <trkpt lat="42.9718052410" lon="-1.3536177669">
        <ele>871.57</ele>
        <time>2021-05-23T11:43:23Z</time>
      </trkpt>
      <trkpt lat="42.9706495441" lon="-1.3537811302">
        <ele>870.61</ele>
        <time>2021-05-23T11:43:39Z</time>
      </trkpt>
      <trkpt lat="42.9698517546" lon="-1.3542557135">
        <ele>869.17</ele>
        <time>2021-05-23T11:43:51Z</time>
      </trkpt>
      <trkpt lat="42.9688672163" lon="-1.3543673605">
        <ele>868.21</ele>
        <time>2021-05-23T11:44:04Z</time>
      </trkpt>
      <trkpt lat="42.9680110049" lon="-1.3542598207">
        <ele>867.73</ele>
        <time>2021-05-23T11:44:17Z</time>
      </trkpt>
      <trkpt lat="42.9677492380" lon="-1.3542816136">
        <ele>867.25</ele>
        <time>2021-05-23T11:44:21Z</time>
      </trkpt>
      <trkpt lat="42.9676839430" lon="-1.3543000538">
        <ele>867.25</ele>
        <time>2021-05-23T11:44:22Z</time>
      </trkpt>
      <trkpt lat="42.9676168878" lon="-1.3543285523">
        <ele>867.25</ele>
        <time>2021-05-23T11:44:23Z</time>
      </trkpt>
      <trkpt lat="42.9675505869" lon="-1.3543650974">
        <ele>867.25</ele>
        <time>2021-05-23T11:44:24Z</time>
      </trkpt>
      <trkpt lat="42.9674923327" lon="-1.3544106949">
        <ele>867.25</ele>
        <time>2021-05-23T11:44:25Z</time>
      </trkpt>
      <trkpt lat="42.9674355034" lon="-1.3544668537">
        <ele>867.25</ele>
        <time>2021-05-23T11:44:26Z</time>
      </trkpt>
      <trkpt lat="42.9673854634" lon="-1.3545276225">
        <ele>867.25</ele>
        <time>2021-05-23T11:44:27Z</time>
      </trkpt>
      <trkpt lat="42.9673391953" lon="-1.3545954321">
        <ele>867.25</ele>
        <time>2021-05-23T11:44:28Z</time>
      </trkpt>
      <trkpt lat="42.9672986269" lon="-1.3546723779">
        <ele>867.25</ele>
        <time>2021-05-23T11:44:29Z</time>
      </trkpt>
      <trkpt lat="42.9672726430" lon="-1.3547548559">
        <ele>867.25</ele>
        <time>2021-05-23T11:44:30Z</time>
      </trkpt>
      <trkpt lat="42.9672583099" lon="-1.3548385911">
        <ele>867.25</ele>
        <time>2021-05-23T11:44:31Z</time>
      </trkpt>
      <trkpt lat="42.9672593158" lon="-1.3549277745">
        <ele>867.25</ele>
        <time>2021-05-23T11:44:32Z</time>
      </trkpt>
      <trkpt lat="42.9672745708" lon="-1.3550176285">
        <ele>867.25</ele>
        <time>2021-05-23T11:44:33Z</time>
      </trkpt>
      <trkpt lat="42.9672957771" lon="-1.3551012799">
        <ele>866.77</ele>
        <time>2021-05-23T11:44:34Z</time>
      </trkpt>
      <trkpt lat="42.9673203360" lon="-1.3551829197">
        <ele>866.77</ele>
        <time>2021-05-23T11:44:35Z</time>
      </trkpt>
      <trkpt lat="42.9674173146" lon="-1.3555252366">
        <ele>866.77</ele>
        <time>2021-05-23T11:44:39Z</time>
      </trkpt>
      <trkpt lat="42.9674304742" lon="-1.3556164317">
        <ele>866.77</ele>
        <time>2021-05-23T11:44:40Z</time>
      </trkpt>
      <trkpt lat="42.9674369283" lon="-1.3557093032">
        <ele>866.77</ele>
        <time>2021-05-23T11:44:41Z</time>
      </trkpt>
      <trkpt lat="42.9674347490" lon="-1.3558020908">
        <ele>866.77</ele>
        <time>2021-05-23T11:44:42Z</time>
      </trkpt>
      <trkpt lat="42.9674217571" lon="-1.3558950461">
        <ele>866.77</ele>
        <time>2021-05-23T11:44:43Z</time>
      </trkpt>
      <trkpt lat="42.9673975334" lon="-1.3559806254">
        <ele>866.29</ele>
        <time>2021-05-23T11:44:44Z</time>
      </trkpt>
      <trkpt lat="42.9673643410" lon="-1.3560597505">
        <ele>866.29</ele>
        <time>2021-05-23T11:44:45Z</time>
      </trkpt>
      <trkpt lat="42.9673231859" lon="-1.3561343495">
        <ele>866.29</ele>
        <time>2021-05-23T11:44:46Z</time>
      </trkpt>
      <trkpt lat="42.9672749899" lon="-1.3562055957">
        <ele>866.29</ele>
        <time>2021-05-23T11:44:47Z</time>
      </trkpt>
      <trkpt lat="42.9672262911" lon="-1.3562650234">
        <ele>866.29</ele>
        <time>2021-05-23T11:44:48Z</time>
      </trkpt>
      <trkpt lat="42.9671710543" lon="-1.3563210145">
        <ele>866.29</ele>
        <time>2021-05-23T11:44:49Z</time>
      </trkpt>
      <trkpt lat="42.9671157338" lon="-1.3563704677">
        <ele>866.29</ele>
        <time>2021-05-23T11:44:50Z</time>
      </trkpt>
      <trkpt lat="42.9661728535" lon="-1.3569484837">
        <ele>866.29</ele>
        <time>2021-05-23T11:45:06Z</time>
      </trkpt>
      <trkpt lat="42.9661068879" lon="-1.3569566142">
        <ele>866.29</ele>
        <time>2021-05-23T11:45:07Z</time>
      </trkpt>
      <trkpt lat="42.9658327997" lon="-1.3569428679">
        <ele>866.29</ele>
        <time>2021-05-23T11:45:11Z</time>
      </trkpt>
      <trkpt lat="42.9657592904" lon="-1.3569490705">
        <ele>866.29</ele>
        <time>2021-05-23T11:45:12Z</time>
      </trkpt>
      <trkpt lat="42.9656885471" lon="-1.3569663372">
        <ele>866.29</ele>
        <time>2021-05-23T11:45:13Z</time>
      </trkpt>
      <trkpt lat="42.9656199832" lon="-1.3569912314">
        <ele>866.29</ele>
        <time>2021-05-23T11:45:14Z</time>
      </trkpt>
      <trkpt lat="42.9655529279" lon="-1.3570176344">
        <ele>866.29</ele>
        <time>2021-05-23T11:45:15Z</time>
      </trkpt>
      <trkpt lat="42.9645326827" lon="-1.3576159347">
        <ele>863.40</ele>
        <time>2021-05-23T11:45:30Z</time>
      </trkpt>
      <trkpt lat="42.9637016170" lon="-1.3580556493">
        <ele>861.00</ele>
        <time>2021-05-23T11:45:41Z</time>
      </trkpt>
      <trkpt lat="42.9627684597" lon="-1.3583785202">
        <ele>857.63</ele>
        <time>2021-05-23T11:45:52Z</time>
      </trkpt>
      <trkpt lat="42.9619495478" lon="-1.3587370142">
        <ele>855.23</ele>
        <time>2021-05-23T11:46:02Z</time>
      </trkpt>
      <trkpt lat="42.9618865997" lon="-1.3588070031">
        <ele>854.75</ele>
        <time>2021-05-23T11:46:03Z</time>
      </trkpt>
      <trkpt lat="42.9618310276" lon="-1.3588888943">
        <ele>854.75</ele>
        <time>2021-05-23T11:46:04Z</time>
      </trkpt>
      <trkpt lat="42.9617803171" lon="-1.3589721266">
        <ele>854.27</ele>
        <time>2021-05-23T11:46:05Z</time>
      </trkpt>
      <trkpt lat="42.9617316183" lon="-1.3590592146">
        <ele>853.79</ele>
        <time>2021-05-23T11:46:06Z</time>
      </trkpt>
      <trkpt lat="42.9613862000" lon="-1.3601968065">
        <ele>850.90</ele>
        <time>2021-05-23T11:46:17Z</time>
      </trkpt>
      <trkpt lat="42.9613637365" lon="-1.3612548541">
        <ele>847.54</ele>
        <time>2021-05-23T11:46:26Z</time>
      </trkpt>
      <trkpt lat="42.9613955878" lon="-1.3614902180">
        <ele>847.06</ele>
        <time>2021-05-23T11:46:28Z</time>
      </trkpt>
      <trkpt lat="42.9616130982" lon="-1.3623689767">
        <ele>846.10</ele>
        <time>2021-05-23T11:46:36Z</time>
      </trkpt>
      <trkpt lat="42.9616043810" lon="-1.3624900114">
        <ele>845.62</ele>
        <time>2021-05-23T11:46:37Z</time>
      </trkpt>
      <trkpt lat="42.9615713563" lon="-1.3625968806">
        <ele>845.14</ele>
        <time>2021-05-23T11:46:38Z</time>
      </trkpt>
      <trkpt lat="42.9615219031" lon="-1.3626918476">
        <ele>845.14</ele>
        <time>2021-05-23T11:46:39Z</time>
      </trkpt>
      <trkpt lat="42.9614667501" lon="-1.3627809472">
        <ele>845.14</ele>
        <time>2021-05-23T11:46:40Z</time>
      </trkpt>
      <trkpt lat="42.9614165425" lon="-1.3628745731">
        <ele>845.14</ele>
        <time>2021-05-23T11:46:41Z</time>
      </trkpt>
      <trkpt lat="42.9613687657" lon="-1.3629656844">
        <ele>845.14</ele>
        <time>2021-05-23T11:46:42Z</time>
      </trkpt>
      <trkpt lat="42.9613184743" lon="-1.3630510122">
        <ele>845.14</ele>
        <time>2021-05-23T11:46:43Z</time>
      </trkpt>
      <trkpt lat="42.9612597171" lon="-1.3631239347">
        <ele>845.14</ele>
        <time>2021-05-23T11:46:44Z</time>
      </trkpt>
      <trkpt lat="42.9611896444" lon="-1.3631857932">
        <ele>845.14</ele>
        <time>2021-05-23T11:46:45Z</time>
      </trkpt>
      <trkpt lat="42.9611187335" lon="-1.3632305525">
        <ele>845.14</ele>
        <time>2021-05-23T11:46:46Z</time>
      </trkpt>
      <trkpt lat="42.9610439669" lon="-1.3632639125">
        <ele>844.66</ele>
        <time>2021-05-23T11:46:47Z</time>
      </trkpt>
      <trkpt lat="42.9609698709" lon="-1.3632926624">
        <ele>844.66</ele>
        <time>2021-05-23T11:46:48Z</time>
      </trkpt>
      <trkpt lat="42.9601820558" lon="-1.3638332114">
        <ele>843.69</ele>
        <time>2021-05-23T11:47:00Z</time>
      </trkpt>
      <trkpt lat="42.9601150006" lon="-1.3638780545">
        <ele>843.69</ele>
        <time>2021-05-23T11:47:01Z</time>
      </trkpt>
      <trkpt lat="42.9600455146" lon="-1.3639137615">
        <ele>843.69</ele>
        <time>2021-05-23T11:47:02Z</time>
      </trkpt>
      <trkpt lat="42.9592084140" lon="-1.3641555794">
        <ele>841.77</ele>
        <time>2021-05-23T11:47:13Z</time>
      </trkpt>
      <trkpt lat="42.9589675181" lon="-1.3642120734">
        <ele>840.33</ele>
        <time>2021-05-23T11:47:16Z</time>
      </trkpt>
      <trkpt lat="42.9588852916" lon="-1.3642536476">
        <ele>840.33</ele>
        <time>2021-05-23T11:47:17Z</time>
      </trkpt>
      <trkpt lat="42.9587352555" lon="-1.3643558230">
        <ele>839.37</ele>
        <time>2021-05-23T11:47:19Z</time>
      </trkpt>
      <trkpt lat="42.9584350996" lon="-1.3645849843">
        <ele>838.89</ele>
        <time>2021-05-23T11:47:23Z</time>
      </trkpt>
      <trkpt lat="42.9583561420" lon="-1.3646242954">
        <ele>838.41</ele>
        <time>2021-05-23T11:47:24Z</time>
      </trkpt>
      <trkpt lat="42.9582776036" lon="-1.3646547217">
        <ele>838.41</ele>
        <time>2021-05-23T11:47:25Z</time>
      </trkpt>
      <trkpt lat="42.9580294155" lon="-1.3647093717">
        <ele>837.93</ele>
        <time>2021-05-23T11:47:28Z</time>
      </trkpt>
      <trkpt lat="42.9579470214" lon="-1.3647024985">
        <ele>837.93</ele>
        <time>2021-05-23T11:47:29Z</time>
      </trkpt>
      <trkpt lat="42.9578668065" lon="-1.3646724913">
        <ele>837.93</ele>
        <time>2021-05-23T11:47:30Z</time>
      </trkpt>
      <trkpt lat="42.9577925429" lon="-1.3646179251">
        <ele>837.93</ele>
        <time>2021-05-23T11:47:31Z</time>
      </trkpt>
      <trkpt lat="42.9577304330" lon="-1.3645480201">
        <ele>837.93</ele>
        <time>2021-05-23T11:47:32Z</time>
      </trkpt>
      <trkpt lat="42.9576769564" lon="-1.3644618541">
        <ele>837.45</ele>
        <time>2021-05-23T11:47:33Z</time>
      </trkpt>
      <trkpt lat="42.9576349631" lon="-1.3643615227">
        <ele>837.45</ele>
        <time>2021-05-23T11:47:34Z</time>
      </trkpt>
      <trkpt lat="42.9576071352" lon="-1.3642596826">
        <ele>837.45</ele>
        <time>2021-05-23T11:47:35Z</time>
      </trkpt>
      <trkpt lat="42.9575883597" lon="-1.3641521428">
        <ele>836.96</ele>
        <time>2021-05-23T11:47:36Z</time>
      </trkpt>
      <trkpt lat="42.9575720150" lon="-1.3640472014">
        <ele>836.96</ele>
        <time>2021-05-23T11:47:37Z</time>
      </trkpt>
      <trkpt lat="42.9575518984" lon="-1.3639421761">
        <ele>836.96</ele>
        <time>2021-05-23T11:47:38Z</time>
      </trkpt>
      <trkpt lat="42.9575280938" lon="-1.3638429344">
        <ele>836.00</ele>
        <time>2021-05-23T11:47:39Z</time>
      </trkpt>
      <trkpt lat="42.9574979190" lon="-1.3637435250">
        <ele>836.00</ele>
        <time>2021-05-23T11:47:40Z</time>
      </trkpt>
      <trkpt lat="42.9574606195" lon="-1.3636467978">
        <ele>834.56</ele>
        <time>2021-05-23T11:47:41Z</time>
      </trkpt>
      <trkpt lat="42.9574181233" lon="-1.3635618053">
        <ele>834.56</ele>
        <time>2021-05-23T11:47:42Z</time>
      </trkpt>
      <trkpt lat="42.9573698435" lon="-1.3634856977">
        <ele>834.56</ele>
        <time>2021-05-23T11:47:43Z</time>
      </trkpt>
      <trkpt lat="42.9573132657" lon="-1.3634137809">
        <ele>833.60</ele>
        <time>2021-05-23T11:47:44Z</time>
      </trkpt>
      <trkpt lat="42.9572493117" lon="-1.3633520063">
        <ele>833.60</ele>
        <time>2021-05-23T11:47:45Z</time>
      </trkpt>
      <trkpt lat="42.9571782332" lon="-1.3633014634">
        <ele>833.60</ele>
        <time>2021-05-23T11:47:46Z</time>
      </trkpt>
      <trkpt lat="42.9571004491" lon="-1.3632670976">
        <ele>833.60</ele>
        <time>2021-05-23T11:47:47Z</time>
      </trkpt>
      <trkpt lat="42.9570188094" lon="-1.3632508367">
        <ele>833.60</ele>
        <time>2021-05-23T11:47:48Z</time>
      </trkpt>
      <trkpt lat="42.9569370858" lon="-1.3632572070">
        <ele>833.12</ele>
        <time>2021-05-23T11:47:49Z</time>
      </trkpt>
      <trkpt lat="42.9568578769" lon="-1.3632738870">
        <ele>833.12</ele>
        <time>2021-05-23T11:47:50Z</time>
      </trkpt>
      <trkpt lat="42.9567819368" lon="-1.3633076660">
        <ele>832.64</ele>
        <time>2021-05-23T11:47:51Z</time>
      </trkpt>
      <trkpt lat="42.9567134567" lon="-1.3633621484">
        <ele>833.12</ele>
        <time>2021-05-23T11:47:52Z</time>
      </trkpt>
      <trkpt lat="42.9566446412" lon="-1.3634282816">
        <ele>833.12</ele>
        <time>2021-05-23T11:47:53Z</time>
      </trkpt>
      <trkpt lat="42.9565801844" lon="-1.3635050599">
        <ele>833.12</ele>
        <time>2021-05-23T11:47:54Z</time>
      </trkpt>
      <trkpt lat="42.9565205052" lon="-1.3635911420">
        <ele>833.12</ele>
        <time>2021-05-23T11:47:55Z</time>
      </trkpt>
      <trkpt lat="42.9564656876" lon="-1.3636783976">
        <ele>833.12</ele>
        <time>2021-05-23T11:47:56Z</time>
      </trkpt>
      <trkpt lat="42.9564145580" lon="-1.3637688383">
        <ele>832.64</ele>
        <time>2021-05-23T11:47:57Z</time>
      </trkpt>
      <trkpt lat="42.9562735744" lon="-1.3640477881">
        <ele>832.16</ele>
        <time>2021-05-23T11:48:00Z</time>
      </trkpt>
      <trkpt lat="42.9562470876" lon="-1.3641481195">
        <ele>832.16</ele>
        <time>2021-05-23T11:48:01Z</time>
      </trkpt>
      <trkpt lat="42.9562336765" lon="-1.3642544858">
        <ele>832.16</ele>
        <time>2021-05-23T11:48:02Z</time>
      </trkpt>
      <trkpt lat="42.9562313296" lon="-1.3643616065">
        <ele>831.20</ele>
        <time>2021-05-23T11:48:03Z</time>
      </trkpt>
      <trkpt lat="42.9562341794" lon="-1.3644713257">
        <ele>831.20</ele>
        <time>2021-05-23T11:48:04Z</time>
      </trkpt>
      <trkpt lat="42.9562378675" lon="-1.3645806257">
        <ele>830.72</ele>
        <time>2021-05-23T11:48:05Z</time>
      </trkpt>
      <trkpt lat="42.9562736582" lon="-1.3651205041">
        <ele>830.72</ele>
        <time>2021-05-23T11:48:10Z</time>
      </trkpt>
      <trkpt lat="42.9563039169" lon="-1.3652232662">
        <ele>830.72</ele>
        <time>2021-05-23T11:48:11Z</time>
      </trkpt>
      <trkpt lat="42.9563454073" lon="-1.3653213345">
        <ele>830.24</ele>
        <time>2021-05-23T11:48:12Z</time>
      </trkpt>
      <trkpt lat="42.9563932680" lon="-1.3654142898">
        <ele>830.24</ele>
        <time>2021-05-23T11:48:13Z</time>
      </trkpt>
      <trkpt lat="42.9564449005" lon="-1.3655014616">
        <ele>830.24</ele>
        <time>2021-05-23T11:48:14Z</time>
      </trkpt>
      <trkpt lat="42.9567955155" lon="-1.3665946294">
        <ele>827.35</ele>
        <time>2021-05-23T11:48:25Z</time>
      </trkpt>
      <trkpt lat="42.9567980301" lon="-1.3671854697">
        <ele>826.39</ele>
        <time>2021-05-23T11:48:30Z</time>
      </trkpt>
      <trkpt lat="42.9567822721" lon="-1.3672970328">
        <ele>826.39</ele>
        <time>2021-05-23T11:48:31Z</time>
      </trkpt>
      <trkpt lat="42.9567282926" lon="-1.3675110228">
        <ele>825.91</ele>
        <time>2021-05-23T11:48:33Z</time>
      </trkpt>
      <trkpt lat="42.9566911608" lon="-1.3676096778">
        <ele>825.43</ele>
        <time>2021-05-23T11:48:34Z</time>
      </trkpt>
      <trkpt lat="42.9566433839" lon="-1.3676998671">
        <ele>824.95</ele>
        <time>2021-05-23T11:48:35Z</time>
      </trkpt>
      <trkpt lat="42.9565854650" lon="-1.3677791599">
        <ele>824.95</ele>
        <time>2021-05-23T11:48:36Z</time>
      </trkpt>
      <trkpt lat="42.9565171525" lon="-1.3678507414">
        <ele>824.47</ele>
        <time>2021-05-23T11:48:37Z</time>
      </trkpt>
      <trkpt lat="42.9564457387" lon="-1.3679224066">
        <ele>824.47</ele>
        <time>2021-05-23T11:48:38Z</time>
      </trkpt>
      <trkpt lat="42.9558449239" lon="-1.3684661407">
        <ele>821.10</ele>
        <time>2021-05-23T11:48:46Z</time>
      </trkpt>
      <trkpt lat="42.9548925720" lon="-1.3691528700">
        <ele>817.26</ele>
        <time>2021-05-23T11:48:59Z</time>
      </trkpt>
      <trkpt lat="42.9543925915" lon="-1.3696591370">
        <ele>816.78</ele>
        <time>2021-05-23T11:49:07Z</time>
      </trkpt>
      <trkpt lat="42.9537709057" lon="-1.3706854172">
        <ele>814.37</ele>
        <time>2021-05-23T11:49:19Z</time>
      </trkpt>
      <trkpt lat="42.9537059460" lon="-1.3707642909">
        <ele>813.89</ele>
        <time>2021-05-23T11:49:20Z</time>
      </trkpt>
      <trkpt lat="42.9536365438" lon="-1.3708360400">
        <ele>813.89</ele>
        <time>2021-05-23T11:49:21Z</time>
      </trkpt>
      <trkpt lat="42.9529939871" lon="-1.3715957757">
        <ele>811.01</ele>
        <time>2021-05-23T11:49:31Z</time>
      </trkpt>
      <trkpt lat="42.9529545922" lon="-1.3717029803">
        <ele>811.01</ele>
        <time>2021-05-23T11:49:32Z</time>
      </trkpt>
      <trkpt lat="42.9529322963" lon="-1.3718125317">
        <ele>811.01</ele>
        <time>2021-05-23T11:49:33Z</time>
      </trkpt>
      <trkpt lat="42.9529228248" lon="-1.3719210774">
        <ele>811.01</ele>
        <time>2021-05-23T11:49:34Z</time>
      </trkpt>
      <trkpt lat="42.9529162869" lon="-1.3720225822">
        <ele>811.01</ele>
        <time>2021-05-23T11:49:35Z</time>
      </trkpt>
      <trkpt lat="42.9529039655" lon="-1.3721241709">
        <ele>811.01</ele>
        <time>2021-05-23T11:49:36Z</time>
      </trkpt>
      <trkpt lat="42.9528831784" lon="-1.3722182158">
        <ele>811.01</ele>
        <time>2021-05-23T11:49:37Z</time>
      </trkpt>
      <trkpt lat="42.9528513271" lon="-1.3723042142">
        <ele>811.01</ele>
        <time>2021-05-23T11:49:38Z</time>
      </trkpt>
      <trkpt lat="42.9528086632" lon="-1.3723808248">
        <ele>811.01</ele>
        <time>2021-05-23T11:49:39Z</time>
      </trkpt>
      <trkpt lat="42.9527627304" lon="-1.3724502269">
        <ele>810.53</ele>
        <time>2021-05-23T11:49:40Z</time>
      </trkpt>
      <trkpt lat="42.9524950963" lon="-1.3728189468">
        <ele>808.61</ele>
        <time>2021-05-23T11:49:45Z</time>
      </trkpt>
      <trkpt lat="42.9519519489" lon="-1.3733854797">
        <ele>805.72</ele>
        <time>2021-05-23T11:49:53Z</time>
      </trkpt>
      <trkpt lat="42.9511640500" lon="-1.3744949084">
        <ele>803.80</ele>
        <time>2021-05-23T11:50:06Z</time>
      </trkpt>
      <trkpt lat="42.9510953184" lon="-1.3745601196">
        <ele>803.32</ele>
        <time>2021-05-23T11:50:07Z</time>
      </trkpt>
      <trkpt lat="42.9510217253" lon="-1.3746157754">
        <ele>803.32</ele>
        <time>2021-05-23T11:50:08Z</time>
      </trkpt>
      <trkpt lat="42.9509394150" lon="-1.3746627979">
        <ele>802.84</ele>
        <time>2021-05-23T11:50:09Z</time>
      </trkpt>
      <trkpt lat="42.9508545063" lon="-1.3746979181">
        <ele>802.36</ele>
        <time>2021-05-23T11:50:10Z</time>
      </trkpt>
      <trkpt lat="42.9507644009" lon="-1.3747198787">
        <ele>802.36</ele>
        <time>2021-05-23T11:50:11Z</time>
      </trkpt>
      <trkpt lat="42.9506748822" lon="-1.3747283444">
        <ele>802.36</ele>
        <time>2021-05-23T11:50:12Z</time>
      </trkpt>
      <trkpt lat="42.9505841900" lon="-1.3747221418">
        <ele>801.88</ele>
        <time>2021-05-23T11:50:13Z</time>
      </trkpt>
      <trkpt lat="42.9504981078" lon="-1.3747020252">
        <ele>801.88</ele>
        <time>2021-05-23T11:50:14Z</time>
      </trkpt>
      <trkpt lat="42.9504122771" lon="-1.3746753708">
        <ele>801.88</ele>
        <time>2021-05-23T11:50:15Z</time>
      </trkpt>
      <trkpt lat="42.9495053552" lon="-1.3743883744">
        <ele>798.51</ele>
        <time>2021-05-23T11:50:26Z</time>
      </trkpt>
      <trkpt lat="42.9489702545" lon="-1.3743666653">
        <ele>797.55</ele>
        <time>2021-05-23T11:50:32Z</time>
      </trkpt>
      <trkpt lat="42.9480033182" lon="-1.3748752791">
        <ele>794.67</ele>
        <time>2021-05-23T11:50:43Z</time>
      </trkpt>
      <trkpt lat="42.9479217622" lon="-1.3749423344">
        <ele>794.67</ele>
        <time>2021-05-23T11:50:44Z</time>
      </trkpt>
      <trkpt lat="42.9478482530" lon="-1.3750205375">
        <ele>794.67</ele>
        <time>2021-05-23T11:50:45Z</time>
      </trkpt>
      <trkpt lat="42.9473503679" lon="-1.3755510282">
        <ele>791.30</ele>
        <time>2021-05-23T11:50:52Z</time>
      </trkpt>
      <trkpt lat="42.9468744434" lon="-1.3759238552">
        <ele>789.38</ele>
        <time>2021-05-23T11:50:58Z</time>
      </trkpt>
      <trkpt lat="42.9467902891" lon="-1.3759790082">
        <ele>788.90</ele>
        <time>2021-05-23T11:50:59Z</time>
      </trkpt>
      <trkpt lat="42.9467032012" lon="-1.3760238513">
        <ele>788.42</ele>
        <time>2021-05-23T11:51:00Z</time>
      </trkpt>
      <trkpt lat="42.9465213139" lon="-1.3760888949">
        <ele>787.46</ele>
        <time>2021-05-23T11:51:02Z</time>
      </trkpt>
      <trkpt lat="42.9464265145" lon="-1.3761065807">
        <ele>786.98</ele>
        <time>2021-05-23T11:51:03Z</time>
      </trkpt>
      <trkpt lat="42.9463312961" lon="-1.3761144597">
        <ele>786.98</ele>
        <time>2021-05-23T11:51:04Z</time>
      </trkpt>
      <trkpt lat="42.9462359101" lon="-1.3761100173">
        <ele>786.50</ele>
        <time>2021-05-23T11:51:05Z</time>
      </trkpt>
      <trkpt lat="42.9461401049" lon="-1.3760946784">
        <ele>786.50</ele>
        <time>2021-05-23T11:51:06Z</time>
      </trkpt>
      <trkpt lat="42.9460456409" lon="-1.3760697842">
        <ele>786.50</ele>
        <time>2021-05-23T11:51:07Z</time>
      </trkpt>
      <trkpt lat="42.9459531885" lon="-1.3760383520">
        <ele>786.02</ele>
        <time>2021-05-23T11:51:08Z</time>
      </trkpt>
      <trkpt lat="42.9454910103" lon="-1.3758626673">
        <ele>783.61</ele>
        <time>2021-05-23T11:51:13Z</time>
      </trkpt>
      <trkpt lat="42.9447777104" lon="-1.3755317498">
        <ele>780.25</ele>
        <time>2021-05-23T11:51:21Z</time>
      </trkpt>
      <trkpt lat="42.9445906263" lon="-1.3754829671">
        <ele>779.29</ele>
        <time>2021-05-23T11:51:23Z</time>
      </trkpt>
      <trkpt lat="42.9444949888" lon="-1.3754808716">
        <ele>779.29</ele>
        <time>2021-05-23T11:51:24Z</time>
      </trkpt>
      <trkpt lat="42.9443931486" lon="-1.3754988927">
        <ele>778.81</ele>
        <time>2021-05-23T11:51:25Z</time>
      </trkpt>
      <trkpt lat="42.9442996904" lon="-1.3755340967">
        <ele>778.81</ele>
        <time>2021-05-23T11:51:26Z</time>
      </trkpt>
      <trkpt lat="42.9442057293" lon="-1.3755811192">
        <ele>778.32</ele>
        <time>2021-05-23T11:51:27Z</time>
      </trkpt>
      <trkpt lat="42.9441157915" lon="-1.3756406307">
        <ele>778.32</ele>
        <time>2021-05-23T11:51:28Z</time>
      </trkpt>
      <trkpt lat="42.9440322239" lon="-1.3757127989">
        <ele>777.36</ele>
        <time>2021-05-23T11:51:29Z</time>
      </trkpt>
      <trkpt lat="42.9439524282" lon="-1.3758000545">
        <ele>777.36</ele>
        <time>2021-05-23T11:51:30Z</time>
      </trkpt>
      <trkpt lat="42.9438750632" lon="-1.3759030681">
        <ele>776.40</ele>
        <time>2021-05-23T11:51:31Z</time>
      </trkpt>
      <trkpt lat="42.9438068345" lon="-1.3760142121">
        <ele>776.40</ele>
        <time>2021-05-23T11:51:32Z</time>
      </trkpt>
      <trkpt lat="42.9437404498" lon="-1.3761283737">
        <ele>775.92</ele>
        <time>2021-05-23T11:51:33Z</time>
      </trkpt>
      <trkpt lat="42.9432209395" lon="-1.3770503830">
        <ele>772.56</ele>
        <time>2021-05-23T11:51:41Z</time>
      </trkpt>
      <trkpt lat="42.9427779559" lon="-1.3778067660">
        <ele>769.19</ele>
        <time>2021-05-23T11:51:48Z</time>
      </trkpt>
      <trkpt lat="42.9420374148" lon="-1.3785004523">
        <ele>765.83</ele>
        <time>2021-05-23T11:51:57Z</time>
      </trkpt>
      <trkpt lat="42.9416714609" lon="-1.3787411805">
        <ele>763.90</ele>
        <time>2021-05-23T11:52:01Z</time>
      </trkpt>
      <trkpt lat="42.9415707942" lon="-1.3787738699">
        <ele>763.42</ele>
        <time>2021-05-23T11:52:02Z</time>
      </trkpt>
      <trkpt lat="42.9414663557" lon="-1.3787846826">
        <ele>762.94</ele>
        <time>2021-05-23T11:52:03Z</time>
      </trkpt>
      <trkpt lat="42.9413662758" lon="-1.3787629735">
        <ele>762.46</ele>
        <time>2021-05-23T11:52:04Z</time>
      </trkpt>
      <trkpt lat="42.9412667826" lon="-1.3787143584">
        <ele>762.46</ele>
        <time>2021-05-23T11:52:05Z</time>
      </trkpt>
      <trkpt lat="42.9411708098" lon="-1.3786478899">
        <ele>761.50</ele>
        <time>2021-05-23T11:52:06Z</time>
      </trkpt>
      <trkpt lat="42.9410789441" lon="-1.3785722852">
        <ele>761.50</ele>
        <time>2021-05-23T11:52:07Z</time>
      </trkpt>
      <trkpt lat="42.9407290835" lon="-1.3782155514">
        <ele>760.54</ele>
        <time>2021-05-23T11:52:11Z</time>
      </trkpt>
      <trkpt lat="42.9406590946" lon="-1.3781041559">
        <ele>760.06</ele>
        <time>2021-05-23T11:52:12Z</time>
      </trkpt>
      <trkpt lat="42.9405979067" lon="-1.3779854681">
        <ele>760.06</ele>
        <time>2021-05-23T11:52:13Z</time>
      </trkpt>
      <trkpt lat="42.9405443463" lon="-1.3778636791">
        <ele>760.06</ele>
        <time>2021-05-23T11:52:14Z</time>
      </trkpt>
      <trkpt lat="42.9404983297" lon="-1.3777379505">
        <ele>760.06</ele>
        <time>2021-05-23T11:52:15Z</time>
      </trkpt>
      <trkpt lat="42.9404607788" lon="-1.3776081149">
        <ele>758.62</ele>
        <time>2021-05-23T11:52:16Z</time>
      </trkpt>
      <trkpt lat="42.9402662348" lon="-1.3769782148">
        <ele>756.21</ele>
        <time>2021-05-23T11:52:21Z</time>
      </trkpt>
      <trkpt lat="42.9402057175" lon="-1.3768689986">
        <ele>755.25</ele>
        <time>2021-05-23T11:52:22Z</time>
      </trkpt>
      <trkpt lat="42.9401326273" lon="-1.3767722715">
        <ele>755.25</ele>
        <time>2021-05-23T11:52:23Z</time>
      </trkpt>
      <trkpt lat="42.9400509875" lon="-1.3766861893">
        <ele>754.29</ele>
        <time>2021-05-23T11:52:24Z</time>
      </trkpt>
      <trkpt lat="42.9395103548" lon="-1.3763618097">
        <ele>752.37</ele>
        <time>2021-05-23T11:52:30Z</time>
      </trkpt>
      <trkpt lat="42.9394363426" lon="-1.3763454650">
        <ele>751.89</ele>
        <time>2021-05-23T11:52:31Z</time>
      </trkpt>
      <trkpt lat="42.9393145535" lon="-1.3763673417">
        <ele>751.89</ele>
        <time>2021-05-23T11:52:32Z</time>
      </trkpt>
      <trkpt lat="42.9392220173" lon="-1.3764176331">
        <ele>751.41</ele>
        <time>2021-05-23T11:52:33Z</time>
      </trkpt>
      <trkpt lat="42.9391442332" lon="-1.3764892984">
        <ele>750.93</ele>
        <time>2021-05-23T11:52:34Z</time>
      </trkpt>
      <trkpt lat="42.9388400540" lon="-1.3768170308">
        <ele>749.49</ele>
        <time>2021-05-23T11:52:38Z</time>
      </trkpt>
      <trkpt lat="42.9387553129" lon="-1.3768669870">
        <ele>749.00</ele>
        <time>2021-05-23T11:52:39Z</time>
      </trkpt>
      <trkpt lat="42.9386640340" lon="-1.3769038673">
        <ele>749.00</ele>
        <time>2021-05-23T11:52:40Z</time>
      </trkpt>
      <trkpt lat="42.9385662172" lon="-1.3769295998">
        <ele>748.52</ele>
        <time>2021-05-23T11:52:41Z</time>
      </trkpt>
      <trkpt lat="42.9375128634" lon="-1.3768779673">
        <ele>745.16</ele>
        <time>2021-05-23T11:52:53Z</time>
      </trkpt>
      <trkpt lat="42.9370838776" lon="-1.3768379018">
        <ele>742.76</ele>
        <time>2021-05-23T11:52:58Z</time>
      </trkpt>
      <trkpt lat="42.9368444905" lon="-1.3768422604">
        <ele>742.76</ele>
        <time>2021-05-23T11:53:01Z</time>
      </trkpt>
      <trkpt lat="42.9366035946" lon="-1.3769306056">
        <ele>743.24</ele>
        <time>2021-05-23T11:53:04Z</time>
      </trkpt>
      <trkpt lat="42.9365302529" lon="-1.3769839145">
        <ele>742.28</ele>
        <time>2021-05-23T11:53:05Z</time>
      </trkpt>
      <trkpt lat="42.9364616051" lon="-1.3770477008">
        <ele>742.28</ele>
        <time>2021-05-23T11:53:06Z</time>
      </trkpt>
      <trkpt lat="42.9356048908" lon="-1.3778566383">
        <ele>741.79</ele>
        <time>2021-05-23T11:53:19Z</time>
      </trkpt>
      <trkpt lat="42.9351474065" lon="-1.3780625816">
        <ele>741.31</ele>
        <time>2021-05-23T11:53:25Z</time>
      </trkpt>
      <trkpt lat="42.9350650962" lon="-1.3780704606">
        <ele>741.31</ele>
        <time>2021-05-23T11:53:26Z</time>
      </trkpt>
      <trkpt lat="42.9340354633" lon="-1.3780230191">
        <ele>738.91</ele>
        <time>2021-05-23T11:53:39Z</time>
      </trkpt>
      <trkpt lat="42.9330764059" lon="-1.3780567981">
        <ele>736.03</ele>
        <time>2021-05-23T11:53:51Z</time>
      </trkpt>
      <trkpt lat="42.9329904076" lon="-1.3780832849">
        <ele>735.55</ele>
        <time>2021-05-23T11:53:52Z</time>
      </trkpt>
      <trkpt lat="42.9328251164" lon="-1.3781483285">
        <ele>735.07</ele>
        <time>2021-05-23T11:53:54Z</time>
      </trkpt>
      <trkpt lat="42.9323531315" lon="-1.3784160465">
        <ele>733.62</ele>
        <time>2021-05-23T11:54:00Z</time>
      </trkpt>
      <trkpt lat="42.9322714079" lon="-1.3784426171">
        <ele>733.62</ele>
        <time>2021-05-23T11:54:01Z</time>
      </trkpt>
      <trkpt lat="42.9321869183" lon="-1.3784621470">
        <ele>733.14</ele>
        <time>2021-05-23T11:54:02Z</time>
      </trkpt>
      <trkpt lat="42.9309712071" lon="-1.3788718544">
        <ele>730.26</ele>
        <time>2021-05-23T11:54:17Z</time>
      </trkpt>
      <trkpt lat="42.9305627570" lon="-1.3789623789">
        <ele>728.82</ele>
        <time>2021-05-23T11:54:22Z</time>
      </trkpt>
      <trkpt lat="42.9304770939" lon="-1.3789504766">
        <ele>728.34</ele>
        <time>2021-05-23T11:54:23Z</time>
      </trkpt>
      <trkpt lat="42.9303905927" lon="-1.3789239898">
        <ele>727.86</ele>
        <time>2021-05-23T11:54:24Z</time>
      </trkpt>
      <trkpt lat="42.9294446111" lon="-1.3784973510">
        <ele>724.97</ele>
        <time>2021-05-23T11:54:35Z</time>
      </trkpt>
      <trkpt lat="42.9287587199" lon="-1.3782263640">
        <ele>722.57</ele>
        <time>2021-05-23T11:54:43Z</time>
      </trkpt>
      <trkpt lat="42.9286731407" lon="-1.3782192394">
        <ele>722.57</ele>
        <time>2021-05-23T11:54:44Z</time>
      </trkpt>
      <trkpt lat="42.9285902437" lon="-1.3782417029">
        <ele>722.57</ele>
        <time>2021-05-23T11:54:45Z</time>
      </trkpt>
      <trkpt lat="42.9285163991" lon="-1.3782870490">
        <ele>722.57</ele>
        <time>2021-05-23T11:54:46Z</time>
      </trkpt>
      <trkpt lat="42.9284464102" lon="-1.3783406932">
        <ele>722.09</ele>
        <time>2021-05-23T11:54:47Z</time>
      </trkpt>
      <trkpt lat="42.9283740744" lon="-1.3783849496">
        <ele>722.09</ele>
        <time>2021-05-23T11:54:48Z</time>
      </trkpt>
      <trkpt lat="42.9283002298" lon="-1.3784113526">
        <ele>722.09</ele>
        <time>2021-05-23T11:54:49Z</time>
      </trkpt>
      <trkpt lat="42.9282215238" lon="-1.3784228358">
        <ele>722.09</ele>
        <time>2021-05-23T11:54:50Z</time>
      </trkpt>
      <trkpt lat="42.9281506129" lon="-1.3784121908">
        <ele>722.09</ele>
        <time>2021-05-23T11:54:51Z</time>
      </trkpt>
      <trkpt lat="42.9280765168" lon="-1.3784001209">
        <ele>721.61</ele>
        <time>2021-05-23T11:54:52Z</time>
      </trkpt>
      <trkpt lat="42.9266184848" lon="-1.3781534415">
        <ele>717.76</ele>
        <time>2021-05-23T11:55:11Z</time>
      </trkpt>
      <trkpt lat="42.9258465115" lon="-1.3781396113">
        <ele>714.88</ele>
        <time>2021-05-23T11:55:21Z</time>
      </trkpt>
      <trkpt lat="42.9244441353" lon="-1.3781694509">
        <ele>711.03</ele>
        <time>2021-05-23T11:55:39Z</time>
      </trkpt>
      <trkpt lat="42.9242915008" lon="-1.3781676069">
        <ele>710.55</ele>
        <time>2021-05-23T11:55:41Z</time>
      </trkpt>
      <trkpt lat="42.9236647021" lon="-1.3781385217">
        <ele>711.99</ele>
        <time>2021-05-23T11:55:50Z</time>
      </trkpt>
      <trkpt lat="42.9235516302" lon="-1.3781190757">
        <ele>711.99</ele>
        <time>2021-05-23T11:55:52Z</time>
      </trkpt>
      <trkpt lat="42.9234984051" lon="-1.3780990429">
        <ele>711.99</ele>
        <time>2021-05-23T11:55:53Z</time>
      </trkpt>
      <trkpt lat="42.9234438390" lon="-1.3780698739">
        <ele>711.99</ele>
        <time>2021-05-23T11:55:54Z</time>
      </trkpt>
      <trkpt lat="42.9233943857" lon="-1.3780352566">
        <ele>711.99</ele>
        <time>2021-05-23T11:55:55Z</time>
      </trkpt>
      <trkpt lat="42.9233449325" lon="-1.3779947720">
        <ele>711.99</ele>
        <time>2021-05-23T11:55:56Z</time>
      </trkpt>
      <trkpt lat="42.9232970718" lon="-1.3779511862">
        <ele>710.07</ele>
        <time>2021-05-23T11:55:57Z</time>
      </trkpt>
      <trkpt lat="42.9232497141" lon="-1.3779076841">
        <ele>710.07</ele>
        <time>2021-05-23T11:55:58Z</time>
      </trkpt>
      <trkpt lat="42.9231496342" lon="-1.3778274693">
        <ele>711.51</ele>
        <time>2021-05-23T11:56:00Z</time>
      </trkpt>
      <trkpt lat="42.9230933078" lon="-1.3777975459">
        <ele>711.51</ele>
        <time>2021-05-23T11:56:01Z</time>
      </trkpt>
      <trkpt lat="42.9230323713" lon="-1.3777789380">
        <ele>711.51</ele>
        <time>2021-05-23T11:56:02Z</time>
      </trkpt>
      <trkpt lat="42.9229677469" lon="-1.3777700532">
        <ele>711.51</ele>
        <time>2021-05-23T11:56:03Z</time>
      </trkpt>
      <trkpt lat="42.9229010269" lon="-1.3777650241">
        <ele>711.51</ele>
        <time>2021-05-23T11:56:04Z</time>
      </trkpt>
      <trkpt lat="42.9226216581" lon="-1.3777442370">
        <ele>708.15</ele>
        <time>2021-05-23T11:56:08Z</time>
      </trkpt>
      <trkpt lat="42.9215823021" lon="-1.3778775930">
        <ele>704.78</ele>
        <time>2021-05-23T11:56:22Z</time>
      </trkpt>
      <trkpt lat="42.9206696805" lon="-1.3780164812">
        <ele>700.94</ele>
        <time>2021-05-23T11:56:34Z</time>
      </trkpt>
      <trkpt lat="42.9198403750" lon="-1.3781335764">
        <ele>700.46</ele>
        <time>2021-05-23T11:56:45Z</time>
      </trkpt>
      <trkpt lat="42.9197644349" lon="-1.3781280443">
        <ele>700.46</ele>
        <time>2021-05-23T11:56:46Z</time>
      </trkpt>
      <trkpt lat="42.9196924344" lon="-1.3781143818">
        <ele>700.46</ele>
        <time>2021-05-23T11:56:47Z</time>
      </trkpt>
      <trkpt lat="42.9196239542" lon="-1.3780904096">
        <ele>700.46</ele>
        <time>2021-05-23T11:56:48Z</time>
      </trkpt>
      <trkpt lat="42.9186599515" lon="-1.3775558956">
        <ele>699.98</ele>
        <time>2021-05-23T11:57:02Z</time>
      </trkpt>
      <trkpt lat="42.9176857229" lon="-1.3773115631">
        <ele>698.05</ele>
        <time>2021-05-23T11:57:15Z</time>
      </trkpt>
      <trkpt lat="42.9166240711" lon="-1.3775317557">
        <ele>695.17</ele>
        <time>2021-05-23T11:57:29Z</time>
      </trkpt>
      <trkpt lat="42.9164064769" lon="-1.3775279839">
        <ele>694.69</ele>
        <time>2021-05-23T11:57:32Z</time>
      </trkpt>
      <trkpt lat="42.9163249210" lon="-1.3775080349">
        <ele>694.69</ele>
        <time>2021-05-23T11:57:33Z</time>
      </trkpt>
      <trkpt lat="42.9153630137" lon="-1.3773902692">
        <ele>692.77</ele>
        <time>2021-05-23T11:57:46Z</time>
      </trkpt>
      <trkpt lat="42.9146934673" lon="-1.3774308376">
        <ele>692.29</ele>
        <time>2021-05-23T11:57:55Z</time>
      </trkpt>
      <trkpt lat="42.9146249872" lon="-1.3774607610">
        <ele>691.33</ele>
        <time>2021-05-23T11:57:56Z</time>
      </trkpt>
      <trkpt lat="42.9145615362" lon="-1.3774979766">
        <ele>690.84</ele>
        <time>2021-05-23T11:57:57Z</time>
      </trkpt>
      <trkpt lat="42.9144942295" lon="-1.3775499444">
        <ele>690.84</ele>
        <time>2021-05-23T11:57:58Z</time>
      </trkpt>
      <trkpt lat="42.9144383222" lon="-1.3776039239">
        <ele>690.84</ele>
        <time>2021-05-23T11:57:59Z</time>
      </trkpt>
      <trkpt lat="42.9143759608" lon="-1.3776698895">
        <ele>690.84</ele>
        <time>2021-05-23T11:58:00Z</time>
      </trkpt>
      <trkpt lat="42.9143219814" lon="-1.3777330890">
        <ele>690.84</ele>
        <time>2021-05-23T11:58:01Z</time>
      </trkpt>
      <trkpt lat="42.9138440453" lon="-1.3783687726">
        <ele>689.40</ele>
        <time>2021-05-23T11:58:10Z</time>
      </trkpt>
      <trkpt lat="42.9138007108" lon="-1.3784479816">
        <ele>688.92</ele>
        <time>2021-05-23T11:58:11Z</time>
      </trkpt>
      <trkpt lat="42.9137624893" lon="-1.3785383385">
        <ele>688.44</ele>
        <time>2021-05-23T11:58:12Z</time>
      </trkpt>
      <trkpt lat="42.9137332365" lon="-1.3786282763">
        <ele>688.44</ele>
        <time>2021-05-23T11:58:13Z</time>
      </trkpt>
      <trkpt lat="42.9137102701" lon="-1.3787182141">
        <ele>688.44</ele>
        <time>2021-05-23T11:58:14Z</time>
      </trkpt>
      <trkpt lat="42.9136866331" lon="-1.3788247481">
        <ele>688.44</ele>
        <time>2021-05-23T11:58:15Z</time>
      </trkpt>
      <trkpt lat="42.9134118743" lon="-1.3799924310">
        <ele>686.52</ele>
        <time>2021-05-23T11:58:27Z</time>
      </trkpt>
      <trkpt lat="42.9133748263" lon="-1.3800857216">
        <ele>686.52</ele>
        <time>2021-05-23T11:58:28Z</time>
      </trkpt>
      <trkpt lat="42.9126812238" lon="-1.3813197892">
        <ele>684.12</ele>
        <time>2021-05-23T11:58:43Z</time>
      </trkpt>
      <trkpt lat="42.9124832433" lon="-1.3816375472">
        <ele>682.19</ele>
        <time>2021-05-23T11:58:47Z</time>
      </trkpt>
      <trkpt lat="42.9124238156" lon="-1.3816989865">
        <ele>682.19</ele>
        <time>2021-05-23T11:58:48Z</time>
      </trkpt>
      <trkpt lat="42.9123532400" lon="-1.3817402255">
        <ele>681.71</ele>
        <time>2021-05-23T11:58:49Z</time>
      </trkpt>
      <trkpt lat="42.9122773837" lon="-1.3817515410">
        <ele>681.71</ele>
        <time>2021-05-23T11:58:50Z</time>
      </trkpt>
      <trkpt lat="42.9122027010" lon="-1.3817430753">
        <ele>680.75</ele>
        <time>2021-05-23T11:58:51Z</time>
      </trkpt>
      <trkpt lat="42.9121276829" lon="-1.3817272335">
        <ele>680.75</ele>
        <time>2021-05-23T11:58:52Z</time>
      </trkpt>
      <trkpt lat="42.9109220300" lon="-1.3814976532">
        <ele>677.39</ele>
        <time>2021-05-23T11:59:07Z</time>
      </trkpt>
      <trkpt lat="42.9099468794" lon="-1.3811446074">
        <ele>675.46</ele>
        <time>2021-05-23T11:59:20Z</time>
      </trkpt>
      <trkpt lat="42.9087749217" lon="-1.3803744782">
        <ele>673.54</ele>
        <time>2021-05-23T11:59:38Z</time>
      </trkpt>
      <trkpt lat="42.9075216595" lon="-1.3795811310">
        <ele>671.62</ele>
        <time>2021-05-23T11:59:57Z</time>
      </trkpt>
      <trkpt lat="42.9067516979" lon="-1.3791635446">
        <ele>671.14</ele>
        <time>2021-05-23T12:00:12Z</time>
      </trkpt>
      <trkpt lat="42.9065367021" lon="-1.3791055419">
        <ele>671.14</ele>
        <time>2021-05-23T12:00:16Z</time>
      </trkpt>
      <trkpt lat="42.9064759333" lon="-1.3790955674">
        <ele>671.14</ele>
        <time>2021-05-23T12:00:17Z</time>
      </trkpt>
      <trkpt lat="42.9064223729" lon="-1.3790872693">
        <ele>671.14</ele>
        <time>2021-05-23T12:00:18Z</time>
      </trkpt>
      <trkpt lat="42.9061008431" lon="-1.3790464494">
        <ele>671.14</ele>
        <time>2021-05-23T12:00:24Z</time>
      </trkpt>
      <trkpt lat="42.9059969075" lon="-1.3790452760">
        <ele>672.10</ele>
        <time>2021-05-23T12:00:26Z</time>
      </trkpt>
      <trkpt lat="42.9055297840" lon="-1.3790648058">
        <ele>672.58</ele>
        <time>2021-05-23T12:00:35Z</time>
      </trkpt>
      <trkpt lat="42.9047464114" lon="-1.3794473559">
        <ele>670.66</ele>
        <time>2021-05-23T12:00:48Z</time>
      </trkpt>
      <trkpt lat="42.9041797109" lon="-1.3797589112">
        <ele>668.25</ele>
        <time>2021-05-23T12:00:56Z</time>
      </trkpt>
      <trkpt lat="42.9041046929" lon="-1.3797740825">
        <ele>668.25</ele>
        <time>2021-05-23T12:00:57Z</time>
      </trkpt>
      <trkpt lat="42.9040297586" lon="-1.3797726575">
        <ele>668.25</ele>
        <time>2021-05-23T12:00:58Z</time>
      </trkpt>
      <trkpt lat="42.9039559141" lon="-1.3797574025">
        <ele>668.25</ele>
        <time>2021-05-23T12:00:59Z</time>
      </trkpt>
      <trkpt lat="42.9038832430" lon="-1.3797307480">
        <ele>667.77</ele>
        <time>2021-05-23T12:01:00Z</time>
      </trkpt>
      <trkpt lat="42.9033164587" lon="-1.3794117328">
        <ele>664.41</ele>
        <time>2021-05-23T12:01:08Z</time>
      </trkpt>
      <trkpt lat="42.9027390294" lon="-1.3790208846">
        <ele>661.52</ele>
        <time>2021-05-23T12:01:16Z</time>
      </trkpt>
      <trkpt lat="42.9025233630" lon="-1.3789013587">
        <ele>660.56</ele>
        <time>2021-05-23T12:01:19Z</time>
      </trkpt>
      <trkpt lat="42.9014518205" lon="-1.3786824234">
        <ele>660.56</ele>
        <time>2021-05-23T12:01:34Z</time>
      </trkpt>
      <trkpt lat="42.9003897496" lon="-1.3787093293">
        <ele>658.16</ele>
        <time>2021-05-23T12:01:49Z</time>
      </trkpt>
      <trkpt lat="42.8993120044" lon="-1.3786001969">
        <ele>657.20</ele>
        <time>2021-05-23T12:02:04Z</time>
      </trkpt>
      <trkpt lat="42.8983407095" lon="-1.3782883901">
        <ele>654.80</ele>
        <time>2021-05-23T12:02:19Z</time>
      </trkpt>
      <trkpt lat="42.8981333412" lon="-1.3782213349">
        <ele>651.43</ele>
        <time>2021-05-23T12:02:22Z</time>
      </trkpt>
      <trkpt lat="42.8980666213" lon="-1.3782027271">
        <ele>654.31</ele>
        <time>2021-05-23T12:02:23Z</time>
      </trkpt>
      <trkpt lat="42.8969323821" lon="-1.3778558001">
        <ele>652.87</ele>
        <time>2021-05-23T12:02:40Z</time>
      </trkpt>
      <trkpt lat="42.8956709895" lon="-1.3774913549">
        <ele>649.99</ele>
        <time>2021-05-23T12:02:58Z</time>
      </trkpt>
      <trkpt lat="42.8952372260" lon="-1.3774543907">
        <ele>649.03</ele>
        <time>2021-05-23T12:03:04Z</time>
      </trkpt>
      <trkpt lat="42.8941010591" lon="-1.3778743241">
        <ele>647.59</ele>
        <time>2021-05-23T12:03:20Z</time>
      </trkpt>
      <trkpt lat="42.8930931352" lon="-1.3783408608">
        <ele>646.62</ele>
        <time>2021-05-23T12:03:36Z</time>
      </trkpt>
      <trkpt lat="42.8929612041" lon="-1.3783334848">
        <ele>646.14</ele>
        <time>2021-05-23T12:03:38Z</time>
      </trkpt>
      <trkpt lat="42.8929103259" lon="-1.3783194032">
        <ele>646.14</ele>
        <time>2021-05-23T12:03:39Z</time>
      </trkpt>
      <trkpt lat="42.8928513173" lon="-1.3782934193">
        <ele>645.66</ele>
        <time>2021-05-23T12:03:40Z</time>
      </trkpt>
      <trkpt lat="42.8921558708" lon="-1.3776406366">
        <ele>644.22</ele>
        <time>2021-05-23T12:03:53Z</time>
      </trkpt>
      <trkpt lat="42.8910252359" lon="-1.3765878696">
        <ele>642.78</ele>
        <time>2021-05-23T12:04:13Z</time>
      </trkpt>
      <trkpt lat="42.8905731160" lon="-1.3765255082">
        <ele>642.30</ele>
        <time>2021-05-23T12:04:20Z</time>
      </trkpt>
      <trkpt lat="42.8895398788" lon="-1.3769634627">
        <ele>639.89</ele>
        <time>2021-05-23T12:04:36Z</time>
      </trkpt>
      <trkpt lat="42.8887431789" lon="-1.3776258845">
        <ele>637.97</ele>
        <time>2021-05-23T12:04:49Z</time>
      </trkpt>
      <trkpt lat="42.8879062459" lon="-1.3779003918">
        <ele>637.01</ele>
        <time>2021-05-23T12:05:01Z</time>
      </trkpt>
      <trkpt lat="42.8878375143" lon="-1.3779112045">
        <ele>637.01</ele>
        <time>2021-05-23T12:05:02Z</time>
      </trkpt>
      <trkpt lat="42.8868001699" lon="-1.3779511862">
        <ele>636.05</ele>
        <time>2021-05-23T12:05:18Z</time>
      </trkpt>
      <trkpt lat="42.8859195672" lon="-1.3778828736">
        <ele>632.68</ele>
        <time>2021-05-23T12:05:32Z</time>
      </trkpt>
      <trkpt lat="42.8848671354" lon="-1.3775167521">
        <ele>631.72</ele>
        <time>2021-05-23T12:05:48Z</time>
      </trkpt>
      <trkpt lat="42.8837815113" lon="-1.3771589287">
        <ele>629.32</ele>
        <time>2021-05-23T12:06:04Z</time>
      </trkpt>
      <trkpt lat="42.8837117739" lon="-1.3771695737">
        <ele>629.80</ele>
        <time>2021-05-23T12:06:05Z</time>
      </trkpt>
      <trkpt lat="42.8836453054" lon="-1.3771963958">
        <ele>629.32</ele>
        <time>2021-05-23T12:06:06Z</time>
      </trkpt>
      <trkpt lat="42.8835854586" lon="-1.3772426639">
        <ele>629.32</ele>
        <time>2021-05-23T12:06:07Z</time>
      </trkpt>
      <trkpt lat="42.8835355863" lon="-1.3773082104">
        <ele>629.32</ele>
        <time>2021-05-23T12:06:08Z</time>
      </trkpt>
      <trkpt lat="42.8834925033" lon="-1.3773787860">
        <ele>629.80</ele>
        <time>2021-05-23T12:06:09Z</time>
      </trkpt>
      <trkpt lat="42.8834558744" lon="-1.3774537202">
        <ele>629.32</ele>
        <time>2021-05-23T12:06:10Z</time>
      </trkpt>
      <trkpt lat="42.8834235203" lon="-1.3775329292">
        <ele>629.32</ele>
        <time>2021-05-23T12:06:11Z</time>
      </trkpt>
      <trkpt lat="42.8830295708" lon="-1.3782647531">
        <ele>628.84</ele>
        <time>2021-05-23T12:06:21Z</time>
      </trkpt>
      <trkpt lat="42.8829747532" lon="-1.3783164695">
        <ele>628.84</ele>
        <time>2021-05-23T12:06:22Z</time>
      </trkpt>
      <trkpt lat="42.8829174209" lon="-1.3783608098">
        <ele>628.84</ele>
        <time>2021-05-23T12:06:23Z</time>
      </trkpt>
      <trkpt lat="42.8828592505" lon="-1.3783976901">
        <ele>628.84</ele>
        <time>2021-05-23T12:06:24Z</time>
      </trkpt>
      <trkpt lat="42.8828003258" lon="-1.3784292899">
        <ele>628.84</ele>
        <time>2021-05-23T12:06:25Z</time>
      </trkpt>
      <trkpt lat="42.8817143664" lon="-1.3789263368">
        <ele>626.44</ele>
        <time>2021-05-23T12:06:43Z</time>
      </trkpt>
      <trkpt lat="42.8803305980" lon="-1.3795898482">
        <ele>624.03</ele>
        <time>2021-05-23T12:07:05Z</time>
      </trkpt>
      <trkpt lat="42.8795485664" lon="-1.3799631782">
        <ele>623.55</ele>
        <time>2021-05-23T12:07:18Z</time>
      </trkpt>
      <trkpt lat="42.8794866242" lon="-1.3799749967">
        <ele>623.55</ele>
        <time>2021-05-23T12:07:19Z</time>
      </trkpt>
      <trkpt lat="42.8794267774" lon="-1.3799768407">
        <ele>623.55</ele>
        <time>2021-05-23T12:07:20Z</time>
      </trkpt>
      <trkpt lat="42.8793635778" lon="-1.3799687102">
        <ele>623.55</ele>
        <time>2021-05-23T12:07:21Z</time>
      </trkpt>
      <trkpt lat="42.8792972770" lon="-1.3799565565">
        <ele>623.55</ele>
        <time>2021-05-23T12:07:22Z</time>
      </trkpt>
      <trkpt lat="42.8782640398" lon="-1.3797278982">
        <ele>620.67</ele>
        <time>2021-05-23T12:07:37Z</time>
      </trkpt>
      <trkpt lat="42.8770729713" lon="-1.3795269001">
        <ele>617.30</ele>
        <time>2021-05-23T12:07:53Z</time>
      </trkpt>
      <trkpt lat="42.8761218768" lon="-1.3795465976">
        <ele>614.42</ele>
        <time>2021-05-23T12:08:07Z</time>
      </trkpt>
      <trkpt lat="42.8752840217" lon="-1.3798858970">
        <ele>613.94</ele>
        <time>2021-05-23T12:08:20Z</time>
      </trkpt>
      <trkpt lat="42.8742976394" lon="-1.3804861251">
        <ele>612.50</ele>
        <time>2021-05-23T12:08:36Z</time>
      </trkpt>
      <trkpt lat="42.8733851016" lon="-1.3810351398">
        <ele>612.50</ele>
        <time>2021-05-23T12:08:52Z</time>
      </trkpt>
      <trkpt lat="42.8725044988" lon="-1.3812197931">
        <ele>612.50</ele>
        <time>2021-05-23T12:09:07Z</time>
      </trkpt>
      <trkpt lat="42.8712229058" lon="-1.3814175222">
        <ele>611.54</ele>
        <time>2021-05-23T12:09:28Z</time>
      </trkpt>
      <trkpt lat="42.8698943742" lon="-1.3816031814">
        <ele>610.57</ele>
        <time>2021-05-23T12:09:49Z</time>
      </trkpt>
      <trkpt lat="42.8684507590" lon="-1.3818270620">
        <ele>607.69</ele>
        <time>2021-05-23T12:10:10Z</time>
      </trkpt>
      <trkpt lat="42.8671624605" lon="-1.3820240367">
        <ele>604.33</ele>
        <time>2021-05-23T12:10:30Z</time>
      </trkpt>
      <trkpt lat="42.8669907153" lon="-1.3820436504">
        <ele>605.77</ele>
        <time>2021-05-23T12:10:32Z</time>
      </trkpt>
      <trkpt lat="42.8660609946" lon="-1.3819465041">
        <ele>605.77</ele>
        <time>2021-05-23T12:10:47Z</time>
      </trkpt>
      <trkpt lat="42.8650905378" lon="-1.3814234734">
        <ele>605.77</ele>
        <time>2021-05-23T12:11:05Z</time>
      </trkpt>
      <trkpt lat="42.8642857075" lon="-1.3807582855">
        <ele>605.29</ele>
        <time>2021-05-23T12:11:23Z</time>
      </trkpt>
      <trkpt lat="42.8639642615" lon="-1.3804952614">
        <ele>604.81</ele>
        <time>2021-05-23T12:11:30Z</time>
      </trkpt>
      <trkpt lat="42.8637263831" lon="-1.3803067524">
        <ele>606.73</ele>
        <time>2021-05-23T12:11:35Z</time>
      </trkpt>
      <trkpt lat="42.8627779707" lon="-1.3795455918">
        <ele>607.21</ele>
        <time>2021-05-23T12:11:54Z</time>
      </trkpt>
      <trkpt lat="42.8626793157" lon="-1.3794725016">
        <ele>607.21</ele>
        <time>2021-05-23T12:11:56Z</time>
      </trkpt>
      <trkpt lat="42.8621054068" lon="-1.3791049551">
        <ele>607.69</ele>
        <time>2021-05-23T12:12:07Z</time>
      </trkpt>
      <trkpt lat="42.8620531876" lon="-1.3790759537">
        <ele>607.69</ele>
        <time>2021-05-23T12:12:08Z</time>
      </trkpt>
      <trkpt lat="42.8613658715" lon="-1.3786603790">
        <ele>609.13</ele>
        <time>2021-05-23T12:12:21Z</time>
      </trkpt>
      <trkpt lat="42.8612079564" lon="-1.3785629813">
        <ele>607.69</ele>
        <time>2021-05-23T12:12:24Z</time>
      </trkpt>
      <trkpt lat="42.8603730351" lon="-1.3779218495">
        <ele>608.65</ele>
        <time>2021-05-23T12:12:41Z</time>
      </trkpt>
      <trkpt lat="42.8599301353" lon="-1.3775409758">
        <ele>606.73</ele>
        <time>2021-05-23T12:12:50Z</time>
      </trkpt>
      <trkpt lat="42.8598326538" lon="-1.3774579950">
        <ele>608.65</ele>
        <time>2021-05-23T12:12:52Z</time>
      </trkpt>
      <trkpt lat="42.8594604135" lon="-1.3771625329">
        <ele>606.73</ele>
        <time>2021-05-23T12:13:00Z</time>
      </trkpt>
      <trkpt lat="42.8592895065" lon="-1.3770295121">
        <ele>607.69</ele>
        <time>2021-05-23T12:13:03Z</time>
      </trkpt>
      <trkpt lat="42.8588832356" lon="-1.3767405041">
        <ele>606.73</ele>
        <time>2021-05-23T12:13:11Z</time>
      </trkpt>
      <trkpt lat="42.8587784618" lon="-1.3766658213">
        <ele>608.17</ele>
        <time>2021-05-23T12:13:13Z</time>
      </trkpt>
      <trkpt lat="42.8582788166" lon="-1.3763633184">
        <ele>608.17</ele>
        <time>2021-05-23T12:13:22Z</time>
      </trkpt>
      <trkpt lat="42.8571822122" lon="-1.3760521822">
        <ele>609.61</ele>
        <time>2021-05-23T12:13:41Z</time>
      </trkpt>
      <trkpt lat="42.8564765397" lon="-1.3760335743">
        <ele>611.06</ele>
        <time>2021-05-23T12:13:56Z</time>
      </trkpt>
      <trkpt lat="42.8557100147" lon="-1.3760209177">
        <ele>612.02</ele>
        <time>2021-05-23T12:14:15Z</time>
      </trkpt>
      <trkpt lat="42.8548312560" lon="-1.3760068361">
        <ele>614.42</ele>
        <time>2021-05-23T12:14:36Z</time>
      </trkpt>
      <trkpt lat="42.8543086443" lon="-1.3760220911">
        <ele>616.82</ele>
        <time>2021-05-23T12:14:50Z</time>
      </trkpt>
      <trkpt lat="42.8536994476" lon="-1.3762790803">
        <ele>619.23</ele>
        <time>2021-05-23T12:15:08Z</time>
      </trkpt>
      <trkpt lat="42.8531951923" lon="-1.3767840900">
        <ele>620.19</ele>
        <time>2021-05-23T12:15:25Z</time>
      </trkpt>
      <trkpt lat="42.8528304119" lon="-1.3775574882">
        <ele>620.19</ele>
        <time>2021-05-23T12:15:40Z</time>
      </trkpt>
      <trkpt lat="42.8527416475" lon="-1.3778682053">
        <ele>618.75</ele>
        <time>2021-05-23T12:15:44Z</time>
      </trkpt>
      <trkpt lat="42.8526843153" lon="-1.3781210873">
        <ele>617.78</ele>
        <time>2021-05-23T12:15:47Z</time>
      </trkpt>
      <trkpt lat="42.8525139112" lon="-1.3796036784">
        <ele>615.86</ele>
        <time>2021-05-23T12:16:03Z</time>
      </trkpt>
      <trkpt lat="42.8523337841" lon="-1.3811482955">
        <ele>615.38</ele>
        <time>2021-05-23T12:16:21Z</time>
      </trkpt>
      <trkpt lat="42.8521658108" lon="-1.3826182298">
        <ele>614.90</ele>
        <time>2021-05-23T12:16:39Z</time>
      </trkpt>
      <trkpt lat="42.8519730270" lon="-1.3840028364">
        <ele>613.94</ele>
        <time>2021-05-23T12:16:56Z</time>
      </trkpt>
      <trkpt lat="42.8515717015" lon="-1.3853248302">
        <ele>613.46</ele>
        <time>2021-05-23T12:17:13Z</time>
      </trkpt>
      <trkpt lat="42.8511469066" lon="-1.3864512742">
        <ele>612.02</ele>
        <time>2021-05-23T12:17:29Z</time>
      </trkpt>
      <trkpt lat="42.8509946913" lon="-1.3874840923">
        <ele>613.46</ele>
        <time>2021-05-23T12:17:45Z</time>
      </trkpt>
      <trkpt lat="42.8510336671" lon="-1.3883638568">
        <ele>616.34</ele>
        <time>2021-05-23T12:18:02Z</time>
      </trkpt>
      <trkpt lat="42.8510876466" lon="-1.3890812639">
        <ele>619.23</ele>
        <time>2021-05-23T12:18:18Z</time>
      </trkpt>
      <trkpt lat="42.8510765824" lon="-1.3896484673">
        <ele>622.59</ele>
        <time>2021-05-23T12:18:32Z</time>
      </trkpt>
      <trkpt lat="42.8509714734" lon="-1.3902666327">
        <ele>625.47</ele>
        <time>2021-05-23T12:18:48Z</time>
      </trkpt>
      <trkpt lat="42.8507972974" lon="-1.3907961175">
        <ele>628.36</ele>
        <time>2021-05-23T12:19:03Z</time>
      </trkpt>
      <trkpt lat="42.8505215328" lon="-1.3913340680">
        <ele>630.76</ele>
        <time>2021-05-23T12:19:21Z</time>
      </trkpt>
      <trkpt lat="42.8501995839" lon="-1.3917610422">
        <ele>633.65</ele>
        <time>2021-05-23T12:19:37Z</time>
      </trkpt>
      <trkpt lat="42.8498400003" lon="-1.3921737671">
        <ele>636.53</ele>
        <time>2021-05-23T12:19:54Z</time>
      </trkpt>
      <trkpt lat="42.8494597971" lon="-1.3926802017">
        <ele>639.41</ele>
        <time>2021-05-23T12:20:13Z</time>
      </trkpt>
      <trkpt lat="42.8493364993" lon="-1.3928884082">
        <ele>640.86</ele>
        <time>2021-05-23T12:20:20Z</time>
      </trkpt>
      <trkpt lat="42.8491144627" lon="-1.3933528494">
        <ele>643.74</ele>
        <time>2021-05-23T12:20:34Z</time>
      </trkpt>
      <trkpt lat="42.8489083517" lon="-1.3939562626">
        <ele>647.10</ele>
        <time>2021-05-23T12:20:50Z</time>
      </trkpt>
      <trkpt lat="42.8487223573" lon="-1.3946497813">
        <ele>650.47</ele>
        <time>2021-05-23T12:21:08Z</time>
      </trkpt>
      <trkpt lat="42.8486200143" lon="-1.3951170724">
        <ele>652.87</ele>
        <time>2021-05-23T12:21:22Z</time>
      </trkpt>
      <trkpt lat="42.8484268952" lon="-1.3956655003">
        <ele>655.76</ele>
        <time>2021-05-23T12:21:39Z</time>
      </trkpt>
      <trkpt lat="42.8481827304" lon="-1.3961944822">
        <ele>659.60</ele>
        <time>2021-05-23T12:21:56Z</time>
      </trkpt>
      <trkpt lat="42.8478374798" lon="-1.3967357017">
        <ele>662.49</ele>
        <time>2021-05-23T12:22:15Z</time>
      </trkpt>
      <trkpt lat="42.8474413510" lon="-1.3973132987">
        <ele>665.37</ele>
        <time>2021-05-23T12:22:34Z</time>
      </trkpt>
      <trkpt lat="42.8471390158" lon="-1.3978178054">
        <ele>668.25</ele>
        <time>2021-05-23T12:22:49Z</time>
      </trkpt>
      <trkpt lat="42.8469127044" lon="-1.3983122539">
        <ele>671.62</ele>
        <time>2021-05-23T12:23:04Z</time>
      </trkpt>
      <trkpt lat="42.8467059229" lon="-1.3989205286">
        <ele>674.50</ele>
        <time>2021-05-23T12:23:21Z</time>
      </trkpt>
      <trkpt lat="42.8465588205" lon="-1.3995800167">
        <ele>677.87</ele>
        <time>2021-05-23T12:23:38Z</time>
      </trkpt>
      <trkpt lat="42.8464822099" lon="-1.4002565201">
        <ele>681.23</ele>
        <time>2021-05-23T12:23:54Z</time>
      </trkpt>
      <trkpt lat="42.8464642726" lon="-1.4009322692">
        <ele>684.60</ele>
        <time>2021-05-23T12:24:09Z</time>
      </trkpt>
      <trkpt lat="42.8464429826" lon="-1.4015362691">
        <ele>688.44</ele>
        <time>2021-05-23T12:24:22Z</time>
      </trkpt>
      <trkpt lat="42.8463321738" lon="-1.4022779837">
        <ele>691.81</ele>
        <time>2021-05-23T12:24:39Z</time>
      </trkpt>
      <trkpt lat="42.8461149987" lon="-1.4032047708">
        <ele>693.73</ele>
        <time>2021-05-23T12:25:00Z</time>
      </trkpt>
      <trkpt lat="42.8459910303" lon="-1.4042204898">
        <ele>692.29</ele>
        <time>2021-05-23T12:25:17Z</time>
      </trkpt>
      <trkpt lat="42.8459883481" lon="-1.4042955078">
        <ele>692.29</ele>
        <time>2021-05-23T12:25:18Z</time>
      </trkpt>
      <trkpt lat="42.8460017592" lon="-1.4052806329">
        <ele>689.40</ele>
        <time>2021-05-23T12:25:31Z</time>
      </trkpt>
      <trkpt lat="42.8460401483" lon="-1.4062566217">
        <ele>686.04</ele>
        <time>2021-05-23T12:25:44Z</time>
      </trkpt>
      <trkpt lat="42.8460688982" lon="-1.4069886971">
        <ele>682.67</ele>
        <time>2021-05-23T12:25:53Z</time>
      </trkpt>
      <trkpt lat="42.8457896970" lon="-1.4083154686">
        <ele>682.67</ele>
        <time>2021-05-23T12:25:54Z</time>
      </trkpt>
      <trkpt lat="42.8456446901" lon="-1.4087679237">
        <ele>681.23</ele>
        <time>2021-05-23T12:25:58Z</time>
      </trkpt>
      <trkpt lat="42.8452131897" lon="-1.4099978842">
        <ele>677.87</ele>
        <time>2021-05-23T12:26:09Z</time>
      </trkpt>
      <trkpt lat="42.8449230082" lon="-1.4104722161">
        <ele>674.50</ele>
        <time>2021-05-23T12:26:14Z</time>
      </trkpt>
      <trkpt lat="42.8447826114" lon="-1.4106369205">
        <ele>671.14</ele>
        <time>2021-05-23T12:26:16Z</time>
      </trkpt>
      <trkpt lat="42.8447043244" lon="-1.4107149560">
        <ele>671.14</ele>
        <time>2021-05-23T12:26:17Z</time>
      </trkpt>
      <trkpt lat="42.8441272303" lon="-1.4111093245">
        <ele>668.25</ele>
        <time>2021-05-23T12:26:24Z</time>
      </trkpt>
      <trkpt lat="42.8440396395" lon="-1.4111440256">
        <ele>668.25</ele>
        <time>2021-05-23T12:26:25Z</time>
      </trkpt>
      <trkpt lat="42.8435918782" lon="-1.4112344664">
        <ele>664.89</ele>
        <time>2021-05-23T12:26:30Z</time>
      </trkpt>
      <trkpt lat="42.8432276007" lon="-1.4112298563">
        <ele>661.52</ele>
        <time>2021-05-23T12:26:34Z</time>
      </trkpt>
      <trkpt lat="42.8428473976" lon="-1.4112130925">
        <ele>656.72</ele>
        <time>2021-05-23T12:26:38Z</time>
      </trkpt>
      <trkpt lat="42.8423595708" lon="-1.4112860989">
        <ele>653.35</ele>
        <time>2021-05-23T12:26:43Z</time>
      </trkpt>
      <trkpt lat="42.8413011879" lon="-1.4116421621">
        <ele>649.99</ele>
        <time>2021-05-23T12:26:54Z</time>
      </trkpt>
      <trkpt lat="42.8410033789" lon="-1.4116486162">
        <ele>646.62</ele>
        <time>2021-05-23T12:26:57Z</time>
      </trkpt>
      <trkpt lat="42.8404873889" lon="-1.4115915354">
        <ele>643.74</ele>
        <time>2021-05-23T12:27:02Z</time>
      </trkpt>
      <trkpt lat="42.8402777575" lon="-1.4115761127">
        <ele>642.30</ele>
        <time>2021-05-23T12:27:04Z</time>
      </trkpt>
      <trkpt lat="42.8399625979" lon="-1.4115870930">
        <ele>638.93</ele>
        <time>2021-05-23T12:27:07Z</time>
      </trkpt>
      <trkpt lat="42.8396611009" lon="-1.4116544835">
        <ele>635.57</ele>
        <time>2021-05-23T12:27:10Z</time>
      </trkpt>
      <trkpt lat="42.8394694068" lon="-1.4117203653">
        <ele>635.09</ele>
        <time>2021-05-23T12:27:12Z</time>
      </trkpt>
      <trkpt lat="42.8389028739" lon="-1.4119724929">
        <ele>632.20</ele>
        <time>2021-05-23T12:27:18Z</time>
      </trkpt>
      <trkpt lat="42.8384438809" lon="-1.4121536259">
        <ele>629.80</ele>
        <time>2021-05-23T12:27:23Z</time>
      </trkpt>
      <trkpt lat="42.8379835468" lon="-1.4122758340">
        <ele>626.92</ele>
        <time>2021-05-23T12:27:28Z</time>
      </trkpt>
      <trkpt lat="42.8374356218" lon="-1.4123321604">
        <ele>623.55</ele>
        <time>2021-05-23T12:27:34Z</time>
      </trkpt>
      <trkpt lat="42.8373467736" lon="-1.4123316575">
        <ele>623.55</ele>
        <time>2021-05-23T12:27:35Z</time>
      </trkpt>
      <trkpt lat="42.8367695119" lon="-1.4122672845">
        <ele>620.19</ele>
        <time>2021-05-23T12:27:42Z</time>
      </trkpt>
      <trkpt lat="42.8357644379" lon="-1.4119244646">
        <ele>617.78</ele>
        <time>2021-05-23T12:27:55Z</time>
      </trkpt>
      <trkpt lat="42.8344123531" lon="-1.4112056326">
        <ele>614.42</ele>
        <time>2021-05-23T12:28:13Z</time>
      </trkpt>
      <trkpt lat="42.8332064487" lon="-1.4108282793">
        <ele>611.54</ele>
        <time>2021-05-23T12:28:27Z</time>
      </trkpt>
      <trkpt lat="42.8325031232" lon="-1.4106173068">
        <ele>608.17</ele>
        <time>2021-05-23T12:28:35Z</time>
      </trkpt>
      <trkpt lat="42.8316112049" lon="-1.4105174784">
        <ele>604.81</ele>
        <time>2021-05-23T12:28:45Z</time>
      </trkpt>
      <trkpt lat="42.8305649757" lon="-1.4104853757">
        <ele>601.44</ele>
        <time>2021-05-23T12:28:57Z</time>
      </trkpt>
      <trkpt lat="42.8303979244" lon="-1.4104774967">
        <ele>600.48</ele>
        <time>2021-05-23T12:28:59Z</time>
      </trkpt>
      <trkpt lat="42.8296808526" lon="-1.4103835355">
        <ele>597.12</ele>
        <time>2021-05-23T12:29:08Z</time>
      </trkpt>
      <trkpt lat="42.8284274228" lon="-1.4099599980">
        <ele>594.71</ele>
        <time>2021-05-23T12:29:25Z</time>
      </trkpt>
      <trkpt lat="42.8274173196" lon="-1.4094450139">
        <ele>591.83</ele>
        <time>2021-05-23T12:29:40Z</time>
      </trkpt>
      <trkpt lat="42.8269279841" lon="-1.4090758748">
        <ele>588.95</ele>
        <time>2021-05-23T12:29:48Z</time>
      </trkpt>
      <trkpt lat="42.8259373270" lon="-1.4082515147">
        <ele>587.98</ele>
        <time>2021-05-23T12:30:04Z</time>
      </trkpt>
      <trkpt lat="42.8246794548" lon="-1.4073116519">
        <ele>585.58</ele>
        <time>2021-05-23T12:30:24Z</time>
      </trkpt>
      <trkpt lat="42.8237825073" lon="-1.4070073050">
        <ele>584.62</ele>
        <time>2021-05-23T12:30:38Z</time>
      </trkpt>
      <trkpt lat="42.8226967994" lon="-1.4070586022">
        <ele>582.70</ele>
        <time>2021-05-23T12:30:56Z</time>
      </trkpt>
      <trkpt lat="42.8224609327" lon="-1.4071296807">
        <ele>583.66</ele>
        <time>2021-05-23T12:31:00Z</time>
      </trkpt>
      <trkpt lat="42.8217645641" lon="-1.4074455947">
        <ele>582.70</ele>
        <time>2021-05-23T12:31:13Z</time>
      </trkpt>
      <trkpt lat="42.8207622562" lon="-1.4078692999">
        <ele>581.25</ele>
        <time>2021-05-23T12:31:32Z</time>
      </trkpt>
      <trkpt lat="42.8197483812" lon="-1.4078725688">
        <ele>579.33</ele>
        <time>2021-05-23T12:31:49Z</time>
      </trkpt>
      <trkpt lat="42.8187579755" lon="-1.4073751867">
        <ele>577.89</ele>
        <time>2021-05-23T12:32:07Z</time>
      </trkpt>
      <trkpt lat="42.8177150991" lon="-1.4067286905">
        <ele>575.01</ele>
        <time>2021-05-23T12:32:25Z</time>
      </trkpt>
      <trkpt lat="42.8168185707" lon="-1.4063902292">
        <ele>572.12</ele>
        <time>2021-05-23T12:32:39Z</time>
      </trkpt>
      <trkpt lat="42.8157792985" lon="-1.4061045740">
        <ele>568.76</ele>
        <time>2021-05-23T12:32:54Z</time>
      </trkpt>
      <trkpt lat="42.8147966880" lon="-1.4057383686">
        <ele>565.39</ele>
        <time>2021-05-23T12:33:07Z</time>
      </trkpt>
      <trkpt lat="42.8135476168" lon="-1.4050127473">
        <ele>562.51</ele>
        <time>2021-05-23T12:33:23Z</time>
      </trkpt>
      <trkpt lat="42.8126445506" lon="-1.4044695161">
        <ele>559.14</ele>
        <time>2021-05-23T12:33:35Z</time>
      </trkpt>
      <trkpt lat="42.8114536498" lon="-1.4037635922">
        <ele>557.70</ele>
        <time>2021-05-23T12:33:53Z</time>
      </trkpt>
      <trkpt lat="42.8105954267" lon="-1.4032078721">
        <ele>556.74</ele>
        <time>2021-05-23T12:34:09Z</time>
      </trkpt>
      <trkpt lat="42.8103255294" lon="-1.4030020963">
        <ele>558.18</ele>
        <time>2021-05-23T12:34:16Z</time>
      </trkpt>
      <trkpt lat="42.8097340185" lon="-1.4024149440">
        <ele>559.62</ele>
        <time>2021-05-23T12:34:35Z</time>
      </trkpt>
      <trkpt lat="42.8092272487" lon="-1.4018318150">
        <ele>559.62</ele>
        <time>2021-05-23T12:34:52Z</time>
      </trkpt>
      <trkpt lat="42.8088185471" lon="-1.4013378695">
        <ele>562.03</ele>
        <time>2021-05-23T12:35:08Z</time>
      </trkpt>
      <trkpt lat="42.8083358333" lon="-1.4008665551">
        <ele>563.95</ele>
        <time>2021-05-23T12:35:26Z</time>
      </trkpt>
      <trkpt lat="42.8079718910" lon="-1.4005888626">
        <ele>565.87</ele>
        <time>2021-05-23T12:35:40Z</time>
      </trkpt>
      <trkpt lat="42.8075233754" lon="-1.4002102520">
        <ele>569.72</ele>
        <time>2021-05-23T12:35:58Z</time>
      </trkpt>
      <trkpt lat="42.8071714193" lon="-1.3997679390">
        <ele>571.64</ele>
        <time>2021-05-23T12:36:16Z</time>
      </trkpt>
      <trkpt lat="42.8068778850" lon="-1.3993003964">
        <ele>574.53</ele>
        <time>2021-05-23T12:36:32Z</time>
      </trkpt>
      <trkpt lat="42.8064901382" lon="-1.3987449277">
        <ele>576.93</ele>
        <time>2021-05-23T12:36:52Z</time>
      </trkpt>
      <trkpt lat="42.8060816042" lon="-1.3984234817">
        <ele>580.29</ele>
        <time>2021-05-23T12:37:09Z</time>
      </trkpt>
      <trkpt lat="42.8057167400" lon="-1.3982674945">
        <ele>582.70</ele>
        <time>2021-05-23T12:37:24Z</time>
      </trkpt>
      <trkpt lat="42.8052814677" lon="-1.3982149400">
        <ele>586.06</ele>
        <time>2021-05-23T12:37:40Z</time>
      </trkpt>
      <trkpt lat="42.8049020190" lon="-1.3982622977">
        <ele>587.98</ele>
        <time>2021-05-23T12:37:55Z</time>
      </trkpt>
      <trkpt lat="42.8045151941" lon="-1.3983278442">
        <ele>590.87</ele>
        <time>2021-05-23T12:38:09Z</time>
      </trkpt>
      <trkpt lat="42.8041769005" lon="-1.3983483799">
        <ele>593.27</ele>
        <time>2021-05-23T12:38:22Z</time>
      </trkpt>
      <trkpt lat="42.8038534429" lon="-1.3983085658">
        <ele>596.15</ele>
        <time>2021-05-23T12:38:35Z</time>
      </trkpt>
      <trkpt lat="42.8034114651" lon="-1.3981592841">
        <ele>598.08</ele>
        <time>2021-05-23T12:38:52Z</time>
      </trkpt>
      <trkpt lat="42.8032665420" lon="-1.3980696816">
        <ele>600.00</ele>
        <time>2021-05-23T12:38:58Z</time>
      </trkpt>
      <trkpt lat="42.8028192837" lon="-1.3976909872">
        <ele>601.92</ele>
        <time>2021-05-23T12:39:18Z</time>
      </trkpt>
      <trkpt lat="42.8024255857" lon="-1.3971678726">
        <ele>604.33</ele>
        <time>2021-05-23T12:39:37Z</time>
      </trkpt>
      <trkpt lat="42.8021535091" lon="-1.3966193609">
        <ele>607.21</ele>
        <time>2021-05-23T12:39:53Z</time>
      </trkpt>
      <trkpt lat="42.8019055724" lon="-1.3960011117">
        <ele>608.65</ele>
        <time>2021-05-23T12:40:09Z</time>
      </trkpt>
      <trkpt lat="42.8016423807" lon="-1.3952661864">
        <ele>611.06</ele>
        <time>2021-05-23T12:40:26Z</time>
      </trkpt>
      <trkpt lat="42.8014188353" lon="-1.3943640422">
        <ele>613.94</ele>
        <time>2021-05-23T12:40:45Z</time>
      </trkpt>
      <trkpt lat="42.8013754170" lon="-1.3935391791">
        <ele>615.38</ele>
        <time>2021-05-23T12:41:02Z</time>
      </trkpt>
      <trkpt lat="42.8015728109" lon="-1.3924421556">
        <ele>618.26</ele>
        <time>2021-05-23T12:41:24Z</time>
      </trkpt>
      <trkpt lat="42.8017776646" lon="-1.3917207252">
        <ele>619.71</ele>
        <time>2021-05-23T12:41:39Z</time>
      </trkpt>
      <trkpt lat="42.8019375913" lon="-1.3908485882">
        <ele>621.63</ele>
        <time>2021-05-23T12:41:56Z</time>
      </trkpt>
      <trkpt lat="42.8018910717" lon="-1.3896041270">
        <ele>622.59</ele>
        <time>2021-05-23T12:42:19Z</time>
      </trkpt>
      <trkpt lat="42.8015667759" lon="-1.3885016553">
        <ele>623.07</ele>
        <time>2021-05-23T12:42:37Z</time>
      </trkpt>
      <trkpt lat="42.8009991534" lon="-1.3875174522">
        <ele>623.55</ele>
        <time>2021-05-23T12:42:53Z</time>
      </trkpt>
      <trkpt lat="42.8006925434" lon="-1.3868953474">
        <ele>622.11</ele>
        <time>2021-05-23T12:43:03Z</time>
      </trkpt>
      <trkpt lat="42.8002276830" lon="-1.3859174307">
        <ele>618.26</ele>
        <time>2021-05-23T12:43:19Z</time>
      </trkpt>
      <trkpt lat="42.7970437333" lon="-1.3831729442">
        <ele>602.40</ele>
        <time>2021-05-23T12:44:06Z</time>
      </trkpt>
      <trkpt lat="42.7964651305" lon="-1.3828603830">
        <ele>599.04</ele>
        <time>2021-05-23T12:44:13Z</time>
      </trkpt>
      <trkpt lat="42.7962160204" lon="-1.3827262726">
        <ele>595.67</ele>
        <time>2021-05-23T12:44:16Z</time>
      </trkpt>
      <trkpt lat="42.7959633898" lon="-1.3825958502">
        <ele>594.23</ele>
        <time>2021-05-23T12:44:19Z</time>
      </trkpt>
      <trkpt lat="42.7957089152" lon="-1.3824674394">
        <ele>592.79</ele>
        <time>2021-05-23T12:44:22Z</time>
      </trkpt>
      <trkpt lat="42.7954396047" lon="-1.3823322393">
        <ele>591.35</ele>
        <time>2021-05-23T12:44:25Z</time>
      </trkpt>
      <trkpt lat="42.7949741576" lon="-1.3820945285">
        <ele>587.98</ele>
        <time>2021-05-23T12:44:30Z</time>
      </trkpt>
      <trkpt lat="42.7946930286" lon="-1.3819467556">
        <ele>584.62</ele>
        <time>2021-05-23T12:44:33Z</time>
      </trkpt>
      <trkpt lat="42.7944036853" lon="-1.3818041794">
        <ele>582.22</ele>
        <time>2021-05-23T12:44:36Z</time>
      </trkpt>
      <trkpt lat="42.7940162737" lon="-1.3816084620">
        <ele>578.85</ele>
        <time>2021-05-23T12:44:40Z</time>
      </trkpt>
      <trkpt lat="42.7936243359" lon="-1.3814025186">
        <ele>575.97</ele>
        <time>2021-05-23T12:44:44Z</time>
      </trkpt>
      <trkpt lat="42.7932276204" lon="-1.3811961561">
        <ele>572.12</ele>
        <time>2021-05-23T12:44:48Z</time>
      </trkpt>
      <trkpt lat="42.7931283787" lon="-1.3811441045">
        <ele>572.12</ele>
        <time>2021-05-23T12:44:49Z</time>
      </trkpt>
      <trkpt lat="42.7928293962" lon="-1.3809910510">
        <ele>569.72</ele>
        <time>2021-05-23T12:44:52Z</time>
      </trkpt>
      <trkpt lat="42.7924279869" lon="-1.3807823416">
        <ele>566.35</ele>
        <time>2021-05-23T12:44:56Z</time>
      </trkpt>
      <trkpt lat="42.7920234762" lon="-1.3805724587">
        <ele>563.47</ele>
        <time>2021-05-23T12:45:00Z</time>
      </trkpt>
      <trkpt lat="42.7916069794" lon="-1.3803759031">
        <ele>560.11</ele>
        <time>2021-05-23T12:45:04Z</time>
      </trkpt>
      <trkpt lat="42.7911781613" lon="-1.3802358415">
        <ele>555.30</ele>
        <time>2021-05-23T12:45:08Z</time>
      </trkpt>
      <trkpt lat="42.7910694480" lon="-1.3802093547">
        <ele>555.30</ele>
        <time>2021-05-23T12:45:09Z</time>
      </trkpt>
      <trkpt lat="42.7906324994" lon="-1.3801407069">
        <ele>551.93</ele>
        <time>2021-05-23T12:45:13Z</time>
      </trkpt>
      <trkpt lat="42.7901986521" lon="-1.3800910860">
        <ele>549.05</ele>
        <time>2021-05-23T12:45:17Z</time>
      </trkpt>
      <trkpt lat="42.7897746954" lon="-1.3800393697">
        <ele>545.20</ele>
        <time>2021-05-23T12:45:21Z</time>
      </trkpt>
      <trkpt lat="42.7896701731" lon="-1.3800243661">
        <ele>545.20</ele>
        <time>2021-05-23T12:45:22Z</time>
      </trkpt>
      <trkpt lat="42.7892606333" lon="-1.3799565565">
        <ele>541.36</ele>
        <time>2021-05-23T12:45:26Z</time>
      </trkpt>
      <trkpt lat="42.7888597269" lon="-1.3798650261">
        <ele>538.48</ele>
        <time>2021-05-23T12:45:30Z</time>
      </trkpt>
      <trkpt lat="42.7883542143" lon="-1.3797019143">
        <ele>534.63</ele>
        <time>2021-05-23T12:45:35Z</time>
      </trkpt>
      <trkpt lat="42.7880673017" lon="-1.3795812149">
        <ele>530.79</ele>
        <time>2021-05-23T12:45:38Z</time>
      </trkpt>
      <trkpt lat="42.7878726739" lon="-1.3794860803">
        <ele>528.86</ele>
        <time>2021-05-23T12:45:40Z</time>
      </trkpt>
      <trkpt lat="42.7872428577" lon="-1.3791409135">
        <ele>525.02</ele>
        <time>2021-05-23T12:45:47Z</time>
      </trkpt>
      <trkpt lat="42.7871748805" lon="-1.3791120797">
        <ele>523.58</ele>
        <time>2021-05-23T12:45:48Z</time>
      </trkpt>
      <trkpt lat="42.7871017903" lon="-1.3790985849">
        <ele>523.09</ele>
        <time>2021-05-23T12:45:49Z</time>
      </trkpt>
      <trkpt lat="42.7870249283" lon="-1.3791000936">
        <ele>522.61</ele>
        <time>2021-05-23T12:45:50Z</time>
      </trkpt>
      <trkpt lat="42.7869642433" lon="-1.3790918794">
        <ele>522.13</ele>
        <time>2021-05-23T12:45:51Z</time>
      </trkpt>
      <trkpt lat="42.7869006246" lon="-1.3790583517">
        <ele>521.17</ele>
        <time>2021-05-23T12:45:52Z</time>
      </trkpt>
      <trkpt lat="42.7868387662" lon="-1.3789945655">
        <ele>520.69</ele>
        <time>2021-05-23T12:45:53Z</time>
      </trkpt>
      <trkpt lat="42.7867979463" lon="-1.3789322041">
        <ele>519.25</ele>
        <time>2021-05-23T12:45:54Z</time>
      </trkpt>
      <trkpt lat="42.7867559530" lon="-1.3788579404">
        <ele>519.25</ele>
        <time>2021-05-23T12:45:55Z</time>
      </trkpt>
      <trkpt lat="42.7867078409" lon="-1.3787849341">
        <ele>519.25</ele>
        <time>2021-05-23T12:45:56Z</time>
      </trkpt>
      <trkpt lat="42.7866557892" lon="-1.3787234947">
        <ele>519.25</ele>
        <time>2021-05-23T12:45:57Z</time>
      </trkpt>
      <trkpt lat="42.7860093769" lon="-1.3781465683">
        <ele>515.88</ele>
        <time>2021-05-23T12:46:07Z</time>
      </trkpt>
      <trkpt lat="42.7854813170" lon="-1.3775694743">
        <ele>513.00</ele>
        <time>2021-05-23T12:46:15Z</time>
      </trkpt>
      <trkpt lat="42.7849054802" lon="-1.3768772129">
        <ele>509.64</ele>
        <time>2021-05-23T12:46:25Z</time>
      </trkpt>
      <trkpt lat="42.7839666232" lon="-1.3757859729">
        <ele>506.75</ele>
        <time>2021-05-23T12:46:42Z</time>
      </trkpt>
      <trkpt lat="42.7833585162" lon="-1.3750796299">
        <ele>504.35</ele>
        <time>2021-05-23T12:46:54Z</time>
      </trkpt>
      <trkpt lat="42.7833026089" lon="-1.3750483654">
        <ele>504.35</ele>
        <time>2021-05-23T12:46:55Z</time>
      </trkpt>
      <trkpt lat="42.7832435165" lon="-1.3750298414">
        <ele>504.35</ele>
        <time>2021-05-23T12:46:56Z</time>
      </trkpt>
      <trkpt lat="42.7828377485" lon="-1.3750254828">
        <ele>503.39</ele>
        <time>2021-05-23T12:47:03Z</time>
      </trkpt>
      <trkpt lat="42.7827944141" lon="-1.3750452641">
        <ele>503.39</ele>
        <time>2021-05-23T12:47:04Z</time>
      </trkpt>
      <trkpt lat="42.7827449609" lon="-1.3750784565">
        <ele>503.39</ele>
        <time>2021-05-23T12:47:05Z</time>
      </trkpt>
      <trkpt lat="42.7826989442" lon="-1.3751214556">
        <ele>503.39</ele>
        <time>2021-05-23T12:47:06Z</time>
      </trkpt>
      <trkpt lat="42.7826582920" lon="-1.3751698192">
        <ele>503.39</ele>
        <time>2021-05-23T12:47:07Z</time>
      </trkpt>
      <trkpt lat="42.7826220822" lon="-1.3752222899">
        <ele>503.39</ele>
        <time>2021-05-23T12:47:08Z</time>
      </trkpt>
      <trkpt lat="42.7823650930" lon="-1.3755993079">
        <ele>504.83</ele>
        <time>2021-05-23T12:47:15Z</time>
      </trkpt>
      <trkpt lat="42.7818560600" lon="-1.3762839418">
        <ele>506.27</ele>
        <time>2021-05-23T12:47:30Z</time>
      </trkpt>
      <trkpt lat="42.7816885058" lon="-1.3765148632">
        <ele>506.27</ele>
        <time>2021-05-23T12:47:35Z</time>
      </trkpt>
      <trkpt lat="42.7816550620" lon="-1.3765582815">
        <ele>506.75</ele>
        <time>2021-05-23T12:47:36Z</time>
      </trkpt>
      <trkpt lat="42.7814150043" lon="-1.3768886123">
        <ele>505.79</ele>
        <time>2021-05-23T12:47:43Z</time>
      </trkpt>
      <trkpt lat="42.7813803032" lon="-1.3769384846">
        <ele>509.16</ele>
        <time>2021-05-23T12:47:44Z</time>
      </trkpt>
      <trkpt lat="42.7813437581" lon="-1.3769911230">
        <ele>507.71</ele>
        <time>2021-05-23T12:47:45Z</time>
      </trkpt>
      <trkpt lat="42.7803998720" lon="-1.3782124501">
        <ele>505.79</ele>
        <time>2021-05-23T12:48:08Z</time>
      </trkpt>
      <trkpt lat="42.7795522939" lon="-1.3789673243">
        <ele>503.87</ele>
        <time>2021-05-23T12:48:26Z</time>
      </trkpt>
      <trkpt lat="42.7787363157" lon="-1.3796236273">
        <ele>503.87</ele>
        <time>2021-05-23T12:48:45Z</time>
      </trkpt>
      <trkpt lat="42.7779436391" lon="-1.3803005498">
        <ele>503.87</ele>
        <time>2021-05-23T12:49:04Z</time>
      </trkpt>
      <trkpt lat="42.7773519605" lon="-1.3811907917">
        <ele>503.87</ele>
        <time>2021-05-23T12:49:21Z</time>
      </trkpt>
      <trkpt lat="42.7771292534" lon="-1.3817995694">
        <ele>503.87</ele>
        <time>2021-05-23T12:49:30Z</time>
      </trkpt>
      <trkpt lat="42.7771078795" lon="-1.3818723243">
        <ele>503.87</ele>
        <time>2021-05-23T12:49:31Z</time>
      </trkpt>
      <trkpt lat="42.7766099945" lon="-1.3834940549">
        <ele>502.91</ele>
        <time>2021-05-23T12:49:52Z</time>
      </trkpt>
      <trkpt lat="42.7759634983" lon="-1.3851741236">
        <ele>501.95</ele>
        <time>2021-05-23T12:50:14Z</time>
      </trkpt>
      <trkpt lat="42.7753217798" lon="-1.3862462528">
        <ele>501.95</ele>
        <time>2021-05-23T12:50:31Z</time>
      </trkpt>
      <trkpt lat="42.7746563405" lon="-1.3873534184">
        <ele>501.46</ele>
        <time>2021-05-23T12:50:49Z</time>
      </trkpt>
      <trkpt lat="42.7746182028" lon="-1.3874166179">
        <ele>501.46</ele>
        <time>2021-05-23T12:50:50Z</time>
      </trkpt>
      <trkpt lat="42.7740747202" lon="-1.3882866595">
        <ele>498.10</ele>
        <time>2021-05-23T12:51:06Z</time>
      </trkpt>
      <trkpt lat="42.7739804238" lon="-1.3884413894">
        <ele>496.18</ele>
        <time>2021-05-23T12:51:13Z</time>
      </trkpt>
      <trkpt lat="42.7739446331" lon="-1.3885011524">
        <ele>497.62</ele>
        <time>2021-05-23T12:51:15Z</time>
      </trkpt>
      <trkpt lat="42.7736705448" lon="-1.3889681082">
        <ele>495.22</ele>
        <time>2021-05-23T12:51:25Z</time>
      </trkpt>
      <trkpt lat="42.7734271344" lon="-1.3893712778">
        <ele>491.85</ele>
        <time>2021-05-23T12:51:30Z</time>
      </trkpt>
      <trkpt lat="42.7732558083" lon="-1.3896582741">
        <ele>488.49</ele>
        <time>2021-05-23T12:51:33Z</time>
      </trkpt>
      <trkpt lat="42.7729757689" lon="-1.3901855797">
        <ele>485.60</ele>
        <time>2021-05-23T12:51:38Z</time>
      </trkpt>
      <trkpt lat="42.7727906127" lon="-1.3906392921">
        <ele>483.68</ele>
        <time>2021-05-23T12:51:42Z</time>
      </trkpt>
      <trkpt lat="42.7725346293" lon="-1.3919161074">
        <ele>483.20</ele>
        <time>2021-05-23T12:51:54Z</time>
      </trkpt>
      <trkpt lat="42.7725289296" lon="-1.3921316061">
        <ele>483.20</ele>
        <time>2021-05-23T12:51:57Z</time>
      </trkpt>
      <trkpt lat="42.7725199610" lon="-1.3921869267">
        <ele>483.20</ele>
        <time>2021-05-23T12:51:58Z</time>
      </trkpt>
      <trkpt lat="42.7725050412" lon="-1.3922328595">
        <ele>483.20</ele>
        <time>2021-05-23T12:51:59Z</time>
      </trkpt>
      <trkpt lat="42.7724838350" lon="-1.3922743499">
        <ele>483.20</ele>
        <time>2021-05-23T12:52:00Z</time>
      </trkpt>
      <trkpt lat="42.7724570967" lon="-1.3923138287">
        <ele>483.20</ele>
        <time>2021-05-23T12:52:01Z</time>
      </trkpt>
      <trkpt lat="42.7724266704" lon="-1.3923483621">
        <ele>484.16</ele>
        <time>2021-05-23T12:52:02Z</time>
      </trkpt>
      <trkpt lat="42.7723918855" lon="-1.3923723344">
        <ele>484.16</ele>
        <time>2021-05-23T12:52:03Z</time>
      </trkpt>
      <trkpt lat="42.7723433543" lon="-1.3923864160">
        <ele>485.12</ele>
        <time>2021-05-23T12:52:04Z</time>
      </trkpt>
      <trkpt lat="42.7723077312" lon="-1.3923865836">
        <ele>485.12</ele>
        <time>2021-05-23T12:52:05Z</time>
      </trkpt>
      <trkpt lat="42.7722602058" lon="-1.3923727535">
        <ele>485.12</ele>
        <time>2021-05-23T12:52:06Z</time>
      </trkpt>
      <trkpt lat="42.7722132672" lon="-1.3923424110">
        <ele>485.12</ele>
        <time>2021-05-23T12:52:07Z</time>
      </trkpt>
      <trkpt lat="42.7721710224" lon="-1.3922999986">
        <ele>485.12</ele>
        <time>2021-05-23T12:52:08Z</time>
      </trkpt>
      <trkpt lat="42.7721322142" lon="-1.3922494557">
        <ele>485.12</ele>
        <time>2021-05-23T12:52:09Z</time>
      </trkpt>
      <trkpt lat="42.7720947471" lon="-1.3921935484">
        <ele>485.12</ele>
        <time>2021-05-23T12:52:10Z</time>
      </trkpt>
      <trkpt lat="42.7720597107" lon="-1.3921317738">
        <ele>485.12</ele>
        <time>2021-05-23T12:52:11Z</time>
      </trkpt>
      <trkpt lat="42.7720287815" lon="-1.3920640480">
        <ele>485.12</ele>
        <time>2021-05-23T12:52:12Z</time>
      </trkpt>
      <trkpt lat="42.7719995286" lon="-1.3919897005">
        <ele>485.12</ele>
        <time>2021-05-23T12:52:13Z</time>
      </trkpt>
      <trkpt lat="42.7717245184" lon="-1.3911759853">
        <ele>485.12</ele>
        <time>2021-05-23T12:52:24Z</time>
      </trkpt>
      <trkpt lat="42.7716650069" lon="-1.3909537811">
        <ele>486.56</ele>
        <time>2021-05-23T12:52:28Z</time>
      </trkpt>
      <trkpt lat="42.7715767454" lon="-1.3906428963">
        <ele>488.49</ele>
        <time>2021-05-23T12:52:34Z</time>
      </trkpt>
      <trkpt lat="42.7715652622" lon="-1.3905896712">
        <ele>488.97</ele>
        <time>2021-05-23T12:52:35Z</time>
      </trkpt>
      <trkpt lat="42.7715497557" lon="-1.3905380387">
        <ele>488.97</ele>
        <time>2021-05-23T12:52:36Z</time>
      </trkpt>
      <trkpt lat="42.7715359256" lon="-1.3904848136">
        <ele>489.45</ele>
        <time>2021-05-23T12:52:37Z</time>
      </trkpt>
      <trkpt lat="42.7715252806" lon="-1.3904337678">
        <ele>489.93</ele>
        <time>2021-05-23T12:52:38Z</time>
      </trkpt>
      <trkpt lat="42.7713579778" lon="-1.3899064623">
        <ele>493.29</ele>
        <time>2021-05-23T12:52:50Z</time>
      </trkpt>
      <trkpt lat="42.7710612584" lon="-1.3895612117">
        <ele>496.18</ele>
        <time>2021-05-23T12:53:05Z</time>
      </trkpt>
      <trkpt lat="42.7706163470" lon="-1.3895339705">
        <ele>499.06</ele>
        <time>2021-05-23T12:53:23Z</time>
      </trkpt>
      <trkpt lat="42.7701026201" lon="-1.3895931467">
        <ele>500.50</ele>
        <time>2021-05-23T12:53:41Z</time>
      </trkpt>
      <trkpt lat="42.7697228361" lon="-1.3897665683">
        <ele>499.54</ele>
        <time>2021-05-23T12:53:50Z</time>
      </trkpt>
      <trkpt lat="42.7690296527" lon="-1.3901269902">
        <ele>495.70</ele>
        <time>2021-05-23T12:54:03Z</time>
      </trkpt>
      <trkpt lat="42.7682368923" lon="-1.3904757611">
        <ele>492.33</ele>
        <time>2021-05-23T12:54:16Z</time>
      </trkpt>
      <trkpt lat="42.7675919048" lon="-1.3907236140">
        <ele>489.45</ele>
        <time>2021-05-23T12:54:25Z</time>
      </trkpt>
      <trkpt lat="42.7668083645" lon="-1.3910371810">
        <ele>486.08</ele>
        <time>2021-05-23T12:54:37Z</time>
      </trkpt>
      <trkpt lat="42.7660497185" lon="-1.3915335573">
        <ele>483.20</ele>
        <time>2021-05-23T12:54:48Z</time>
      </trkpt>
      <trkpt lat="42.7655008715" lon="-1.3918358926">
        <ele>479.84</ele>
        <time>2021-05-23T12:54:58Z</time>
      </trkpt>
      <trkpt lat="42.7654524241" lon="-1.3918273430">
        <ele>479.84</ele>
        <time>2021-05-23T12:54:59Z</time>
      </trkpt>
      <trkpt lat="42.7653991152" lon="-1.3918115012">
        <ele>478.87</ele>
        <time>2021-05-23T12:55:00Z</time>
      </trkpt>
      <trkpt lat="42.7651055809" lon="-1.3916455396">
        <ele>476.47</ele>
        <time>2021-05-23T12:55:05Z</time>
      </trkpt>
      <trkpt lat="42.7647882421" lon="-1.3914383389">
        <ele>474.07</ele>
        <time>2021-05-23T12:55:10Z</time>
      </trkpt>
      <trkpt lat="42.7642056998" lon="-1.3910657633">
        <ele>472.14</ele>
        <time>2021-05-23T12:55:18Z</time>
      </trkpt>
      <trkpt lat="42.7636037115" lon="-1.3906534575">
        <ele>468.78</ele>
        <time>2021-05-23T12:55:26Z</time>
      </trkpt>
      <trkpt lat="42.7626442350" lon="-1.3899008464">
        <ele>465.90</ele>
        <time>2021-05-23T12:55:42Z</time>
      </trkpt>
      <trkpt lat="42.7619442623" lon="-1.3893556874">
        <ele>468.78</ele>
        <time>2021-05-23T12:55:56Z</time>
      </trkpt>
      <trkpt lat="42.7614182141" lon="-1.3889041543">
        <ele>471.18</ele>
        <time>2021-05-23T12:56:12Z</time>
      </trkpt>
      <trkpt lat="42.7607905772" lon="-1.3883623481">
        <ele>472.14</ele>
        <time>2021-05-23T12:56:31Z</time>
      </trkpt>
      <trkpt lat="42.7603159100" lon="-1.3881197758">
        <ele>475.03</ele>
        <time>2021-05-23T12:56:46Z</time>
      </trkpt>
      <trkpt lat="42.7597317751" lon="-1.3880631141">
        <ele>476.47</ele>
        <time>2021-05-23T12:57:04Z</time>
      </trkpt>
      <trkpt lat="42.7588735521" lon="-1.3879414089">
        <ele>476.95</ele>
        <time>2021-05-23T12:57:23Z</time>
      </trkpt>
      <trkpt lat="42.7577072103" lon="-1.3877477869">
        <ele>476.95</ele>
        <time>2021-05-23T12:57:45Z</time>
      </trkpt>
      <trkpt lat="42.7566516772" lon="-1.3875785563">
        <ele>477.43</ele>
        <time>2021-05-23T12:58:05Z</time>
      </trkpt>
      <trkpt lat="42.7562371921" lon="-1.3874664064">
        <ele>477.91</ele>
        <time>2021-05-23T12:58:13Z</time>
      </trkpt>
      <trkpt lat="42.7561900858" lon="-1.3874338847">
        <ele>477.91</ele>
        <time>2021-05-23T12:58:14Z</time>
      </trkpt>
      <trkpt lat="42.7561480924" lon="-1.3873958308">
        <ele>477.91</ele>
        <time>2021-05-23T12:58:15Z</time>
      </trkpt>
      <trkpt lat="42.7561005671" lon="-1.3873445336">
        <ele>477.91</ele>
        <time>2021-05-23T12:58:16Z</time>
      </trkpt>
      <trkpt lat="42.7560600825" lon="-1.3872877881">
        <ele>477.91</ele>
        <time>2021-05-23T12:58:17Z</time>
      </trkpt>
      <trkpt lat="42.7560319193" lon="-1.3872328028">
        <ele>477.91</ele>
        <time>2021-05-23T12:58:18Z</time>
      </trkpt>
      <trkpt lat="42.7559991460" lon="-1.3871548511">
        <ele>477.91</ele>
        <time>2021-05-23T12:58:19Z</time>
      </trkpt>
      <trkpt lat="42.7559716534" lon="-1.3870691881">
        <ele>477.91</ele>
        <time>2021-05-23T12:58:20Z</time>
      </trkpt>
      <trkpt lat="42.7559506986" lon="-1.3869818486">
        <ele>477.91</ele>
        <time>2021-05-23T12:58:21Z</time>
      </trkpt>
      <trkpt lat="42.7559384611" lon="-1.3869092613">
        <ele>477.91</ele>
        <time>2021-05-23T12:58:22Z</time>
      </trkpt>
      <trkpt lat="42.7559170034" lon="-1.3867080119">
        <ele>475.03</ele>
        <time>2021-05-23T12:58:24Z</time>
      </trkpt>
      <trkpt lat="42.7559124772" lon="-1.3866264559">
        <ele>475.03</ele>
        <time>2021-05-23T12:58:25Z</time>
      </trkpt>
      <trkpt lat="42.7558839787" lon="-1.3860999886">
        <ele>471.18</ele>
        <time>2021-05-23T12:58:30Z</time>
      </trkpt>
      <trkpt lat="42.7558807097" lon="-1.3860015012">
        <ele>471.18</ele>
        <time>2021-05-23T12:58:31Z</time>
      </trkpt>
      <trkpt lat="42.7558701485" lon="-1.3856847491">
        <ele>470.22</ele>
        <time>2021-05-23T12:58:34Z</time>
      </trkpt>
      <trkpt lat="42.7558571566" lon="-1.3852737844">
        <ele>467.34</ele>
        <time>2021-05-23T12:58:38Z</time>
      </trkpt>
      <trkpt lat="42.7558626048" lon="-1.3850656617">
        <ele>465.90</ele>
        <time>2021-05-23T12:58:40Z</time>
      </trkpt>
      <trkpt lat="42.7559789456" lon="-1.3842340093">
        <ele>463.01</ele>
        <time>2021-05-23T12:58:48Z</time>
      </trkpt>
      <trkpt lat="42.7560794447" lon="-1.3826148771">
        <ele>460.61</ele>
        <time>2021-05-23T12:59:03Z</time>
      </trkpt>
      <trkpt lat="42.7560576517" lon="-1.3811933901">
        <ele>459.65</ele>
        <time>2021-05-23T12:59:20Z</time>
      </trkpt>
      <trkpt lat="42.7560302429" lon="-1.3796574902">
        <ele>459.65</ele>
        <time>2021-05-23T12:59:38Z</time>
      </trkpt>
      <trkpt lat="42.7557576634" lon="-1.3784683496">
        <ele>459.65</ele>
        <time>2021-05-23T12:59:53Z</time>
      </trkpt>
      <trkpt lat="42.7552614547" lon="-1.3778267987">
        <ele>461.09</ele>
        <time>2021-05-23T13:00:05Z</time>
      </trkpt>
      <trkpt lat="42.7544167265" lon="-1.3768320344">
        <ele>461.09</ele>
        <time>2021-05-23T13:00:26Z</time>
      </trkpt>
      <trkpt lat="42.7537525445" lon="-1.3758867234">
        <ele>461.09</ele>
        <time>2021-05-23T13:00:45Z</time>
      </trkpt>
      <trkpt lat="42.7531879395" lon="-1.3745472953">
        <ele>461.09</ele>
        <time>2021-05-23T13:01:04Z</time>
      </trkpt>
      <trkpt lat="42.7526142821" lon="-1.3732056879">
        <ele>459.65</ele>
        <time>2021-05-23T13:01:23Z</time>
      </trkpt>
      <trkpt lat="42.7525708638" lon="-1.3731009141">
        <ele>459.65</ele>
        <time>2021-05-23T13:01:25Z</time>
      </trkpt>
      <trkpt lat="42.7525281999" lon="-1.3729981519">
        <ele>461.09</ele>
        <time>2021-05-23T13:01:26Z</time>
      </trkpt>
      <trkpt lat="42.7520998847" lon="-1.3720191456">
        <ele>461.57</ele>
        <time>2021-05-23T13:01:42Z</time>
      </trkpt>
      <trkpt lat="42.7520527784" lon="-1.3719132822">
        <ele>462.05</ele>
        <time>2021-05-23T13:01:44Z</time>
      </trkpt>
      <trkpt lat="42.7519132197" lon="-1.3715949375">
        <ele>463.49</ele>
        <time>2021-05-23T13:01:50Z</time>
      </trkpt>
      <trkpt lat="42.7515990660" lon="-1.3708947133">
        <ele>465.42</ele>
        <time>2021-05-23T13:02:05Z</time>
      </trkpt>
      <trkpt lat="42.7511027735" lon="-1.3697231747">
        <ele>464.93</ele>
        <time>2021-05-23T13:02:27Z</time>
      </trkpt>
      <trkpt lat="42.7506439481" lon="-1.3686453458">
        <ele>465.90</ele>
        <time>2021-05-23T13:02:47Z</time>
      </trkpt>
      <trkpt lat="42.7501360048" lon="-1.3674586359">
        <ele>467.34</ele>
        <time>2021-05-23T13:03:09Z</time>
      </trkpt>
      <trkpt lat="42.7495558932" lon="-1.3661140949">
        <ele>468.78</ele>
        <time>2021-05-23T13:03:32Z</time>
      </trkpt>
      <trkpt lat="42.7490085550" lon="-1.3648273051">
        <ele>469.26</ele>
        <time>2021-05-23T13:03:55Z</time>
      </trkpt>
      <trkpt lat="42.7487358078" lon="-1.3642091397">
        <ele>472.14</ele>
        <time>2021-05-23T13:04:09Z</time>
      </trkpt>
      <trkpt lat="42.7486385778" lon="-1.3636331353">
        <ele>475.51</ele>
        <time>2021-05-23T13:04:22Z</time>
      </trkpt>
      <trkpt lat="42.7489344589" lon="-1.3631594740">
        <ele>473.11</ele>
        <time>2021-05-23T13:04:33Z</time>
      </trkpt>
      <trkpt lat="42.7489822358" lon="-1.3630913291">
        <ele>473.11</ele>
        <time>2021-05-23T13:04:34Z</time>
      </trkpt>
      <trkpt lat="42.7491352893" lon="-1.3628836256">
        <ele>471.18</ele>
        <time>2021-05-23T13:04:37Z</time>
      </trkpt>
      <trkpt lat="42.7496253792" lon="-1.3622127380">
        <ele>467.82</ele>
        <time>2021-05-23T13:04:45Z</time>
      </trkpt>
      <trkpt lat="42.7497578133" lon="-1.3620184455">
        <ele>465.90</ele>
        <time>2021-05-23T13:04:47Z</time>
      </trkpt>
      <trkpt lat="42.7498139720" lon="-1.3618953153">
        <ele>464.93</ele>
        <time>2021-05-23T13:04:48Z</time>
      </trkpt>
      <trkpt lat="42.7498447336" lon="-1.3617674913">
        <ele>464.45</ele>
        <time>2021-05-23T13:04:49Z</time>
      </trkpt>
      <trkpt lat="42.7498506848" lon="-1.3616261724">
        <ele>463.97</ele>
        <time>2021-05-23T13:04:50Z</time>
      </trkpt>
      <trkpt lat="42.7498313226" lon="-1.3614981808">
        <ele>463.49</ele>
        <time>2021-05-23T13:04:51Z</time>
      </trkpt>
      <trkpt lat="42.7497944422" lon="-1.3613774814">
        <ele>463.49</ele>
        <time>2021-05-23T13:04:52Z</time>
      </trkpt>
      <trkpt lat="42.7497561369" lon="-1.3612759765">
        <ele>463.01</ele>
        <time>2021-05-23T13:04:53Z</time>
      </trkpt>
      <trkpt lat="42.7493477706" lon="-1.3602654543">
        <ele>463.49</ele>
        <time>2021-05-23T13:05:05Z</time>
      </trkpt>
      <trkpt lat="42.7491000853" lon="-1.3596486300">
        <ele>462.05</ele>
        <time>2021-05-23T13:05:14Z</time>
      </trkpt>
      <trkpt lat="42.7489224728" lon="-1.3589392696">
        <ele>459.17</ele>
        <time>2021-05-23T13:05:22Z</time>
      </trkpt>
      <trkpt lat="42.7485896274" lon="-1.3575898670">
        <ele>458.21</ele>
        <time>2021-05-23T13:05:36Z</time>
      </trkpt>
      <trkpt lat="42.7481562831" lon="-1.3566803467">
        <ele>455.80</ele>
        <time>2021-05-23T13:05:48Z</time>
      </trkpt>
      <trkpt lat="42.7473879140" lon="-1.3561552204">
        <ele>455.80</ele>
        <time>2021-05-23T13:06:01Z</time>
      </trkpt>
      <trkpt lat="42.7461281139" lon="-1.3554301020">
        <ele>455.80</ele>
        <time>2021-05-23T13:06:22Z</time>
      </trkpt>
      <trkpt lat="42.7450629417" lon="-1.3549498189">
        <ele>455.32</ele>
        <time>2021-05-23T13:06:39Z</time>
      </trkpt>
      <trkpt lat="42.7441147808" lon="-1.3548105955">
        <ele>455.32</ele>
        <time>2021-05-23T13:06:54Z</time>
      </trkpt>
      <trkpt lat="42.7430154104" lon="-1.3549662475">
        <ele>454.84</ele>
        <time>2021-05-23T13:07:12Z</time>
      </trkpt>
      <trkpt lat="42.7418285329" lon="-1.3552495558">
        <ele>454.84</ele>
        <time>2021-05-23T13:07:31Z</time>
      </trkpt>
      <trkpt lat="42.7408950403" lon="-1.3556808885">
        <ele>454.84</ele>
        <time>2021-05-23T13:07:48Z</time>
      </trkpt>
      <trkpt lat="42.7404083870" lon="-1.3559184317">
        <ele>454.36</ele>
        <time>2021-05-23T13:07:58Z</time>
      </trkpt>
      <trkpt lat="42.7400250826" lon="-1.3560372870">
        <ele>457.24</ele>
        <time>2021-05-23T13:08:07Z</time>
      </trkpt>
      <trkpt lat="42.7394147124" lon="-1.3560341857">
        <ele>458.21</ele>
        <time>2021-05-23T13:08:24Z</time>
      </trkpt>
      <trkpt lat="42.7388128918" lon="-1.3558237161">
        <ele>459.65</ele>
        <time>2021-05-23T13:08:40Z</time>
      </trkpt>
      <trkpt lat="42.7383920364" lon="-1.3555361331">
        <ele>461.57</ele>
        <time>2021-05-23T13:08:52Z</time>
      </trkpt>
      <trkpt lat="42.7377920598" lon="-1.3550651539">
        <ele>462.53</ele>
        <time>2021-05-23T13:09:10Z</time>
      </trkpt>
      <trkpt lat="42.7374078333" lon="-1.3546129502">
        <ele>461.09</ele>
        <time>2021-05-23T13:09:21Z</time>
      </trkpt>
      <trkpt lat="42.7369370218" lon="-1.3537838962">
        <ele>458.21</ele>
        <time>2021-05-23T13:09:35Z</time>
      </trkpt>
      <trkpt lat="42.7363908570" lon="-1.3527286146">
        <ele>457.72</ele>
        <time>2021-05-23T13:09:49Z</time>
      </trkpt>
      <trkpt lat="42.7356400061" lon="-1.3512713369">
        <ele>455.80</ele>
        <time>2021-05-23T13:10:11Z</time>
      </trkpt>
      <trkpt lat="42.7350670192" lon="-1.3501597289">
        <ele>454.36</ele>
        <time>2021-05-23T13:10:29Z</time>
      </trkpt>
      <trkpt lat="42.7344791964" lon="-1.3489749469">
        <ele>453.40</ele>
        <time>2021-05-23T13:10:48Z</time>
      </trkpt>
      <trkpt lat="42.7342051920" lon="-1.3478161488">
        <ele>452.92</ele>
        <time>2021-05-23T13:11:04Z</time>
      </trkpt>
      <trkpt lat="42.7340715844" lon="-1.3463558536">
        <ele>452.92</ele>
        <time>2021-05-23T13:11:23Z</time>
      </trkpt>
      <trkpt lat="42.7340124920" lon="-1.3445073925">
        <ele>451.96</ele>
        <time>2021-05-23T13:11:45Z</time>
      </trkpt>
      <trkpt lat="42.7339539863" lon="-1.3426209614">
        <ele>451.48</ele>
        <time>2021-05-23T13:12:06Z</time>
      </trkpt>
      <trkpt lat="42.7336491365" lon="-1.3412711397">
        <ele>451.48</ele>
        <time>2021-05-23T13:12:22Z</time>
      </trkpt>
      <trkpt lat="42.7332240902" lon="-1.3405648805">
        <ele>452.92</ele>
        <time>2021-05-23T13:12:33Z</time>
      </trkpt>
      <trkpt lat="42.7323864028" lon="-1.3396214973">
        <ele>454.36</ele>
        <time>2021-05-23T13:12:52Z</time>
      </trkpt>
      <trkpt lat="42.7319362946" lon="-1.3393685315">
        <ele>455.32</ele>
        <time>2021-05-23T13:13:02Z</time>
      </trkpt>
      <trkpt lat="42.7314716019" lon="-1.3392147236">
        <ele>459.17</ele>
        <time>2021-05-23T13:13:13Z</time>
      </trkpt>
      <trkpt lat="42.7310287021" lon="-1.3389878254">
        <ele>459.17</ele>
        <time>2021-05-23T13:13:25Z</time>
      </trkpt>
      <trkpt lat="42.7303524502" lon="-1.3384114020">
        <ele>460.13</ele>
        <time>2021-05-23T13:13:42Z</time>
      </trkpt>
      <trkpt lat="42.7302597463" lon="-1.3383309357">
        <ele>459.17</ele>
        <time>2021-05-23T13:13:44Z</time>
      </trkpt>
      <trkpt lat="42.7299478557" lon="-1.3380493037">
        <ele>457.24</ele>
        <time>2021-05-23T13:13:50Z</time>
      </trkpt>
      <trkpt lat="42.7297854144" lon="-1.3378974237">
        <ele>455.80</ele>
        <time>2021-05-23T13:13:53Z</time>
      </trkpt>
      <trkpt lat="42.7291311231" lon="-1.3369693793">
        <ele>452.92</ele>
        <time>2021-05-23T13:14:06Z</time>
      </trkpt>
      <trkpt lat="42.7289414406" lon="-1.3364429120">
        <ele>451.00</ele>
        <time>2021-05-23T13:14:12Z</time>
      </trkpt>
      <trkpt lat="42.7288600523" lon="-1.3360707555">
        <ele>451.48</ele>
        <time>2021-05-23T13:14:16Z</time>
      </trkpt>
      <trkpt lat="42.7287347429" lon="-1.3344320096">
        <ele>450.03</ele>
        <time>2021-05-23T13:14:34Z</time>
      </trkpt>
      <trkpt lat="42.7285966091" lon="-1.3328457344">
        <ele>451.48</ele>
        <time>2021-05-23T13:14:52Z</time>
      </trkpt>
      <trkpt lat="42.7284567151" lon="-1.3312338106">
        <ele>452.92</ele>
        <time>2021-05-23T13:15:12Z</time>
      </trkpt>
      <trkpt lat="42.7283842117" lon="-1.3296899479">
        <ele>452.92</ele>
        <time>2021-05-23T13:15:31Z</time>
      </trkpt>
      <trkpt lat="42.7285722177" lon="-1.3281675428">
        <ele>452.92</ele>
        <time>2021-05-23T13:15:48Z</time>
      </trkpt>
      <trkpt lat="42.7286447212" lon="-1.3278994896">
        <ele>451.48</ele>
        <time>2021-05-23T13:15:51Z</time>
      </trkpt>
      <trkpt lat="42.7291900478" lon="-1.3268482313">
        <ele>452.92</ele>
        <time>2021-05-23T13:16:06Z</time>
      </trkpt>
      <trkpt lat="42.7292356454" lon="-1.3267869595">
        <ele>452.92</ele>
        <time>2021-05-23T13:16:07Z</time>
      </trkpt>
      <trkpt lat="42.7295832429" lon="-1.3262982946">
        <ele>455.80</ele>
        <time>2021-05-23T13:16:15Z</time>
      </trkpt>
      <trkpt lat="42.7296811435" lon="-1.3261302374">
        <ele>457.24</ele>
        <time>2021-05-23T13:16:18Z</time>
      </trkpt>
      <trkpt lat="42.7297033556" lon="-1.3260765933">
        <ele>457.72</ele>
        <time>2021-05-23T13:16:19Z</time>
      </trkpt>
      <trkpt lat="42.7297240589" lon="-1.3260221947">
        <ele>458.21</ele>
        <time>2021-05-23T13:16:20Z</time>
      </trkpt>
      <trkpt lat="42.7298824769" lon="-1.3254694920">
        <ele>461.09</ele>
        <time>2021-05-23T13:16:32Z</time>
      </trkpt>
      <trkpt lat="42.7299397253" lon="-1.3248420227">
        <ele>464.45</ele>
        <time>2021-05-23T13:16:47Z</time>
      </trkpt>
      <trkpt lat="42.7298610192" lon="-1.3242709637">
        <ele>467.82</ele>
        <time>2021-05-23T13:17:02Z</time>
      </trkpt>
      <trkpt lat="42.7296371385" lon="-1.3237091247">
        <ele>471.18</ele>
        <time>2021-05-23T13:17:19Z</time>
      </trkpt>
      <trkpt lat="42.7293375693" lon="-1.3233313523">
        <ele>474.55</ele>
        <time>2021-05-23T13:17:33Z</time>
      </trkpt>
      <trkpt lat="42.7290044725" lon="-1.3230417576">
        <ele>477.43</ele>
        <time>2021-05-23T13:17:46Z</time>
      </trkpt>
      <trkpt lat="42.7286371775" lon="-1.3228855189">
        <ele>481.28</ele>
        <time>2021-05-23T13:17:59Z</time>
      </trkpt>
      <trkpt lat="42.7281920146" lon="-1.3227820024">
        <ele>483.68</ele>
        <time>2021-05-23T13:18:13Z</time>
      </trkpt>
      <trkpt lat="42.7277854085" lon="-1.3226885442">
        <ele>487.05</ele>
        <time>2021-05-23T13:18:25Z</time>
      </trkpt>
      <trkpt lat="42.7273378149" lon="-1.3225779869">
        <ele>489.93</ele>
        <time>2021-05-23T13:18:39Z</time>
      </trkpt>
      <trkpt lat="42.7267528418" lon="-1.3224647474">
        <ele>493.29</ele>
        <time>2021-05-23T13:18:57Z</time>
      </trkpt>
      <trkpt lat="42.7261093631" lon="-1.3223984465">
        <ele>494.26</ele>
        <time>2021-05-23T13:19:14Z</time>
      </trkpt>
      <trkpt lat="42.7252013516" lon="-1.3223395217">
        <ele>492.81</ele>
        <time>2021-05-23T13:19:33Z</time>
      </trkpt>
      <trkpt lat="42.7243246045" lon="-1.3222360890">
        <ele>492.33</ele>
        <time>2021-05-23T13:19:50Z</time>
      </trkpt>
      <trkpt lat="42.7232770342" lon="-1.3221487496">
        <ele>488.97</ele>
        <time>2021-05-23T13:20:09Z</time>
      </trkpt>
      <trkpt lat="42.7226904687" lon="-1.3221416250">
        <ele>485.60</ele>
        <time>2021-05-23T13:20:18Z</time>
      </trkpt>
      <trkpt lat="42.7217887435" lon="-1.3222822733">
        <ele>482.72</ele>
        <time>2021-05-23T13:20:31Z</time>
      </trkpt>
      <trkpt lat="42.7212713286" lon="-1.3224668428">
        <ele>478.87</ele>
        <time>2021-05-23T13:20:38Z</time>
      </trkpt>
      <trkpt lat="42.7211974002" lon="-1.3224969339">
        <ele>478.87</ele>
        <time>2021-05-23T13:20:39Z</time>
      </trkpt>
      <trkpt lat="42.7208905388" lon="-1.3226224948">
        <ele>477.91</ele>
        <time>2021-05-23T13:20:43Z</time>
      </trkpt>
      <trkpt lat="42.7205087431" lon="-1.3227487262">
        <ele>474.55</ele>
        <time>2021-05-23T13:20:48Z</time>
      </trkpt>
      <trkpt lat="42.7202477306" lon="-1.3227985986">
        <ele>473.11</ele>
        <time>2021-05-23T13:20:51Z</time>
      </trkpt>
      <trkpt lat="42.7196513582" lon="-1.3228361495">
        <ele>469.26</ele>
        <time>2021-05-23T13:20:58Z</time>
      </trkpt>
      <trkpt lat="42.7194793615" lon="-1.3228374068">
        <ele>468.78</ele>
        <time>2021-05-23T13:21:00Z</time>
      </trkpt>
      <trkpt lat="42.7191429120" lon="-1.3228472136">
        <ele>465.42</ele>
        <time>2021-05-23T13:21:04Z</time>
      </trkpt>
      <trkpt lat="42.7190592606" lon="-1.3228581101">
        <ele>465.42</ele>
        <time>2021-05-23T13:21:05Z</time>
      </trkpt>
      <trkpt lat="42.7188054565" lon="-1.3228897937">
        <ele>464.45</ele>
        <time>2021-05-23T13:21:08Z</time>
      </trkpt>
      <trkpt lat="42.7181876265" lon="-1.3230325375">
        <ele>460.61</ele>
        <time>2021-05-23T13:21:16Z</time>
      </trkpt>
      <trkpt lat="42.7173725702" lon="-1.3232786302">
        <ele>457.72</ele>
        <time>2021-05-23T13:21:27Z</time>
      </trkpt>
      <trkpt lat="42.7163607068" lon="-1.3235777803">
        <ele>457.24</ele>
        <time>2021-05-23T13:21:41Z</time>
      </trkpt>
      <trkpt lat="42.7159541007" lon="-1.3236955460">
        <ele>460.13</ele>
        <time>2021-05-23T13:21:48Z</time>
      </trkpt>
      <trkpt lat="42.7150785271" lon="-1.3238320034">
        <ele>460.61</ele>
        <time>2021-05-23T13:22:05Z</time>
      </trkpt>
      <trkpt lat="42.7142082341" lon="-1.3234950509">
        <ele>459.17</ele>
        <time>2021-05-23T13:22:22Z</time>
      </trkpt>
      <trkpt lat="42.7141563501" lon="-1.3234688155">
        <ele>459.17</ele>
        <time>2021-05-23T13:22:23Z</time>
      </trkpt>
      <trkpt lat="42.7133430541" lon="-1.3230983354">
        <ele>455.80</ele>
        <time>2021-05-23T13:22:38Z</time>
      </trkpt>
      <trkpt lat="42.7123318613" lon="-1.3226427790">
        <ele>455.32</ele>
        <time>2021-05-23T13:22:56Z</time>
      </trkpt>
      <trkpt lat="42.7121265884" lon="-1.3225434534">
        <ele>456.28</ele>
        <time>2021-05-23T13:23:00Z</time>
      </trkpt>
      <trkpt lat="42.7116077486" lon="-1.3222910743">
        <ele>455.80</ele>
        <time>2021-05-23T13:23:10Z</time>
      </trkpt>
      <trkpt lat="42.7107811254" lon="-1.3218962867">
        <ele>452.44</ele>
        <time>2021-05-23T13:23:23Z</time>
      </trkpt>
      <trkpt lat="42.7100207191" lon="-1.3215367030">
        <ele>451.48</ele>
        <time>2021-05-23T13:23:35Z</time>
      </trkpt>
      <trkpt lat="42.7099622972" lon="-1.3215123955">
        <ele>451.48</ele>
        <time>2021-05-23T13:23:36Z</time>
      </trkpt>
      <trkpt lat="42.7095284499" lon="-1.3213031832">
        <ele>452.92</ele>
        <time>2021-05-23T13:23:44Z</time>
      </trkpt>
      <trkpt lat="42.7084773593" lon="-1.3207926415">
        <ele>452.92</ele>
        <time>2021-05-23T13:24:05Z</time>
      </trkpt>
      <trkpt lat="42.7077908814" lon="-1.3204716984">
        <ele>451.48</ele>
        <time>2021-05-23T13:24:18Z</time>
      </trkpt>
      <trkpt lat="42.7066920977" lon="-1.3199615758">
        <ele>449.55</ele>
        <time>2021-05-23T13:24:37Z</time>
      </trkpt>
      <trkpt lat="42.7060200367" lon="-1.3196499366">
        <ele>446.19</ele>
        <time>2021-05-23T13:24:48Z</time>
      </trkpt>
      <trkpt lat="42.7059550770" lon="-1.3196165767">
        <ele>447.15</ele>
        <time>2021-05-23T13:24:49Z</time>
      </trkpt>
      <trkpt lat="42.7058461960" lon="-1.3195632678">
        <ele>449.07</ele>
        <time>2021-05-23T13:24:51Z</time>
      </trkpt>
      <trkpt lat="42.7047469933" lon="-1.3190476131">
        <ele>445.71</ele>
        <time>2021-05-23T13:25:09Z</time>
      </trkpt>
      <trkpt lat="42.7034073137" lon="-1.3184206467">
        <ele>442.82</ele>
        <time>2021-05-23T13:25:31Z</time>
      </trkpt>
      <trkpt lat="42.7025094442" lon="-1.3180048205">
        <ele>441.86</ele>
        <time>2021-05-23T13:25:47Z</time>
      </trkpt>
      <trkpt lat="42.7016466949" lon="-1.3175960351">
        <ele>441.38</ele>
        <time>2021-05-23T13:26:03Z</time>
      </trkpt>
      <trkpt lat="42.7004800178" lon="-1.3170418236">
        <ele>440.42</ele>
        <time>2021-05-23T13:26:24Z</time>
      </trkpt>
      <trkpt lat="42.6993010193" lon="-1.3164855167">
        <ele>439.94</ele>
        <time>2021-05-23T13:26:45Z</time>
      </trkpt>
      <trkpt lat="42.6983518526" lon="-1.3160427846">
        <ele>440.90</ele>
        <time>2021-05-23T13:27:04Z</time>
      </trkpt>
      <trkpt lat="42.6975840703" lon="-1.3156764954">
        <ele>439.46</ele>
        <time>2021-05-23T13:27:21Z</time>
      </trkpt>
      <trkpt lat="42.6975352038" lon="-1.3156532776">
        <ele>439.46</ele>
        <time>2021-05-23T13:27:22Z</time>
      </trkpt>
      <trkpt lat="42.6973808091" lon="-1.3155904133">
        <ele>439.46</ele>
        <time>2021-05-23T13:27:25Z</time>
      </trkpt>
      <trkpt lat="42.6965748891" lon="-1.3152076118">
        <ele>440.42</ele>
        <time>2021-05-23T13:27:42Z</time>
      </trkpt>
      <trkpt lat="42.6958124712" lon="-1.3147593476">
        <ele>440.90</ele>
        <time>2021-05-23T13:27:59Z</time>
      </trkpt>
      <trkpt lat="42.6948368177" lon="-1.3140792400">
        <ele>441.86</ele>
        <time>2021-05-23T13:28:20Z</time>
      </trkpt>
      <trkpt lat="42.6938819513" lon="-1.3134352583">
        <ele>442.34</ele>
        <time>2021-05-23T13:28:40Z</time>
      </trkpt>
      <trkpt lat="42.6928962395" lon="-1.3127410691">
        <ele>442.82</ele>
        <time>2021-05-23T13:29:01Z</time>
      </trkpt>
      <trkpt lat="42.6920846198" lon="-1.3118923176">
        <ele>442.82</ele>
        <time>2021-05-23T13:29:19Z</time>
      </trkpt>
      <trkpt lat="42.6911091339" lon="-1.3108770177">
        <ele>441.38</ele>
        <time>2021-05-23T13:29:39Z</time>
      </trkpt>
      <trkpt lat="42.6904399227" lon="-1.3101833314">
        <ele>441.38</ele>
        <time>2021-05-23T13:29:53Z</time>
      </trkpt>
      <trkpt lat="42.6894698851" lon="-1.3091759942">
        <ele>442.34</ele>
        <time>2021-05-23T13:30:14Z</time>
      </trkpt>
      <trkpt lat="42.6886639651" lon="-1.3083444256">
        <ele>440.90</ele>
        <time>2021-05-23T13:30:30Z</time>
      </trkpt>
      <trkpt lat="42.6879441272" lon="-1.3073324785">
        <ele>437.54</ele>
        <time>2021-05-23T13:30:45Z</time>
      </trkpt>
      <trkpt lat="42.6879003737" lon="-1.3072526827">
        <ele>437.54</ele>
        <time>2021-05-23T13:30:46Z</time>
      </trkpt>
      <trkpt lat="42.6877251919" lon="-1.3069351763">
        <ele>436.10</ele>
        <time>2021-05-23T13:30:50Z</time>
      </trkpt>
      <trkpt lat="42.6871001534" lon="-1.3058319502">
        <ele>434.17</ele>
        <time>2021-05-23T13:31:04Z</time>
      </trkpt>
      <trkpt lat="42.6864894480" lon="-1.3050295506">
        <ele>435.61</ele>
        <time>2021-05-23T13:31:18Z</time>
      </trkpt>
      <trkpt lat="42.6856743917" lon="-1.3041847385">
        <ele>435.61</ele>
        <time>2021-05-23T13:31:37Z</time>
      </trkpt>
      <trkpt lat="42.6855089329" lon="-1.3040155079">
        <ele>435.61</ele>
        <time>2021-05-23T13:31:41Z</time>
      </trkpt>
      <trkpt lat="42.6849610079" lon="-1.3034544233">
        <ele>436.58</ele>
        <time>2021-05-23T13:31:54Z</time>
      </trkpt>
      <trkpt lat="42.6847781986" lon="-1.3032591250">
        <ele>436.58</ele>
        <time>2021-05-23T13:31:59Z</time>
      </trkpt>
      <trkpt lat="42.6847415697" lon="-1.3032164611">
        <ele>436.10</ele>
        <time>2021-05-23T13:32:00Z</time>
      </trkpt>
      <trkpt lat="42.6845119894" lon="-1.3029682729">
        <ele>436.10</ele>
        <time>2021-05-23T13:32:06Z</time>
      </trkpt>
      <trkpt lat="42.6840395853" lon="-1.3024887443">
        <ele>438.02</ele>
        <time>2021-05-23T13:32:20Z</time>
      </trkpt>
      <trkpt lat="42.6835748088" lon="-1.3019819744">
        <ele>440.42</ele>
        <time>2021-05-23T13:32:37Z</time>
      </trkpt>
      <trkpt lat="42.6831491757" lon="-1.3015280943">
        <ele>443.79</ele>
        <time>2021-05-23T13:32:52Z</time>
      </trkpt>
      <trkpt lat="42.6827512030" lon="-1.3011394255">
        <ele>446.67</ele>
        <time>2021-05-23T13:33:06Z</time>
      </trkpt>
      <trkpt lat="42.6822706684" lon="-1.3007256947">
        <ele>449.07</ele>
        <time>2021-05-23T13:33:24Z</time>
      </trkpt>
      <trkpt lat="42.6817526668" lon="-1.3003262971">
        <ele>452.44</ele>
        <time>2021-05-23T13:33:42Z</time>
      </trkpt>
      <trkpt lat="42.6814086735" lon="-1.3000669610">
        <ele>453.40</ele>
        <time>2021-05-23T13:33:54Z</time>
      </trkpt>
      <trkpt lat="42.6807812043" lon="-1.2995900307">
        <ele>456.28</ele>
        <time>2021-05-23T13:34:14Z</time>
      </trkpt>
      <trkpt lat="42.6804807130" lon="-1.2993555050">
        <ele>456.76</ele>
        <time>2021-05-23T13:34:23Z</time>
      </trkpt>
      <trkpt lat="42.6804434974" lon="-1.2993291020">
        <ele>457.24</ele>
        <time>2021-05-23T13:34:24Z</time>
      </trkpt>
      <trkpt lat="42.6797229052" lon="-1.2987715378">
        <ele>460.13</ele>
        <time>2021-05-23T13:34:43Z</time>
      </trkpt>
      <trkpt lat="42.6791467331" lon="-1.2983301468">
        <ele>462.05</ele>
        <time>2021-05-23T13:34:59Z</time>
      </trkpt>
      <trkpt lat="42.6790702064" lon="-1.2982770894">
        <ele>462.05</ele>
        <time>2021-05-23T13:35:01Z</time>
      </trkpt>
      <trkpt lat="42.6786729041" lon="-1.2979627680">
        <ele>464.45</ele>
        <time>2021-05-23T13:35:14Z</time>
      </trkpt>
      <trkpt lat="42.6782872528" lon="-1.2976655457">
        <ele>465.90</ele>
        <time>2021-05-23T13:35:29Z</time>
      </trkpt>
      <trkpt lat="42.6777658984" lon="-1.2972639687">
        <ele>466.38</ele>
        <time>2021-05-23T13:35:48Z</time>
      </trkpt>
      <trkpt lat="42.6771544386" lon="-1.2968096696">
        <ele>467.82</ele>
        <time>2021-05-23T13:36:03Z</time>
      </trkpt>
      <trkpt lat="42.6762344409" lon="-1.2964286283">
        <ele>468.30</ele>
        <time>2021-05-23T13:36:23Z</time>
      </trkpt>
      <trkpt lat="42.6752021257" lon="-1.2964337412">
        <ele>466.86</ele>
        <time>2021-05-23T13:36:43Z</time>
      </trkpt>
      <trkpt lat="42.6741138194" lon="-1.2964981142">
        <ele>463.97</ele>
        <time>2021-05-23T13:37:01Z</time>
      </trkpt>
      <trkpt lat="42.6732830890" lon="-1.2965359166">
        <ele>460.61</ele>
        <time>2021-05-23T13:37:12Z</time>
      </trkpt>
      <trkpt lat="42.6721912622" lon="-1.2965924945">
        <ele>457.24</ele>
        <time>2021-05-23T13:37:26Z</time>
      </trkpt>
      <trkpt lat="42.6711524092" lon="-1.2966433726">
        <ele>454.36</ele>
        <time>2021-05-23T13:37:40Z</time>
      </trkpt>
      <trkpt lat="42.6697647013" lon="-1.2967141997">
        <ele>451.48</ele>
        <time>2021-05-23T13:38:00Z</time>
      </trkpt>
      <trkpt lat="42.6681815274" lon="-1.2967985217">
        <ele>449.07</ele>
        <time>2021-05-23T13:38:23Z</time>
      </trkpt>
      <trkpt lat="42.6668328792" lon="-1.2968727015">
        <ele>448.11</ele>
        <time>2021-05-23T13:38:44Z</time>
      </trkpt>
      <trkpt lat="42.6657222770" lon="-1.2969282735">
        <ele>447.63</ele>
        <time>2021-05-23T13:39:04Z</time>
      </trkpt>
      <trkpt lat="42.6653499529" lon="-1.2969457079">
        <ele>449.07</ele>
        <time>2021-05-23T13:39:12Z</time>
      </trkpt>
      <trkpt lat="42.6646477170" lon="-1.2969802413">
        <ele>451.00</ele>
        <time>2021-05-23T13:39:26Z</time>
      </trkpt>
      <trkpt lat="42.6638220157" lon="-1.2972104084">
        <ele>452.92</ele>
        <time>2021-05-23T13:39:45Z</time>
      </trkpt>
      <trkpt lat="42.6630453486" lon="-1.2976113986">
        <ele>453.88</ele>
        <time>2021-05-23T13:40:03Z</time>
      </trkpt>
      <trkpt lat="42.6620883029" lon="-1.2981281430">
        <ele>453.88</ele>
        <time>2021-05-23T13:40:23Z</time>
      </trkpt>
      <trkpt lat="42.6611176785" lon="-1.2988421135">
        <ele>453.88</ele>
        <time>2021-05-23T13:40:42Z</time>
      </trkpt>
      <trkpt lat="42.6606355514" lon="-1.2992394157">
        <ele>452.44</ele>
        <time>2021-05-23T13:40:51Z</time>
      </trkpt>
      <trkpt lat="42.6596778352" lon="-1.3000248000">
        <ele>450.03</ele>
        <time>2021-05-23T13:41:08Z</time>
      </trkpt>
      <trkpt lat="42.6588150021" lon="-1.3007523492">
        <ele>448.59</ele>
        <time>2021-05-23T13:41:23Z</time>
      </trkpt>
      <trkpt lat="42.6578999497" lon="-1.3015035354">
        <ele>448.59</ele>
        <time>2021-05-23T13:41:40Z</time>
      </trkpt>
      <trkpt lat="42.6571014896" lon="-1.3023138139">
        <ele>448.11</ele>
        <time>2021-05-23T13:41:57Z</time>
      </trkpt>
      <trkpt lat="42.6566307619" lon="-1.3028943446">
        <ele>444.75</ele>
        <time>2021-05-23T13:42:07Z</time>
      </trkpt>
      <trkpt lat="42.6558274403" lon="-1.3038842473">
        <ele>442.34</ele>
        <time>2021-05-23T13:42:24Z</time>
      </trkpt>
      <trkpt lat="42.6556496602" lon="-1.3041591737">
        <ele>441.38</ele>
        <time>2021-05-23T13:42:29Z</time>
      </trkpt>
      <trkpt lat="42.6556077506" lon="-1.3042051066">
        <ele>441.38</ele>
        <time>2021-05-23T13:42:30Z</time>
      </trkpt>
      <trkpt lat="42.6555626560" lon="-1.3042468484">
        <ele>441.38</ele>
        <time>2021-05-23T13:42:31Z</time>
      </trkpt>
      <trkpt lat="42.6555145439" lon="-1.3042809628">
        <ele>441.38</ele>
        <time>2021-05-23T13:42:32Z</time>
      </trkpt>
      <trkpt lat="42.6554660965" lon="-1.3043145742">
        <ele>441.38</ele>
        <time>2021-05-23T13:42:33Z</time>
      </trkpt>
      <trkpt lat="42.6554204989" lon="-1.3043542206">
        <ele>441.38</ele>
        <time>2021-05-23T13:42:34Z</time>
      </trkpt>
      <trkpt lat="42.6553749014" lon="-1.3044010755">
        <ele>440.90</ele>
        <time>2021-05-23T13:42:35Z</time>
      </trkpt>
      <trkpt lat="42.6553350873" lon="-1.3044467568">
        <ele>441.38</ele>
        <time>2021-05-23T13:42:36Z</time>
      </trkpt>
      <trkpt lat="42.6548714004" lon="-1.3052504137">
        <ele>441.38</ele>
        <time>2021-05-23T13:42:48Z</time>
      </trkpt>
      <trkpt lat="42.6546489447" lon="-1.3061477803">
        <ele>442.82</ele>
        <time>2021-05-23T13:43:00Z</time>
      </trkpt>
      <trkpt lat="42.6544843242" lon="-1.3077262603">
        <ele>440.42</ele>
        <time>2021-05-23T13:43:20Z</time>
      </trkpt>
      <trkpt lat="42.6540296059" lon="-1.3091194164">
        <ele>438.50</ele>
        <time>2021-05-23T13:43:36Z</time>
      </trkpt>
      <trkpt lat="42.6532733068" lon="-1.3098899648">
        <ele>436.10</ele>
        <time>2021-05-23T13:43:49Z</time>
      </trkpt>
      <trkpt lat="42.6523818914" lon="-1.3101928029">
        <ele>433.21</ele>
        <time>2021-05-23T13:44:02Z</time>
      </trkpt>
      <trkpt lat="42.6522054523" lon="-1.3102359697">
        <ele>433.21</ele>
        <time>2021-05-23T13:44:05Z</time>
      </trkpt>
      <trkpt lat="42.6521485392" lon="-1.3102539070">
        <ele>433.21</ele>
        <time>2021-05-23T13:44:06Z</time>
      </trkpt>
      <trkpt lat="42.6520428434" lon="-1.3102712575">
        <ele>433.21</ele>
        <time>2021-05-23T13:44:08Z</time>
      </trkpt>
      <trkpt lat="42.6519998442" lon="-1.3102634624">
        <ele>433.21</ele>
        <time>2021-05-23T13:44:09Z</time>
      </trkpt>
      <trkpt lat="42.6519671548" lon="-1.3102470338">
        <ele>433.21</ele>
        <time>2021-05-23T13:44:10Z</time>
      </trkpt>
      <trkpt lat="42.6519456971" lon="-1.3102230616">
        <ele>433.21</ele>
        <time>2021-05-23T13:44:11Z</time>
      </trkpt>
      <trkpt lat="42.6519502234" lon="-1.3101358060">
        <ele>433.21</ele>
        <time>2021-05-23T13:44:14Z</time>
      </trkpt>
      <trkpt lat="42.6519756205" lon="-1.3101254124">
        <ele>433.21</ele>
        <time>2021-05-23T13:44:15Z</time>
      </trkpt>
      <trkpt lat="42.6519976649" lon="-1.3101258315">
        <ele>433.21</ele>
        <time>2021-05-23T13:44:16Z</time>
      </trkpt>
      <trkpt lat="42.6520214695" lon="-1.3101234008">
        <ele>433.21</ele>
        <time>2021-05-23T13:44:17Z</time>
      </trkpt>
      <trkpt lat="42.6520461962" lon="-1.3101174496">
        <ele>434.17</ele>
        <time>2021-05-23T13:44:18Z</time>
      </trkpt>
      <trkpt lat="42.6522041112" lon="-1.3100153580">
        <ele>435.13</ele>
        <time>2021-05-23T13:44:26Z</time>
      </trkpt>
      <trkpt lat="42.6523109805" lon="-1.3098666631">
        <ele>436.10</ele>
        <time>2021-05-23T13:44:37Z</time>
      </trkpt>
      <trkpt lat="42.6524258964" lon="-1.3099607080">
        <ele>436.58</ele>
        <time>2021-05-23T13:44:46Z</time>
      </trkpt>
      <trkpt lat="42.6524241362" lon="-1.3099773042">
        <ele>437.06</ele>
        <time>2021-05-23T13:45:13Z</time>
      </trkpt>
    </trkseg>
  </trk>
</gpx>
